GEFSSGP_prec_meanprecacc_162.txt.gz
Total_Precipitation_Accumulation
0.73 0.94 1.37 1.90 2.37 1.68 1.00 0.72 0.49 0.41 0.33 0.26 0.20 0.20 0.29 0.41 0.65 1.15 1.09 0.72 0.47 0.43 0.51 0.68 0.84 0.83 0.77 0.72 0.79 0.92 1.06 1.18 1.16 1.08 0.93 0.74 0.66 0.57 0.60 0.59 0.57 0.53 0.44 0.49 0.53 0.53 0.52 0.47 0.42
0.74 1.42 1.93 2.64 2.29 1.25 0.98 0.71 0.62 0.39 0.27 0.21 0.14 0.16 0.23 0.23 0.24 0.59 1.01 0.88 0.41 0.32 0.38 0.49 0.68 0.77 0.76 0.80 0.89 0.96 1.04 1.07 1.00 0.90 0.76 0.66 0.63 0.60 0.57 0.60 0.62 0.58 0.50 0.53 0.56 0.64 0.57 0.48 0.40
0.85 1.66 2.23 2.43 1.51 1.00 0.94 0.66 0.57 0.36 0.28 0.21 0.14 0.13 0.18 0.29 0.36 0.63 0.86 0.55 0.36 0.31 0.40 0.53 0.70 0.75 0.78 0.81 0.89 0.94 0.94 0.90 0.86 0.82 0.73 0.67 0.64 0.62 0.62 0.63 0.66 0.62 0.54 0.50 0.59 0.63 0.56 0.50 0.41
1.23 2.01 2.27 1.78 1.12 0.73 0.62 0.61 0.47 0.38 0.27 0.17 0.13 0.17 0.22 0.32 0.42 0.57 0.55 0.40 0.37 0.39 0.47 0.52 0.69 0.71 0.70 0.79 0.84 0.84 0.75 0.70 0.75 0.78 0.71 0.68 0.62 0.63 0.66 0.65 0.61 0.55 0.51 0.53 0.60 0.61 0.56 0.54 0.44
1.60 2.20 2.10 1.43 0.99 0.70 0.56 0.50 0.43 0.38 0.33 0.23 0.15 0.24 0.42 0.46 0.48 0.46 0.43 0.40 0.42 0.52 0.62 0.56 0.68 0.65 0.63 0.75 0.84 0.83 0.83 0.80 0.82 0.84 0.78 0.75 0.68 0.66 0.69 0.64 0.53 0.48 0.51 0.57 0.72 0.71 0.54 0.49 0.45
2.04 2.18 2.25 1.55 1.07 0.77 0.68 0.49 0.40 0.35 0.29 0.25 0.18 0.27 0.47 0.52 0.56 0.56 0.51 0.53 0.54 0.55 0.58 0.59 0.72 0.70 0.67 0.73 0.79 0.74 0.78 0.90 0.92 0.85 0.84 1.01 0.85 0.71 0.63 0.59 0.53 0.50 0.50 0.57 0.69 0.70 0.55 0.48 0.51
2.16 2.23 1.87 1.29 1.08 1.11 0.83 0.49 0.42 0.41 0.36 0.28 0.20 0.34 0.49 0.56 0.47 0.46 0.48 0.51 0.50 0.49 0.52 0.54 0.62 0.68 0.69 0.78 0.86 0.86 0.89 0.97 1.01 0.87 0.87 0.96 0.74 0.59 0.54 0.53 0.52 0.53 0.58 0.63 0.66 0.69 0.62 0.58 0.59
1.49 1.60 1.46 1.26 1.16 1.10 0.78 0.46 0.36 0.33 0.34 0.24 0.21 0.33 0.59 0.58 0.41 0.44 0.47 0.52 0.55 0.55 0.57 0.53 0.57 0.68 0.81 0.83 0.85 0.95 1.00 0.98 1.03 0.91 0.89 0.85 0.61 0.50 0.52 0.48 0.46 0.48 0.55 0.63 0.68 0.70 0.65 0.62 0.60
1.39 1.51 1.57 1.48 1.16 0.91 0.71 0.51 0.35 0.27 0.28 0.24 0.19 0.20 0.31 0.38 0.39 0.50 0.57 0.57 0.61 0.61 0.62 0.59 0.52 0.53 0.69 0.83 0.77 0.98 1.08 1.05 0.97 0.93 0.93 0.83 0.57 0.50 0.51 0.48 0.55 0.56 0.64 0.71 0.73 0.71 0.63 0.57 0.51
1.37 1.53 1.52 1.15 0.87 0.70 0.62 0.53 0.43 0.40 0.41 0.33 0.27 0.24 0.26 0.34 0.41 0.46 0.49 0.54 0.57 0.57 0.51 0.51 0.50 0.48 0.50 0.59 0.86 1.21 1.06 0.97 0.81 0.84 0.81 0.81 0.75 0.70 0.55 0.56 0.69 0.73 0.75 0.76 0.76 0.73 0.60 0.46 0.38
1.13 1.10 0.99 0.98 0.69 0.49 0.49 0.49 0.42 0.41 0.45 0.34 0.32 0.27 0.26 0.32 0.36 0.37 0.39 0.43 0.48 0.50 0.48 0.45 0.43 0.42 0.45 0.60 0.73 0.95 1.03 1.00 0.88 0.76 0.76 0.84 0.79 0.69 0.59 0.53 0.58 0.66 0.71 0.65 0.66 0.64 0.48 0.43 0.46
0.99 0.85 0.72 0.67 0.52 0.45 0.51 0.44 0.38 0.40 0.38 0.26 0.23 0.24 0.30 0.37 0.37 0.34 0.37 0.44 0.49 0.50 0.53 0.53 0.45 0.44 0.47 0.51 0.52 0.61 0.68 0.73 0.71 0.64 0.65 0.78 0.73 0.68 0.67 0.66 0.63 0.63 0.65 0.71 0.67 0.63 0.55 0.50 0.52
0.87 0.75 0.59 0.47 0.50 0.47 0.44 0.41 0.38 0.37 0.30 0.27 0.25 0.31 0.36 0.37 0.37 0.36 0.37 0.40 0.46 0.48 0.53 0.54 0.51 0.46 0.46 0.48 0.47 0.46 0.56 0.60 0.62 0.65 0.62 0.65 0.69 0.68 0.67 0.64 0.71 0.72 0.69 0.73 0.70 0.61 0.56 0.54 0.51
0.79 0.70 0.64 0.49 0.46 0.49 0.45 0.40 0.42 0.43 0.32 0.28 0.26 0.30 0.31 0.35 0.38 0.38 0.38 0.42 0.44 0.45 0.52 0.55 0.54 0.56 0.55 0.52 0.52 0.51 0.57 0.62 0.61 0.54 0.52 0.58 0.59 0.61 0.71 0.76 0.78 0.79 0.79 0.85 0.83 0.65 0.64 0.65 0.59
0.66 0.69 0.67 0.55 0.48 0.53 0.51 0.57 0.50 0.48 0.38 0.38 0.32 0.27 0.28 0.29 0.30 0.35 0.37 0.40 0.44 0.50 0.58 0.58 0.58 0.68 0.67 0.63 0.65 0.59 0.63 0.63 0.62 0.62 0.61 0.65 0.66 0.68 0.77 0.86 0.89 0.87 0.85 0.87 1.09 0.98 0.74 0.69 0.64
0.72 0.79 0.91 0.60 0.52 0.62 0.68 0.71 0.47 0.48 0.44 0.46 0.36 0.32 0.28 0.30 0.30 0.29 0.30 0.38 0.42 0.53 0.65 0.76 0.68 0.73 0.76 0.75 0.77 0.74 0.74 0.76 0.71 0.70 0.72 0.73 0.77 0.80 0.89 0.94 0.85 0.92 0.99 1.02 1.17 1.24 0.94 0.76 0.74
0.81 0.83 0.82 0.63 0.49 0.57 0.64 0.61 0.47 0.42 0.38 0.36 0.33 0.33 0.31 0.27 0.28 0.26 0.27 0.32 0.39 0.53 0.66 0.81 0.82 0.77 0.83 0.89 0.92 0.91 0.88 0.89 0.86 0.86 0.83 0.85 0.89 0.96 1.02 1.04 0.99 0.99 1.01 1.11 1.11 1.32 1.27 1.06 0.93
0.80 0.67 0.61 0.54 0.51 0.56 0.57 0.45 0.41 0.37 0.32 0.29 0.28 0.29 0.27 0.24 0.25 0.25 0.22 0.25 0.31 0.46 0.61 0.76 0.88 0.98 1.04 1.09 1.13 1.17 1.10 1.04 1.07 1.11 1.08 1.09 1.14 1.11 1.17 1.20 1.22 1.29 1.27 1.25 1.18 1.36 1.46 1.25 1.19
0.62 0.56 0.51 0.44 0.45 0.45 0.41 0.35 0.37 0.35 0.32 0.27 0.24 0.24 0.21 0.19 0.23 0.24 0.18 0.21 0.27 0.38 0.49 0.67 1.01 1.43 1.61 1.51 1.45 1.53 1.64 1.63 1.54 1.52 1.49 1.55 1.55 1.55 1.58 1.55 1.53 1.49 1.44 1.50 1.50 1.72 2.03 1.59 1.37
0.58 0.60 0.56 0.47 0.35 0.34 0.34 0.30 0.29 0.29 0.29 0.25 0.22 0.23 0.21 0.20 0.19 0.17 0.14 0.16 0.23 0.40 0.54 0.67 0.95 1.40 1.59 1.70 1.81 2.03 2.22 2.12 1.99 1.98 1.93 2.00 2.02 2.19 2.15 2.13 2.10 2.00 1.98 1.96 1.89 1.97 2.22 1.89 1.69
0.57 0.57 0.53 0.45 0.33 0.28 0.25 0.25 0.22 0.23 0.24 0.22 0.22 0.23 0.20 0.18 0.18 0.17 0.15 0.18 0.23 0.32 0.44 0.59 0.76 1.07 1.41 1.68 1.95 2.24 2.48 2.48 2.37 2.20 2.17 2.23 2.29 2.45 2.59 2.58 2.61 2.43 2.28 2.29 2.22 2.16 2.26 2.31 2.09
0.51 0.39 0.34 0.32 0.37 0.36 0.29 0.37 0.26 0.25 0.24 0.24 0.24 0.23 0.21 0.21 0.21 0.23 0.20 0.20 0.23 0.29 0.37 0.49 0.67 0.91 1.16 1.41 1.83 2.27 2.59 2.71 2.63 2.52 2.47 2.43 2.45 2.51 2.72 2.75 2.86 2.69 2.56 2.50 2.42 2.24 2.32 2.59 2.50
0.36 0.31 0.29 0.30 0.34 0.30 0.23 0.29 0.27 0.24 0.26 0.26 0.25 0.24 0.22 0.20 0.23 0.27 0.26 0.28 0.30 0.30 0.35 0.45 0.59 0.81 1.06 1.29 1.65 2.07 2.37 2.62 2.78 2.61 2.48 2.50 2.53 2.56 2.68 2.82 2.93 2.78 2.64 2.57 2.68 2.55 2.49 2.42 2.38
0.29 0.29 0.26 0.25 0.30 0.33 0.18 0.27 0.36 0.27 0.24 0.24 0.21 0.21 0.22 0.23 0.29 0.33 0.41 0.46 0.46 0.39 0.42 0.50 0.57 0.71 0.87 1.02 1.24 1.49 1.85 2.15 2.50 2.50 2.43 2.55 2.54 2.47 2.40 2.56 2.79 2.73 2.71 2.71 2.78 2.81 2.74 2.72 2.72
0.24 0.32 0.40 0.40 0.41 0.29 0.15 0.28 0.40 0.31 0.24 0.23 0.23 0.22 0.24 0.27 0.32 0.39 0.53 0.59 0.61 0.52 0.46 0.47 0.57 0.63 0.70 0.80 0.93 1.09 1.36 1.56 1.94 2.26 2.25 2.17 2.23 2.29 2.35 2.39 2.40 2.40 2.48 2.62 2.84 2.81 2.70 2.68 2.78
0.18 0.31 0.47 0.52 0.47 0.34 0.28 0.44 0.49 0.37 0.28 0.25 0.24 0.26 0.30 0.34 0.40 0.56 0.71 0.73 0.73 0.65 0.55 0.53 0.62 0.66 0.67 0.72 0.75 0.85 1.01 1.14 1.32 1.55 1.67 1.71 1.78 2.01 2.12 2.24 2.22 2.24 2.31 2.38 2.51 2.54 2.55 2.52 2.51
0.18 0.22 0.26 0.37 0.36 0.38 0.42 0.54 0.49 0.32 0.30 0.31 0.32 0.35 0.45 0.52 0.58 0.72 0.86 0.87 0.79 0.72 0.64 0.61 0.65 0.74 0.74 0.74 0.76 0.85 0.91 0.94 1.06 1.10 1.26 1.45 1.50 1.56 1.71 1.83 1.94 2.06 2.11 2.19 2.33 2.40 2.39 2.41 2.40
0.12 0.17 0.29 0.42 0.51 0.52 0.47 0.53 0.51 0.41 0.40 0.39 0.44 0.50 0.61 0.70 0.76 0.85 1.00 1.01 0.86 0.74 0.64 0.61 0.64 0.76 0.94 1.05 1.00 0.95 1.02 1.09 1.31 1.34 1.19 1.19 1.38 1.46 1.51 1.57 1.65 1.82 1.95 2.04 2.12 2.21 2.32 2.32 2.32
0.18 0.26 0.37 0.49 0.51 0.65 0.74 0.71 0.61 0.59 0.59 0.61 0.64 0.70 0.77 0.88 0.89 0.85 0.94 1.01 0.90 0.71 0.63 0.58 0.59 0.70 0.84 0.88 0.94 0.93 0.98 1.08 1.36 1.58 1.52 1.34 1.35 1.40 1.37 1.33 1.42 1.57 1.70 1.81 1.93 1.99 2.00 2.03 2.16
0.27 0.38 0.56 0.80 0.75 0.69 0.82 0.83 0.67 0.60 0.64 0.65 0.65 0.64 0.69 0.80 0.81 0.82 0.85 0.83 0.73 0.58 0.50 0.47 0.49 0.60 0.71 0.71 0.77 0.85 0.86 0.95 1.08 1.20 1.22 1.16 1.09 1.07 1.14 1.19 1.22 1.31 1.48 1.60 1.65 1.66 1.70 1.77 1.89

GEFSSGP_prec_meanprecacc_168.txt.gz
Total_Precipitation_Accumulation
0.74 0.95 1.38 1.91 2.39 1.70 1.02 0.74 0.50 0.44 0.37 0.30 0.26 0.26 0.34 0.46 0.69 1.18 1.13 0.76 0.51 0.51 0.61 0.83 1.01 0.97 0.90 0.85 0.88 0.98 1.13 1.26 1.22 1.15 1.00 0.80 0.70 0.61 0.63 0.61 0.59 0.55 0.46 0.51 0.55 0.54 0.53 0.48 0.43
0.74 1.42 1.94 2.65 2.31 1.27 1.00 0.74 0.65 0.42 0.31 0.25 0.19 0.22 0.29 0.27 0.27 0.63 1.08 0.95 0.47 0.39 0.45 0.58 0.80 0.88 0.88 0.90 0.97 1.02 1.09 1.10 1.03 0.93 0.78 0.69 0.66 0.63 0.58 0.61 0.63 0.58 0.51 0.54 0.57 0.65 0.58 0.49 0.42
0.86 1.66 2.25 2.45 1.53 1.02 0.97 0.70 0.60 0.40 0.32 0.26 0.19 0.19 0.25 0.35 0.41 0.70 0.93 0.59 0.40 0.36 0.47 0.62 0.80 0.85 0.87 0.88 0.95 0.99 0.98 0.92 0.87 0.83 0.74 0.68 0.65 0.65 0.65 0.64 0.66 0.62 0.54 0.51 0.59 0.64 0.57 0.51 0.42
1.24 2.02 2.28 1.79 1.14 0.74 0.65 0.64 0.50 0.41 0.29 0.20 0.17 0.23 0.28 0.38 0.49 0.63 0.59 0.41 0.40 0.43 0.55 0.61 0.79 0.82 0.78 0.87 0.90 0.88 0.77 0.71 0.76 0.78 0.72 0.69 0.64 0.65 0.67 0.66 0.61 0.55 0.51 0.53 0.60 0.62 0.57 0.54 0.44
1.61 2.21 2.11 1.45 1.01 0.72 0.58 0.53 0.46 0.41 0.35 0.27 0.18 0.30 0.50 0.54 0.55 0.51 0.47 0.43 0.46 0.57 0.71 0.65 0.79 0.77 0.72 0.80 0.88 0.85 0.85 0.81 0.83 0.84 0.79 0.77 0.70 0.68 0.70 0.64 0.53 0.48 0.51 0.57 0.72 0.71 0.54 0.49 0.46
2.04 2.18 2.26 1.57 1.09 0.80 0.71 0.53 0.44 0.39 0.33 0.28 0.22 0.32 0.54 0.60 0.65 0.61 0.57 0.59 0.60 0.60 0.66 0.68 0.82 0.78 0.72 0.77 0.81 0.76 0.80 0.91 0.93 0.86 0.84 1.01 0.85 0.71 0.64 0.59 0.53 0.50 0.50 0.57 0.69 0.71 0.55 0.48 0.51
2.17 2.24 1.89 1.32 1.11 1.14 0.86 0.51 0.46 0.45 0.41 0.32 0.25 0.39 0.55 0.63 0.55 0.51 0.53 0.55 0.55 0.55 0.57 0.60 0.67 0.72 0.73 0.80 0.88 0.87 0.90 0.98 1.02 0.88 0.88 0.96 0.74 0.59 0.54 0.54 0.53 0.53 0.58 0.63 0.66 0.70 0.62 0.58 0.59
1.50 1.60 1.48 1.27 1.19 1.14 0.80 0.47 0.38 0.36 0.39 0.28 0.26 0.39 0.64 0.64 0.47 0.48 0.52 0.55 0.58 0.60 0.62 0.59 0.63 0.75 0.85 0.85 0.87 0.97 1.02 0.99 1.03 0.91 0.89 0.85 0.61 0.50 0.52 0.48 0.46 0.48 0.55 0.64 0.68 0.70 0.66 0.62 0.61
1.40 1.52 1.59 1.50 1.19 0.95 0.74 0.54 0.37 0.29 0.31 0.27 0.23 0.25 0.34 0.41 0.43 0.53 0.61 0.60 0.64 0.64 0.66 0.63 0.56 0.57 0.71 0.85 0.79 1.00 1.10 1.06 0.98 0.94 0.94 0.84 0.57 0.50 0.51 0.48 0.55 0.56 0.64 0.71 0.73 0.71 0.63 0.58 0.52
1.38 1.55 1.55 1.17 0.89 0.73 0.65 0.56 0.46 0.43 0.45 0.36 0.29 0.26 0.28 0.36 0.45 0.50 0.51 0.56 0.59 0.59 0.53 0.54 0.52 0.50 0.52 0.60 0.87 1.23 1.08 0.98 0.81 0.84 0.81 0.81 0.75 0.70 0.55 0.56 0.70 0.73 0.75 0.76 0.76 0.73 0.60 0.46 0.38
1.14 1.12 1.02 1.00 0.71 0.52 0.54 0.54 0.44 0.44 0.49 0.36 0.34 0.30 0.29 0.33 0.39 0.40 0.42 0.45 0.49 0.52 0.50 0.47 0.44 0.44 0.47 0.61 0.73 0.95 1.03 1.01 0.88 0.76 0.76 0.84 0.79 0.69 0.59 0.53 0.58 0.67 0.71 0.65 0.66 0.64 0.48 0.43 0.46
1.00 0.86 0.74 0.69 0.54 0.49 0.56 0.48 0.40 0.42 0.40 0.26 0.23 0.27 0.35 0.39 0.38 0.35 0.39 0.48 0.53 0.54 0.54 0.54 0.46 0.45 0.48 0.52 0.52 0.61 0.68 0.73 0.72 0.64 0.65 0.78 0.73 0.68 0.67 0.66 0.63 0.63 0.65 0.71 0.67 0.63 0.55 0.50 0.52
0.87 0.76 0.60 0.48 0.52 0.50 0.47 0.44 0.40 0.38 0.30 0.27 0.26 0.34 0.39 0.39 0.37 0.37 0.38 0.43 0.50 0.52 0.54 0.54 0.51 0.48 0.47 0.49 0.48 0.46 0.56 0.60 0.62 0.65 0.62 0.65 0.69 0.68 0.67 0.64 0.71 0.72 0.70 0.73 0.70 0.61 0.56 0.54 0.51
0.80 0.71 0.65 0.51 0.50 0.52 0.47 0.42 0.43 0.44 0.32 0.29 0.28 0.33 0.35 0.37 0.39 0.39 0.40 0.45 0.48 0.49 0.55 0.56 0.55 0.57 0.56 0.54 0.52 0.51 0.57 0.63 0.61 0.54 0.52 0.58 0.59 0.61 0.71 0.76 0.78 0.79 0.79 0.85 0.83 0.65 0.64 0.65 0.59
0.67 0.71 0.68 0.57 0.54 0.56 0.53 0.60 0.51 0.49 0.39 0.40 0.32 0.29 0.31 0.32 0.32 0.37 0.39 0.43 0.48 0.54 0.62 0.60 0.60 0.69 0.69 0.65 0.66 0.59 0.63 0.64 0.62 0.62 0.61 0.65 0.66 0.68 0.77 0.86 0.89 0.87 0.85 0.87 1.09 0.98 0.74 0.69 0.64
0.75 0.81 0.94 0.63 0.56 0.64 0.70 0.73 0.49 0.49 0.46 0.47 0.38 0.33 0.31 0.32 0.32 0.31 0.32 0.39 0.45 0.57 0.67 0.77 0.69 0.74 0.76 0.76 0.78 0.75 0.74 0.76 0.71 0.70 0.73 0.73 0.77 0.80 0.89 0.94 0.85 0.92 0.99 1.02 1.17 1.24 0.94 0.76 0.74
0.85 0.86 0.85 0.67 0.52 0.61 0.66 0.63 0.48 0.43 0.39 0.37 0.35 0.35 0.34 0.29 0.30 0.27 0.28 0.33 0.40 0.56 0.68 0.82 0.83 0.79 0.84 0.89 0.93 0.92 0.88 0.89 0.87 0.87 0.83 0.85 0.89 0.96 1.02 1.04 0.99 0.99 1.01 1.11 1.11 1.32 1.27 1.06 0.93
0.83 0.70 0.64 0.59 0.55 0.60 0.59 0.47 0.42 0.37 0.33 0.30 0.30 0.31 0.30 0.26 0.27 0.26 0.23 0.25 0.32 0.48 0.62 0.77 0.89 1.00 1.06 1.09 1.14 1.17 1.11 1.05 1.08 1.11 1.08 1.09 1.14 1.11 1.17 1.20 1.22 1.29 1.27 1.25 1.19 1.36 1.46 1.25 1.19
0.63 0.57 0.54 0.47 0.48 0.49 0.44 0.37 0.38 0.35 0.33 0.28 0.25 0.26 0.23 0.20 0.25 0.25 0.19 0.21 0.28 0.39 0.50 0.68 1.03 1.45 1.62 1.51 1.45 1.53 1.64 1.64 1.55 1.52 1.49 1.55 1.55 1.55 1.58 1.55 1.53 1.49 1.44 1.50 1.50 1.72 2.04 1.59 1.37
0.59 0.61 0.58 0.49 0.38 0.37 0.36 0.31 0.30 0.29 0.30 0.26 0.23 0.24 0.23 0.21 0.20 0.18 0.14 0.16 0.23 0.41 0.55 0.68 0.98 1.42 1.60 1.70 1.82 2.04 2.23 2.13 2.00 1.98 1.93 2.00 2.02 2.19 2.15 2.13 2.10 2.01 1.99 1.97 1.90 1.97 2.24 1.91 1.70
0.58 0.58 0.54 0.47 0.36 0.31 0.28 0.27 0.24 0.25 0.25 0.23 0.23 0.24 0.22 0.19 0.18 0.18 0.15 0.18 0.23 0.34 0.46 0.61 0.80 1.08 1.42 1.69 1.96 2.24 2.48 2.48 2.37 2.20 2.17 2.23 2.29 2.45 2.59 2.58 2.61 2.43 2.29 2.29 2.23 2.17 2.27 2.32 2.10
0.53 0.40 0.36 0.34 0.40 0.39 0.30 0.39 0.27 0.26 0.26 0.26 0.26 0.24 0.22 0.21 0.21 0.23 0.20 0.21 0.24 0.30 0.38 0.50 0.68 0.92 1.17 1.42 1.83 2.28 2.60 2.71 2.63 2.52 2.47 2.43 2.45 2.51 2.72 2.75 2.86 2.69 2.56 2.51 2.43 2.24 2.33 2.60 2.52
0.38 0.32 0.32 0.33 0.37 0.32 0.24 0.30 0.28 0.25 0.27 0.28 0.27 0.25 0.23 0.21 0.24 0.27 0.27 0.28 0.31 0.31 0.36 0.46 0.59 0.82 1.07 1.29 1.65 2.08 2.38 2.62 2.78 2.61 2.48 2.50 2.53 2.56 2.68 2.82 2.93 2.79 2.65 2.58 2.68 2.55 2.49 2.42 2.39
0.31 0.30 0.29 0.28 0.33 0.35 0.19 0.28 0.37 0.27 0.24 0.25 0.22 0.21 0.22 0.24 0.29 0.34 0.42 0.46 0.47 0.40 0.42 0.50 0.58 0.73 0.88 1.02 1.25 1.50 1.85 2.15 2.51 2.50 2.43 2.55 2.54 2.47 2.40 2.56 2.80 2.73 2.71 2.71 2.78 2.81 2.75 2.73 2.73
0.27 0.36 0.44 0.43 0.44 0.31 0.16 0.28 0.41 0.31 0.24 0.24 0.23 0.23 0.24 0.27 0.32 0.40 0.54 0.59 0.61 0.53 0.46 0.47 0.57 0.64 0.70 0.80 0.93 1.10 1.37 1.56 1.95 2.26 2.25 2.17 2.23 2.29 2.35 2.39 2.40 2.40 2.48 2.62 2.85 2.81 2.70 2.69 2.78
0.22 0.35 0.51 0.54 0.49 0.35 0.28 0.45 0.50 0.37 0.28 0.26 0.24 0.26 0.30 0.34 0.40 0.57 0.72 0.73 0.74 0.65 0.55 0.53 0.62 0.66 0.68 0.72 0.75 0.86 1.02 1.15 1.32 1.55 1.67 1.71 1.78 2.01 2.12 2.24 2.22 2.24 2.31 2.39 2.51 2.55 2.56 2.53 2.51
0.19 0.23 0.26 0.38 0.37 0.39 0.43 0.54 0.49 0.32 0.30 0.31 0.32 0.35 0.45 0.53 0.59 0.72 0.86 0.87 0.79 0.72 0.64 0.61 0.65 0.74 0.75 0.74 0.76 0.87 0.92 0.95 1.07 1.11 1.26 1.45 1.50 1.56 1.71 1.83 1.94 2.06 2.11 2.19 2.34 2.41 2.40 2.42 2.41
0.13 0.18 0.29 0.43 0.52 0.52 0.47 0.53 0.52 0.41 0.41 0.39 0.44 0.50 0.61 0.70 0.76 0.85 1.00 1.01 0.86 0.74 0.64 0.61 0.64 0.76 0.94 1.05 1.01 0.96 1.03 1.10 1.32 1.35 1.20 1.19 1.38 1.46 1.51 1.57 1.66 1.82 1.95 2.04 2.12 2.23 2.33 2.33 2.33
0.18 0.27 0.37 0.49 0.51 0.66 0.74 0.71 0.61 0.59 0.59 0.61 0.64 0.70 0.77 0.89 0.89 0.86 0.94 1.02 0.91 0.72 0.63 0.58 0.59 0.70 0.84 0.88 0.94 0.93 0.98 1.08 1.36 1.58 1.52 1.34 1.36 1.40 1.37 1.33 1.42 1.57 1.70 1.81 1.94 2.00 2.01 2.03 2.17
0.27 0.38 0.56 0.80 0.75 0.69 0.83 0.84 0.67 0.60 0.64 0.66 0.65 0.64 0.69 0.80 0.82 0.83 0.86 0.83 0.74 0.59 0.50 0.48 0.49 0.60 0.71 0.71 0.77 0.85 0.86 0.96 1.08 1.20 1.22 1.16 1.09 1.07 1.14 1.19 1.22 1.31 1.48 1.60 1.65 1.67 1.70 1.77 1.90

GEFSSGP_prec_meanprecacc_174.txt.gz
Total_Precipitation_Accumulation
0.74 0.96 1.40 1.97 2.50 1.83 1.14 0.83 0.56 0.48 0.40 0.31 0.27 0.29 0.40 0.52 0.80 1.30 1.28 0.96 0.67 0.60 0.68 0.90 1.12 1.08 0.98 0.93 0.97 1.07 1.21 1.35 1.31 1.22 1.07 0.86 0.76 0.66 0.68 0.65 0.63 0.59 0.50 0.54 0.57 0.56 0.55 0.49 0.44
0.75 1.44 1.96 2.73 2.43 1.40 1.12 0.84 0.73 0.45 0.32 0.26 0.21 0.25 0.33 0.30 0.34 0.75 1.26 1.12 0.59 0.47 0.51 0.65 0.88 0.96 0.95 0.98 1.04 1.08 1.14 1.15 1.08 0.97 0.81 0.72 0.70 0.65 0.59 0.62 0.64 0.61 0.53 0.56 0.58 0.66 0.59 0.50 0.43
0.86 1.67 2.28 2.52 1.63 1.14 1.08 0.80 0.67 0.43 0.33 0.27 0.20 0.20 0.27 0.39 0.50 0.86 1.11 0.69 0.47 0.42 0.54 0.70 0.88 0.92 0.93 0.96 1.02 1.04 1.04 0.94 0.89 0.85 0.77 0.70 0.67 0.66 0.65 0.64 0.67 0.63 0.55 0.51 0.60 0.65 0.57 0.51 0.44
1.24 2.03 2.31 1.85 1.23 0.84 0.72 0.69 0.55 0.46 0.32 0.22 0.19 0.26 0.32 0.44 0.59 0.79 0.71 0.50 0.48 0.50 0.63 0.72 0.90 0.90 0.87 0.94 0.97 0.92 0.81 0.72 0.77 0.80 0.74 0.70 0.65 0.66 0.69 0.67 0.61 0.55 0.51 0.54 0.61 0.62 0.57 0.54 0.45
1.61 2.24 2.16 1.52 1.10 0.79 0.61 0.56 0.48 0.44 0.38 0.29 0.20 0.35 0.55 0.60 0.64 0.62 0.59 0.52 0.54 0.66 0.81 0.74 0.88 0.84 0.80 0.87 0.92 0.87 0.86 0.82 0.84 0.86 0.80 0.77 0.71 0.68 0.70 0.65 0.53 0.48 0.51 0.57 0.72 0.71 0.54 0.49 0.46
2.06 2.21 2.33 1.66 1.17 0.86 0.75 0.55 0.46 0.41 0.36 0.30 0.24 0.37 0.61 0.69 0.76 0.71 0.67 0.69 0.69 0.69 0.76 0.75 0.89 0.83 0.77 0.80 0.84 0.78 0.81 0.92 0.94 0.87 0.85 1.02 0.86 0.71 0.64 0.59 0.54 0.50 0.50 0.57 0.69 0.71 0.55 0.48 0.52
2.19 2.27 1.95 1.40 1.18 1.21 0.91 0.53 0.47 0.47 0.45 0.35 0.26 0.43 0.62 0.73 0.64 0.56 0.58 0.61 0.64 0.64 0.65 0.66 0.72 0.76 0.76 0.83 0.90 0.89 0.91 0.99 1.03 0.88 0.88 0.96 0.74 0.59 0.54 0.54 0.53 0.54 0.59 0.64 0.66 0.70 0.62 0.58 0.60
1.51 1.64 1.53 1.35 1.26 1.22 0.84 0.48 0.39 0.38 0.42 0.30 0.28 0.44 0.71 0.72 0.52 0.50 0.54 0.59 0.65 0.67 0.69 0.64 0.69 0.80 0.88 0.87 0.89 0.98 1.03 1.00 1.04 0.91 0.89 0.85 0.61 0.50 0.52 0.48 0.46 0.48 0.55 0.64 0.68 0.70 0.66 0.63 0.61
1.41 1.56 1.65 1.57 1.26 1.03 0.76 0.55 0.38 0.30 0.32 0.28 0.25 0.28 0.37 0.44 0.46 0.56 0.64 0.64 0.72 0.70 0.71 0.67 0.61 0.62 0.75 0.87 0.81 1.02 1.11 1.07 0.98 0.94 0.94 0.84 0.58 0.50 0.51 0.48 0.55 0.56 0.64 0.71 0.73 0.71 0.64 0.58 0.52
1.39 1.59 1.61 1.21 0.91 0.77 0.68 0.58 0.47 0.45 0.47 0.39 0.33 0.29 0.30 0.40 0.49 0.52 0.54 0.60 0.64 0.64 0.57 0.57 0.54 0.52 0.53 0.61 0.88 1.24 1.08 0.98 0.82 0.84 0.81 0.81 0.75 0.70 0.55 0.56 0.70 0.73 0.75 0.76 0.76 0.73 0.60 0.46 0.39
1.15 1.16 1.05 1.03 0.72 0.53 0.57 0.57 0.46 0.46 0.53 0.38 0.37 0.33 0.32 0.37 0.41 0.43 0.44 0.48 0.52 0.55 0.53 0.49 0.46 0.45 0.48 0.61 0.74 0.96 1.03 1.01 0.88 0.76 0.76 0.84 0.79 0.69 0.59 0.53 0.58 0.67 0.71 0.66 0.66 0.64 0.48 0.43 0.46
1.00 0.87 0.75 0.71 0.54 0.50 0.59 0.51 0.41 0.47 0.45 0.28 0.25 0.28 0.37 0.42 0.40 0.36 0.41 0.50 0.57 0.58 0.58 0.56 0.48 0.46 0.48 0.52 0.52 0.61 0.68 0.73 0.72 0.64 0.65 0.78 0.73 0.68 0.67 0.66 0.63 0.63 0.65 0.71 0.67 0.63 0.55 0.50 0.52
0.88 0.76 0.60 0.49 0.53 0.51 0.50 0.49 0.42 0.42 0.33 0.28 0.28 0.35 0.41 0.41 0.39 0.37 0.39 0.44 0.53 0.57 0.60 0.58 0.53 0.48 0.48 0.49 0.48 0.46 0.56 0.60 0.62 0.65 0.62 0.65 0.69 0.68 0.67 0.64 0.71 0.72 0.70 0.73 0.70 0.61 0.56 0.54 0.51
0.80 0.72 0.65 0.52 0.52 0.53 0.51 0.48 0.46 0.48 0.35 0.30 0.28 0.34 0.36 0.38 0.39 0.41 0.41 0.46 0.51 0.53 0.62 0.62 0.58 0.58 0.56 0.54 0.52 0.51 0.57 0.63 0.61 0.54 0.52 0.58 0.59 0.61 0.71 0.76 0.78 0.79 0.79 0.85 0.83 0.65 0.64 0.65 0.59
0.68 0.73 0.71 0.61 0.60 0.61 0.62 0.66 0.56 0.53 0.42 0.41 0.33 0.29 0.32 0.33 0.33 0.39 0.41 0.44 0.50 0.58 0.67 0.65 0.63 0.72 0.70 0.65 0.66 0.59 0.63 0.64 0.62 0.62 0.61 0.65 0.66 0.68 0.77 0.86 0.89 0.87 0.85 0.87 1.09 0.98 0.74 0.69 0.64
0.77 0.86 0.99 0.67 0.60 0.66 0.75 0.81 0.54 0.54 0.50 0.49 0.39 0.34 0.33 0.33 0.32 0.32 0.33 0.40 0.46 0.59 0.70 0.80 0.71 0.75 0.77 0.76 0.78 0.75 0.75 0.76 0.72 0.71 0.73 0.73 0.77 0.80 0.89 0.95 0.85 0.92 0.99 1.02 1.17 1.24 0.94 0.76 0.74
0.89 0.93 0.91 0.71 0.54 0.61 0.68 0.69 0.54 0.47 0.41 0.39 0.36 0.36 0.37 0.31 0.30 0.28 0.30 0.34 0.41 0.57 0.69 0.83 0.85 0.80 0.86 0.90 0.93 0.92 0.89 0.90 0.87 0.87 0.83 0.85 0.89 0.96 1.03 1.05 0.99 0.99 1.01 1.11 1.11 1.32 1.27 1.07 0.94
0.90 0.76 0.69 0.62 0.57 0.60 0.61 0.49 0.44 0.39 0.34 0.31 0.32 0.33 0.32 0.27 0.28 0.27 0.25 0.26 0.32 0.48 0.63 0.77 0.91 1.02 1.08 1.11 1.15 1.19 1.11 1.05 1.08 1.11 1.08 1.09 1.14 1.11 1.17 1.20 1.22 1.30 1.27 1.26 1.19 1.36 1.47 1.26 1.20
0.66 0.60 0.58 0.50 0.49 0.50 0.45 0.39 0.39 0.36 0.33 0.29 0.26 0.28 0.24 0.21 0.26 0.26 0.20 0.22 0.28 0.39 0.50 0.68 1.04 1.45 1.62 1.52 1.47 1.54 1.65 1.64 1.55 1.52 1.50 1.55 1.55 1.55 1.59 1.56 1.54 1.51 1.46 1.52 1.50 1.73 2.06 1.60 1.38
0.61 0.64 0.62 0.53 0.40 0.38 0.38 0.33 0.31 0.30 0.30 0.26 0.24 0.25 0.23 0.21 0.21 0.19 0.15 0.17 0.24 0.41 0.56 0.69 0.99 1.42 1.60 1.71 1.83 2.06 2.24 2.13 2.00 1.98 1.93 2.01 2.03 2.19 2.15 2.13 2.12 2.02 2.01 1.99 1.91 1.99 2.26 1.92 1.71
0.59 0.61 0.58 0.51 0.38 0.33 0.30 0.30 0.25 0.25 0.25 0.23 0.23 0.24 0.22 0.19 0.19 0.18 0.16 0.19 0.24 0.34 0.46 0.61 0.80 1.08 1.42 1.69 1.97 2.27 2.49 2.48 2.37 2.20 2.17 2.23 2.30 2.46 2.60 2.59 2.62 2.44 2.31 2.31 2.24 2.18 2.30 2.35 2.12
0.57 0.41 0.38 0.37 0.45 0.44 0.33 0.45 0.29 0.27 0.27 0.27 0.26 0.25 0.23 0.21 0.21 0.23 0.21 0.21 0.25 0.31 0.38 0.50 0.69 0.93 1.17 1.42 1.85 2.31 2.62 2.72 2.63 2.52 2.47 2.43 2.46 2.51 2.73 2.77 2.86 2.70 2.58 2.52 2.44 2.26 2.35 2.63 2.56
0.41 0.33 0.33 0.34 0.41 0.37 0.27 0.35 0.32 0.25 0.28 0.29 0.28 0.26 0.23 0.21 0.24 0.27 0.27 0.28 0.31 0.32 0.36 0.46 0.60 0.83 1.08 1.30 1.67 2.10 2.40 2.63 2.78 2.61 2.48 2.50 2.53 2.56 2.69 2.83 2.94 2.80 2.67 2.59 2.69 2.57 2.52 2.45 2.42
0.32 0.31 0.30 0.31 0.38 0.42 0.21 0.31 0.41 0.28 0.25 0.25 0.23 0.22 0.23 0.24 0.29 0.34 0.42 0.47 0.47 0.40 0.43 0.51 0.59 0.74 0.89 1.03 1.26 1.51 1.87 2.16 2.51 2.50 2.43 2.55 2.54 2.47 2.40 2.56 2.80 2.73 2.72 2.72 2.79 2.84 2.77 2.75 2.75
0.30 0.41 0.52 0.52 0.53 0.38 0.17 0.31 0.44 0.32 0.24 0.24 0.23 0.23 0.24 0.28 0.33 0.40 0.54 0.60 0.62 0.53 0.46 0.48 0.59 0.65 0.72 0.83 0.94 1.11 1.38 1.57 1.95 2.27 2.25 2.17 2.23 2.29 2.35 2.39 2.40 2.40 2.49 2.63 2.85 2.82 2.71 2.70 2.79
0.24 0.38 0.58 0.65 0.58 0.40 0.30 0.47 0.52 0.37 0.28 0.26 0.24 0.26 0.30 0.35 0.41 0.57 0.72 0.74 0.74 0.65 0.55 0.53 0.62 0.67 0.69 0.74 0.77 0.87 1.03 1.15 1.32 1.55 1.67 1.71 1.78 2.01 2.13 2.24 2.22 2.24 2.31 2.39 2.51 2.55 2.57 2.53 2.52
0.20 0.25 0.29 0.43 0.41 0.43 0.46 0.56 0.51 0.32 0.30 0.31 0.33 0.36 0.46 0.54 0.60 0.72 0.87 0.88 0.80 0.73 0.64 0.62 0.66 0.75 0.76 0.75 0.77 0.88 0.93 0.95 1.07 1.11 1.26 1.45 1.50 1.56 1.71 1.83 1.94 2.06 2.12 2.19 2.35 2.42 2.41 2.43 2.42
0.13 0.18 0.30 0.47 0.59 0.58 0.50 0.55 0.54 0.43 0.42 0.40 0.45 0.50 0.61 0.71 0.78 0.86 1.01 1.02 0.87 0.74 0.64 0.62 0.65 0.77 0.94 1.06 1.01 0.96 1.03 1.10 1.32 1.35 1.20 1.19 1.38 1.46 1.51 1.57 1.66 1.82 1.96 2.05 2.13 2.24 2.34 2.34 2.34
0.18 0.27 0.38 0.51 0.53 0.70 0.79 0.74 0.62 0.60 0.60 0.61 0.64 0.70 0.78 0.90 0.90 0.86 0.95 1.02 0.91 0.72 0.63 0.58 0.59 0.70 0.85 0.89 0.94 0.93 0.98 1.08 1.36 1.58 1.52 1.34 1.36 1.40 1.37 1.33 1.42 1.57 1.71 1.82 1.95 2.00 2.01 2.04 2.18
0.27 0.38 0.56 0.82 0.77 0.70 0.85 0.86 0.67 0.60 0.64 0.66 0.65 0.65 0.70 0.81 0.82 0.83 0.86 0.83 0.74 0.59 0.51 0.48 0.49 0.60 0.72 0.71 0.77 0.85 0.86 0.96 1.08 1.20 1.22 1.16 1.09 1.07 1.14 1.19 1.22 1.31 1.48 1.61 1.66 1.67 1.71 1.78 1.90

GEFSSGP_prec_meanprecacc_180.txt.gz
Total_Precipitation_Accumulation
0.74 0.97 1.43 2.01 2.56 1.89 1.20 0.91 0.64 0.53 0.44 0.36 0.31 0.32 0.44 0.59 0.94 1.46 1.48 1.26 0.85 0.66 0.74 1.01 1.21 1.15 1.05 0.99 1.03 1.11 1.24 1.38 1.32 1.24 1.09 0.88 0.78 0.68 0.70 0.67 0.65 0.62 0.52 0.56 0.58 0.57 0.56 0.51 0.45
0.75 1.46 2.00 2.78 2.50 1.46 1.18 0.92 0.79 0.52 0.39 0.30 0.23 0.28 0.37 0.37 0.47 0.94 1.50 1.40 0.80 0.55 0.56 0.71 0.98 1.03 1.00 1.02 1.08 1.12 1.17 1.17 1.09 0.98 0.83 0.74 0.72 0.66 0.60 0.63 0.66 0.63 0.55 0.57 0.60 0.67 0.60 0.51 0.44
0.88 1.71 2.33 2.57 1.70 1.23 1.16 0.87 0.71 0.49 0.38 0.30 0.21 0.22 0.30 0.47 0.63 1.10 1.34 0.85 0.62 0.50 0.59 0.77 0.96 0.97 0.97 0.99 1.05 1.08 1.06 0.96 0.90 0.86 0.78 0.71 0.69 0.67 0.66 0.65 0.67 0.64 0.56 0.52 0.61 0.65 0.58 0.52 0.44
1.27 2.08 2.35 1.90 1.31 0.93 0.79 0.74 0.58 0.50 0.34 0.22 0.19 0.28 0.36 0.55 0.73 1.01 0.91 0.61 0.57 0.57 0.70 0.81 0.98 0.96 0.91 0.98 1.00 0.94 0.82 0.73 0.78 0.82 0.75 0.71 0.66 0.67 0.69 0.67 0.61 0.55 0.51 0.54 0.61 0.62 0.57 0.54 0.45
1.66 2.29 2.20 1.56 1.19 0.92 0.69 0.61 0.51 0.46 0.40 0.30 0.21 0.38 0.62 0.75 0.77 0.75 0.71 0.61 0.61 0.72 0.89 0.83 0.96 0.89 0.83 0.90 0.94 0.88 0.86 0.82 0.84 0.86 0.80 0.77 0.71 0.69 0.70 0.65 0.54 0.48 0.51 0.57 0.72 0.71 0.54 0.50 0.46
2.10 2.27 2.37 1.71 1.28 1.00 0.81 0.59 0.48 0.43 0.38 0.31 0.25 0.43 0.76 0.92 0.95 0.85 0.84 0.80 0.76 0.74 0.82 0.80 0.93 0.86 0.79 0.83 0.86 0.79 0.82 0.92 0.94 0.87 0.85 1.02 0.86 0.72 0.64 0.59 0.54 0.50 0.50 0.57 0.69 0.71 0.55 0.49 0.52
2.23 2.31 1.98 1.45 1.27 1.32 0.96 0.56 0.48 0.49 0.48 0.37 0.28 0.51 0.80 1.00 0.89 0.74 0.76 0.71 0.71 0.70 0.71 0.69 0.75 0.79 0.78 0.85 0.92 0.89 0.92 0.99 1.03 0.88 0.88 0.96 0.74 0.59 0.54 0.54 0.53 0.54 0.59 0.64 0.66 0.70 0.62 0.59 0.60
1.54 1.66 1.56 1.40 1.34 1.31 0.89 0.51 0.40 0.40 0.46 0.33 0.29 0.48 0.79 0.85 0.68 0.65 0.65 0.69 0.73 0.75 0.75 0.68 0.72 0.82 0.91 0.90 0.91 0.99 1.03 1.00 1.04 0.91 0.89 0.85 0.61 0.50 0.52 0.48 0.46 0.48 0.55 0.64 0.68 0.70 0.66 0.63 0.62
1.42 1.59 1.69 1.63 1.33 1.13 0.81 0.58 0.40 0.31 0.35 0.31 0.26 0.30 0.40 0.48 0.53 0.64 0.73 0.75 0.86 0.81 0.77 0.71 0.64 0.65 0.78 0.90 0.84 1.04 1.13 1.07 0.99 0.94 0.94 0.84 0.58 0.50 0.51 0.48 0.55 0.56 0.64 0.71 0.74 0.71 0.64 0.59 0.53
1.42 1.62 1.66 1.26 0.95 0.83 0.73 0.62 0.51 0.48 0.50 0.42 0.36 0.34 0.33 0.43 0.53 0.57 0.61 0.70 0.79 0.75 0.63 0.63 0.59 0.56 0.56 0.62 0.89 1.25 1.09 0.98 0.82 0.84 0.81 0.81 0.75 0.70 0.55 0.56 0.70 0.73 0.75 0.76 0.76 0.73 0.60 0.46 0.39
1.18 1.19 1.10 1.06 0.74 0.57 0.64 0.62 0.49 0.49 0.57 0.42 0.41 0.37 0.35 0.40 0.44 0.46 0.46 0.54 0.59 0.63 0.58 0.56 0.52 0.48 0.49 0.62 0.74 0.96 1.03 1.01 0.88 0.76 0.76 0.84 0.79 0.69 0.59 0.53 0.58 0.67 0.71 0.66 0.66 0.64 0.48 0.43 0.46
1.03 0.92 0.79 0.74 0.56 0.53 0.65 0.55 0.46 0.51 0.47 0.30 0.27 0.31 0.40 0.44 0.41 0.39 0.43 0.53 0.60 0.60 0.61 0.60 0.52 0.49 0.49 0.52 0.52 0.61 0.68 0.73 0.72 0.64 0.65 0.78 0.73 0.68 0.67 0.66 0.63 0.63 0.65 0.71 0.67 0.63 0.55 0.50 0.52
0.92 0.82 0.64 0.51 0.54 0.53 0.55 0.56 0.48 0.46 0.36 0.30 0.29 0.38 0.42 0.42 0.40 0.39 0.41 0.47 0.54 0.58 0.62 0.61 0.56 0.52 0.50 0.50 0.48 0.46 0.56 0.61 0.62 0.66 0.62 0.66 0.69 0.68 0.67 0.64 0.71 0.72 0.70 0.73 0.70 0.61 0.56 0.54 0.51
0.85 0.77 0.69 0.55 0.55 0.56 0.56 0.56 0.52 0.54 0.42 0.33 0.30 0.36 0.38 0.40 0.41 0.43 0.43 0.48 0.51 0.54 0.65 0.65 0.62 0.62 0.59 0.56 0.54 0.52 0.58 0.63 0.61 0.54 0.53 0.58 0.59 0.61 0.71 0.76 0.78 0.79 0.79 0.85 0.83 0.65 0.64 0.65 0.59
0.76 0.78 0.75 0.66 0.65 0.65 0.65 0.73 0.62 0.58 0.46 0.44 0.35 0.31 0.34 0.35 0.36 0.42 0.42 0.45 0.51 0.59 0.70 0.69 0.67 0.80 0.74 0.67 0.67 0.60 0.63 0.64 0.62 0.63 0.61 0.65 0.66 0.68 0.77 0.86 0.89 0.87 0.85 0.87 1.09 0.98 0.74 0.69 0.64
0.86 0.91 1.04 0.72 0.66 0.71 0.80 0.87 0.62 0.62 0.54 0.53 0.42 0.37 0.36 0.37 0.37 0.36 0.35 0.41 0.46 0.60 0.72 0.83 0.74 0.85 0.83 0.78 0.79 0.76 0.75 0.76 0.72 0.71 0.73 0.73 0.77 0.80 0.89 0.95 0.85 0.92 0.99 1.02 1.17 1.24 0.94 0.76 0.75
0.96 0.98 0.96 0.76 0.59 0.65 0.74 0.75 0.61 0.55 0.45 0.41 0.38 0.39 0.41 0.35 0.34 0.31 0.33 0.36 0.41 0.57 0.70 0.85 0.87 0.85 0.90 0.92 0.95 0.93 0.90 0.91 0.88 0.88 0.83 0.85 0.89 0.96 1.03 1.05 0.99 0.99 1.01 1.11 1.11 1.32 1.27 1.07 0.94
0.93 0.80 0.74 0.67 0.61 0.63 0.64 0.53 0.50 0.44 0.38 0.35 0.35 0.36 0.34 0.30 0.30 0.30 0.29 0.30 0.34 0.50 0.65 0.79 0.92 1.03 1.10 1.13 1.18 1.20 1.12 1.06 1.09 1.11 1.08 1.09 1.14 1.11 1.17 1.20 1.22 1.30 1.27 1.26 1.19 1.36 1.47 1.26 1.20
0.69 0.64 0.64 0.56 0.51 0.51 0.47 0.41 0.42 0.39 0.35 0.31 0.31 0.32 0.28 0.24 0.28 0.28 0.23 0.26 0.30 0.40 0.51 0.69 1.04 1.46 1.63 1.53 1.48 1.55 1.66 1.64 1.55 1.52 1.50 1.55 1.55 1.55 1.59 1.56 1.54 1.51 1.46 1.52 1.50 1.73 2.06 1.61 1.39
0.64 0.67 0.66 0.58 0.43 0.40 0.39 0.34 0.33 0.32 0.32 0.28 0.27 0.29 0.26 0.24 0.23 0.20 0.16 0.19 0.25 0.42 0.56 0.70 0.99 1.43 1.61 1.72 1.84 2.06 2.24 2.13 2.00 1.98 1.93 2.01 2.03 2.19 2.15 2.13 2.12 2.02 2.01 1.99 1.91 1.99 2.26 1.93 1.72
0.62 0.63 0.61 0.55 0.40 0.34 0.32 0.32 0.27 0.27 0.27 0.26 0.25 0.26 0.24 0.20 0.19 0.20 0.17 0.19 0.24 0.35 0.47 0.61 0.81 1.09 1.43 1.70 1.98 2.27 2.50 2.48 2.37 2.20 2.17 2.23 2.30 2.46 2.60 2.59 2.62 2.44 2.31 2.31 2.24 2.18 2.30 2.36 2.13
0.62 0.43 0.39 0.38 0.47 0.46 0.34 0.47 0.31 0.29 0.29 0.29 0.28 0.26 0.25 0.23 0.22 0.25 0.22 0.22 0.25 0.31 0.39 0.53 0.71 0.94 1.19 1.44 1.87 2.32 2.62 2.72 2.63 2.52 2.47 2.43 2.46 2.51 2.73 2.77 2.87 2.70 2.58 2.52 2.44 2.26 2.35 2.63 2.56
0.46 0.35 0.34 0.36 0.42 0.39 0.28 0.36 0.33 0.27 0.30 0.30 0.29 0.27 0.25 0.23 0.25 0.28 0.28 0.30 0.32 0.32 0.37 0.48 0.62 0.85 1.10 1.32 1.69 2.11 2.40 2.63 2.78 2.61 2.48 2.50 2.53 2.56 2.69 2.83 2.94 2.80 2.67 2.59 2.69 2.57 2.52 2.45 2.42
0.35 0.34 0.32 0.33 0.40 0.44 0.22 0.32 0.42 0.28 0.26 0.27 0.25 0.24 0.25 0.26 0.31 0.36 0.45 0.48 0.47 0.41 0.44 0.53 0.60 0.75 0.91 1.06 1.28 1.52 1.88 2.16 2.51 2.50 2.43 2.55 2.54 2.47 2.40 2.56 2.80 2.73 2.72 2.72 2.79 2.84 2.77 2.75 2.75
0.32 0.43 0.55 0.55 0.55 0.40 0.19 0.32 0.46 0.33 0.25 0.25 0.26 0.25 0.26 0.29 0.34 0.42 0.57 0.62 0.63 0.54 0.47 0.50 0.60 0.67 0.74 0.84 0.96 1.12 1.39 1.57 1.95 2.27 2.25 2.17 2.23 2.29 2.35 2.39 2.40 2.40 2.49 2.63 2.85 2.82 2.72 2.70 2.79
0.26 0.40 0.60 0.68 0.61 0.43 0.32 0.49 0.54 0.38 0.30 0.27 0.25 0.29 0.33 0.36 0.42 0.58 0.75 0.76 0.76 0.66 0.56 0.55 0.64 0.69 0.70 0.75 0.78 0.88 1.04 1.15 1.33 1.55 1.67 1.71 1.78 2.01 2.13 2.24 2.22 2.24 2.31 2.39 2.51 2.55 2.57 2.54 2.52
0.22 0.27 0.31 0.46 0.44 0.46 0.48 0.59 0.53 0.33 0.31 0.32 0.34 0.38 0.48 0.56 0.61 0.74 0.88 0.90 0.81 0.74 0.65 0.62 0.67 0.77 0.77 0.76 0.78 0.88 0.93 0.96 1.07 1.11 1.26 1.46 1.50 1.57 1.71 1.83 1.94 2.06 2.12 2.19 2.35 2.42 2.41 2.43 2.42
0.15 0.20 0.32 0.50 0.62 0.63 0.54 0.58 0.56 0.44 0.43 0.41 0.46 0.52 0.63 0.73 0.80 0.89 1.03 1.04 0.88 0.75 0.65 0.62 0.66 0.78 0.95 1.06 1.02 0.96 1.03 1.11 1.32 1.35 1.20 1.19 1.38 1.46 1.51 1.57 1.66 1.82 1.96 2.05 2.13 2.24 2.34 2.35 2.34
0.20 0.28 0.40 0.53 0.55 0.75 0.84 0.78 0.63 0.61 0.61 0.63 0.66 0.71 0.79 0.91 0.92 0.89 0.98 1.05 0.93 0.73 0.65 0.59 0.60 0.71 0.85 0.89 0.95 0.94 0.99 1.09 1.37 1.58 1.52 1.35 1.36 1.40 1.37 1.33 1.42 1.57 1.71 1.82 1.95 2.01 2.01 2.05 2.18
0.28 0.39 0.57 0.83 0.78 0.73 0.89 0.88 0.68 0.61 0.65 0.67 0.67 0.66 0.71 0.82 0.84 0.86 0.89 0.86 0.76 0.60 0.52 0.48 0.49 0.61 0.73 0.72 0.77 0.85 0.87 0.96 1.08 1.20 1.22 1.16 1.10 1.07 1.14 1.20 1.22 1.31 1.48 1.61 1.66 1.67 1.71 1.78 1.90

GEFSSGP_prec_meanprecacc_186.txt.gz
Total_Precipitation_Accumulation
0.76 1.00 1.48 2.07 2.60 1.90 1.21 0.92 0.66 0.58 0.52 0.44 0.41 0.41 0.49 0.62 0.98 1.56 1.61 1.37 0.93 0.73 0.86 1.16 1.36 1.30 1.17 1.07 1.11 1.19 1.30 1.42 1.37 1.26 1.10 0.90 0.80 0.71 0.74 0.72 0.69 0.65 0.55 0.58 0.61 0.60 0.57 0.52 0.46
0.78 1.48 2.03 2.80 2.51 1.46 1.19 0.94 0.82 0.58 0.46 0.35 0.28 0.36 0.44 0.42 0.55 1.11 1.67 1.57 0.92 0.65 0.68 0.86 1.12 1.14 1.08 1.08 1.14 1.19 1.21 1.21 1.13 1.00 0.85 0.76 0.74 0.69 0.64 0.67 0.68 0.64 0.57 0.59 0.62 0.69 0.61 0.52 0.45
0.91 1.77 2.35 2.57 1.71 1.23 1.17 0.89 0.74 0.54 0.44 0.36 0.25 0.26 0.36 0.55 0.75 1.27 1.51 1.04 0.79 0.62 0.71 0.91 1.09 1.07 1.05 1.04 1.10 1.13 1.11 1.01 0.94 0.89 0.80 0.73 0.71 0.69 0.69 0.67 0.68 0.64 0.56 0.53 0.62 0.67 0.59 0.53 0.45
1.30 2.11 2.36 1.90 1.31 0.94 0.82 0.77 0.62 0.54 0.36 0.26 0.23 0.31 0.44 0.70 0.86 1.13 1.10 0.81 0.74 0.68 0.82 0.94 1.12 1.07 0.97 1.02 1.05 1.01 0.88 0.78 0.83 0.87 0.79 0.73 0.68 0.69 0.72 0.68 0.62 0.56 0.52 0.55 0.61 0.63 0.58 0.55 0.46
1.68 2.30 2.20 1.57 1.21 0.95 0.76 0.65 0.55 0.49 0.43 0.32 0.24 0.44 0.72 0.88 0.87 0.85 0.84 0.76 0.77 0.86 1.03 0.98 1.10 1.01 0.90 0.94 1.01 0.95 0.91 0.86 0.88 0.91 0.84 0.80 0.73 0.70 0.72 0.65 0.54 0.49 0.51 0.57 0.72 0.72 0.55 0.50 0.47
2.12 2.27 2.37 1.72 1.30 1.04 0.89 0.65 0.52 0.46 0.40 0.33 0.28 0.50 0.86 1.06 1.06 0.93 0.93 0.93 0.91 0.91 0.99 0.99 1.09 0.99 0.86 0.86 0.89 0.83 0.85 0.95 0.97 0.90 0.88 1.04 0.87 0.72 0.64 0.60 0.54 0.50 0.50 0.57 0.69 0.71 0.55 0.49 0.53
2.23 2.31 1.98 1.46 1.31 1.36 0.99 0.59 0.52 0.51 0.49 0.39 0.30 0.56 0.93 1.18 1.00 0.81 0.85 0.82 0.81 0.81 0.83 0.80 0.85 0.86 0.82 0.87 0.93 0.91 0.93 1.01 1.04 0.89 0.89 0.97 0.74 0.59 0.54 0.54 0.53 0.54 0.59 0.64 0.67 0.70 0.63 0.59 0.60
1.55 1.67 1.57 1.41 1.38 1.36 0.93 0.54 0.43 0.42 0.48 0.34 0.30 0.52 0.87 0.97 0.81 0.78 0.79 0.79 0.81 0.82 0.81 0.73 0.77 0.86 0.93 0.91 0.92 1.01 1.05 1.01 1.04 0.92 0.89 0.85 0.61 0.50 0.52 0.48 0.46 0.49 0.55 0.64 0.68 0.71 0.66 0.64 0.63
1.43 1.59 1.70 1.65 1.36 1.17 0.86 0.61 0.42 0.33 0.36 0.32 0.27 0.32 0.42 0.53 0.61 0.73 0.81 0.83 0.94 0.87 0.81 0.76 0.69 0.68 0.81 0.92 0.86 1.06 1.15 1.08 0.99 0.94 0.94 0.84 0.58 0.50 0.51 0.48 0.55 0.56 0.64 0.71 0.74 0.71 0.64 0.59 0.54
1.43 1.63 1.67 1.28 0.97 0.87 0.77 0.66 0.53 0.50 0.51 0.43 0.38 0.35 0.34 0.45 0.57 0.63 0.67 0.76 0.87 0.85 0.70 0.69 0.64 0.60 0.59 0.65 0.92 1.27 1.10 0.99 0.82 0.84 0.81 0.81 0.75 0.70 0.55 0.56 0.70 0.73 0.75 0.76 0.76 0.73 0.60 0.46 0.39
1.18 1.21 1.12 1.08 0.77 0.60 0.68 0.65 0.51 0.51 0.58 0.43 0.42 0.38 0.36 0.41 0.45 0.49 0.53 0.59 0.65 0.72 0.67 0.62 0.57 0.52 0.53 0.64 0.75 0.96 1.04 1.01 0.88 0.76 0.76 0.84 0.79 0.69 0.59 0.53 0.58 0.67 0.72 0.66 0.66 0.64 0.48 0.43 0.46
1.04 0.94 0.81 0.77 0.60 0.58 0.70 0.59 0.48 0.53 0.49 0.31 0.29 0.32 0.40 0.44 0.43 0.40 0.47 0.59 0.66 0.69 0.69 0.66 0.57 0.53 0.52 0.54 0.53 0.61 0.69 0.73 0.72 0.64 0.65 0.78 0.73 0.68 0.67 0.66 0.63 0.63 0.65 0.71 0.67 0.63 0.55 0.50 0.52
0.95 0.86 0.68 0.54 0.58 0.58 0.59 0.61 0.51 0.49 0.38 0.32 0.31 0.40 0.44 0.44 0.42 0.41 0.46 0.55 0.59 0.64 0.68 0.66 0.61 0.55 0.52 0.51 0.49 0.46 0.56 0.61 0.62 0.66 0.62 0.66 0.69 0.68 0.67 0.64 0.71 0.72 0.70 0.73 0.70 0.61 0.56 0.54 0.51
0.90 0.82 0.74 0.61 0.59 0.60 0.59 0.60 0.56 0.58 0.44 0.36 0.33 0.37 0.39 0.41 0.42 0.44 0.47 0.53 0.55 0.58 0.69 0.69 0.65 0.65 0.61 0.57 0.54 0.53 0.58 0.63 0.61 0.54 0.53 0.58 0.59 0.61 0.71 0.76 0.78 0.79 0.79 0.85 0.83 0.65 0.64 0.65 0.59
0.79 0.84 0.81 0.72 0.69 0.68 0.68 0.76 0.66 0.61 0.49 0.48 0.39 0.33 0.36 0.37 0.38 0.44 0.45 0.50 0.54 0.62 0.74 0.72 0.70 0.82 0.75 0.68 0.68 0.61 0.64 0.64 0.62 0.63 0.61 0.65 0.66 0.68 0.77 0.86 0.89 0.87 0.85 0.87 1.09 0.98 0.74 0.69 0.64
0.89 0.97 1.10 0.76 0.69 0.74 0.83 0.89 0.64 0.64 0.58 0.58 0.46 0.40 0.38 0.39 0.39 0.38 0.37 0.44 0.49 0.64 0.75 0.84 0.75 0.86 0.84 0.79 0.81 0.76 0.75 0.76 0.72 0.71 0.73 0.73 0.77 0.80 0.89 0.95 0.85 0.92 0.99 1.02 1.17 1.24 0.94 0.76 0.75
0.99 1.02 1.02 0.80 0.61 0.68 0.76 0.77 0.63 0.57 0.48 0.45 0.42 0.42 0.45 0.37 0.35 0.32 0.34 0.38 0.44 0.60 0.72 0.87 0.88 0.87 0.92 0.94 0.97 0.94 0.90 0.91 0.88 0.88 0.83 0.85 0.89 0.96 1.03 1.05 0.99 0.99 1.01 1.11 1.11 1.32 1.27 1.07 0.94
0.95 0.82 0.78 0.71 0.63 0.64 0.65 0.55 0.51 0.46 0.41 0.38 0.38 0.38 0.37 0.32 0.32 0.31 0.29 0.31 0.36 0.52 0.65 0.80 0.93 1.05 1.12 1.15 1.19 1.20 1.12 1.06 1.09 1.11 1.08 1.09 1.14 1.11 1.17 1.20 1.22 1.30 1.27 1.26 1.19 1.36 1.47 1.26 1.21
0.70 0.65 0.66 0.58 0.53 0.53 0.48 0.42 0.43 0.39 0.37 0.33 0.33 0.34 0.29 0.27 0.30 0.29 0.24 0.27 0.31 0.41 0.52 0.70 1.05 1.47 1.65 1.54 1.49 1.55 1.66 1.64 1.55 1.52 1.50 1.55 1.55 1.55 1.59 1.56 1.54 1.51 1.46 1.52 1.50 1.74 2.06 1.61 1.39
0.65 0.68 0.67 0.60 0.44 0.41 0.40 0.35 0.33 0.32 0.33 0.30 0.28 0.31 0.27 0.25 0.24 0.22 0.18 0.20 0.26 0.42 0.57 0.70 1.00 1.43 1.62 1.73 1.85 2.06 2.24 2.13 2.00 1.98 1.93 2.01 2.03 2.19 2.15 2.13 2.12 2.02 2.01 1.99 1.91 1.99 2.26 1.93 1.72
0.64 0.64 0.62 0.56 0.41 0.35 0.33 0.33 0.27 0.27 0.28 0.27 0.26 0.28 0.25 0.21 0.20 0.21 0.18 0.20 0.25 0.36 0.47 0.62 0.81 1.09 1.44 1.71 1.99 2.27 2.50 2.48 2.37 2.20 2.17 2.23 2.30 2.46 2.60 2.59 2.62 2.44 2.31 2.31 2.24 2.18 2.30 2.36 2.13
0.65 0.44 0.40 0.39 0.47 0.47 0.35 0.48 0.32 0.29 0.30 0.30 0.28 0.27 0.26 0.23 0.23 0.26 0.23 0.23 0.26 0.31 0.39 0.53 0.72 0.95 1.20 1.45 1.87 2.32 2.62 2.72 2.63 2.52 2.47 2.43 2.46 2.51 2.73 2.77 2.87 2.70 2.58 2.53 2.44 2.26 2.35 2.63 2.56
0.48 0.37 0.36 0.37 0.43 0.39 0.28 0.37 0.33 0.27 0.30 0.31 0.29 0.27 0.25 0.24 0.25 0.29 0.29 0.31 0.33 0.33 0.37 0.48 0.63 0.86 1.11 1.33 1.70 2.11 2.40 2.63 2.78 2.61 2.48 2.50 2.53 2.56 2.69 2.83 2.94 2.80 2.67 2.59 2.69 2.58 2.52 2.45 2.42
0.38 0.37 0.35 0.34 0.40 0.44 0.22 0.32 0.42 0.28 0.26 0.27 0.25 0.24 0.25 0.26 0.31 0.37 0.46 0.49 0.48 0.42 0.44 0.53 0.61 0.76 0.92 1.07 1.29 1.53 1.88 2.16 2.51 2.50 2.43 2.55 2.54 2.47 2.40 2.56 2.80 2.73 2.72 2.72 2.79 2.84 2.77 2.75 2.75
0.34 0.48 0.58 0.57 0.56 0.40 0.19 0.32 0.46 0.33 0.25 0.25 0.26 0.25 0.26 0.30 0.34 0.42 0.57 0.62 0.63 0.54 0.48 0.50 0.62 0.68 0.75 0.86 0.97 1.13 1.39 1.57 1.95 2.27 2.25 2.17 2.23 2.29 2.35 2.39 2.40 2.40 2.49 2.63 2.85 2.82 2.72 2.70 2.79
0.28 0.43 0.64 0.70 0.62 0.43 0.32 0.49 0.54 0.38 0.31 0.27 0.26 0.29 0.33 0.36 0.42 0.59 0.75 0.77 0.76 0.67 0.56 0.55 0.65 0.70 0.71 0.76 0.80 0.90 1.04 1.15 1.33 1.55 1.67 1.71 1.78 2.01 2.13 2.24 2.22 2.24 2.31 2.39 2.51 2.55 2.57 2.54 2.52
0.23 0.29 0.34 0.48 0.45 0.46 0.49 0.59 0.53 0.33 0.31 0.33 0.34 0.38 0.49 0.56 0.61 0.74 0.88 0.90 0.82 0.74 0.65 0.63 0.68 0.78 0.78 0.78 0.79 0.89 0.94 0.96 1.07 1.11 1.26 1.46 1.50 1.57 1.71 1.83 1.94 2.06 2.12 2.19 2.35 2.42 2.41 2.43 2.42
0.16 0.21 0.35 0.52 0.63 0.64 0.54 0.58 0.56 0.44 0.43 0.42 0.47 0.52 0.64 0.74 0.80 0.89 1.03 1.04 0.89 0.76 0.66 0.63 0.66 0.78 0.96 1.08 1.03 0.97 1.04 1.11 1.33 1.35 1.20 1.20 1.38 1.46 1.51 1.57 1.66 1.82 1.96 2.05 2.13 2.24 2.34 2.35 2.34
0.20 0.30 0.42 0.56 0.56 0.75 0.84 0.79 0.64 0.62 0.63 0.64 0.66 0.72 0.79 0.91 0.92 0.90 0.98 1.05 0.93 0.74 0.66 0.60 0.61 0.72 0.86 0.90 0.96 0.95 0.99 1.09 1.37 1.59 1.53 1.35 1.36 1.40 1.37 1.33 1.42 1.58 1.71 1.82 1.95 2.01 2.01 2.05 2.18
0.29 0.40 0.59 0.86 0.79 0.74 0.89 0.89 0.69 0.62 0.65 0.67 0.67 0.66 0.71 0.83 0.84 0.86 0.89 0.86 0.76 0.61 0.53 0.50 0.50 0.62 0.74 0.73 0.78 0.86 0.87 0.97 1.09 1.21 1.23 1.17 1.10 1.08 1.14 1.20 1.22 1.31 1.48 1.61 1.66 1.67 1.71 1.78 1.90

GEFSSGP_prec_meanprecacc_192.txt.gz
Total_Precipitation_Accumulation
0.80 1.02 1.50 2.12 2.63 1.92 1.23 0.94 0.68 0.61 0.56 0.48 0.44 0.44 0.52 0.65 1.03 1.61 1.69 1.43 0.97 0.80 0.98 1.31 1.50 1.45 1.30 1.16 1.20 1.30 1.38 1.54 1.47 1.32 1.15 0.95 0.85 0.74 0.78 0.77 0.74 0.69 0.59 0.63 0.65 0.64 0.61 0.56 0.49
0.80 1.57 2.08 2.83 2.53 1.47 1.21 0.96 0.84 0.62 0.51 0.38 0.32 0.41 0.51 0.45 0.58 1.14 1.73 1.64 0.97 0.69 0.77 1.00 1.23 1.25 1.21 1.18 1.24 1.32 1.30 1.28 1.19 1.05 0.89 0.80 0.79 0.73 0.68 0.72 0.72 0.67 0.59 0.61 0.64 0.71 0.64 0.55 0.47
0.95 1.79 2.36 2.58 1.72 1.24 1.18 0.91 0.77 0.57 0.46 0.39 0.30 0.31 0.45 0.62 0.81 1.35 1.62 1.10 0.84 0.66 0.79 1.01 1.20 1.17 1.16 1.12 1.20 1.24 1.20 1.07 0.99 0.94 0.84 0.77 0.75 0.73 0.72 0.71 0.71 0.66 0.57 0.54 0.64 0.69 0.61 0.54 0.47
1.31 2.12 2.37 1.92 1.32 0.95 0.83 0.79 0.65 0.56 0.38 0.28 0.27 0.35 0.51 0.81 0.96 1.27 1.26 0.88 0.79 0.74 0.90 1.04 1.22 1.17 1.08 1.11 1.13 1.07 0.93 0.83 0.90 0.94 0.84 0.78 0.73 0.73 0.74 0.70 0.64 0.57 0.54 0.56 0.63 0.65 0.59 0.57 0.47
1.69 2.30 2.21 1.58 1.23 0.97 0.78 0.67 0.57 0.52 0.45 0.34 0.27 0.48 0.81 0.98 0.96 0.99 1.00 0.85 0.84 0.96 1.15 1.08 1.19 1.12 1.00 1.01 1.06 0.98 0.93 0.92 1.01 0.99 0.90 0.85 0.77 0.73 0.73 0.67 0.55 0.49 0.52 0.59 0.73 0.73 0.56 0.51 0.48
2.12 2.28 2.38 1.73 1.32 1.06 0.93 0.68 0.54 0.48 0.42 0.35 0.33 0.54 0.93 1.14 1.13 1.05 1.07 1.06 1.03 1.07 1.14 1.10 1.20 1.11 0.96 0.92 0.94 0.86 0.87 1.01 1.11 0.99 0.96 1.11 0.92 0.75 0.65 0.60 0.54 0.50 0.51 0.58 0.70 0.71 0.56 0.49 0.53
2.24 2.32 2.00 1.47 1.32 1.38 1.04 0.63 0.54 0.53 0.51 0.41 0.34 0.61 0.98 1.24 1.07 0.92 0.99 0.96 0.97 0.98 0.97 0.90 0.94 0.97 0.90 0.91 0.97 0.94 0.96 1.04 1.09 0.96 0.95 1.02 0.78 0.61 0.54 0.54 0.53 0.54 0.59 0.64 0.67 0.70 0.63 0.60 0.61
1.55 1.67 1.58 1.42 1.40 1.39 0.95 0.55 0.44 0.44 0.50 0.36 0.33 0.57 0.94 1.03 0.87 0.88 0.91 0.92 0.95 0.95 0.89 0.78 0.81 0.93 0.99 0.95 0.95 1.03 1.07 1.03 1.06 0.94 0.91 0.86 0.62 0.50 0.52 0.48 0.47 0.49 0.55 0.64 0.68 0.71 0.67 0.64 0.63
1.43 1.60 1.72 1.67 1.38 1.19 0.87 0.63 0.44 0.34 0.38 0.33 0.29 0.34 0.44 0.56 0.67 0.82 0.89 0.90 1.01 0.93 0.86 0.80 0.73 0.73 0.86 0.96 0.89 1.09 1.16 1.09 1.00 0.95 0.94 0.84 0.58 0.50 0.51 0.48 0.55 0.57 0.65 0.72 0.74 0.72 0.64 0.59 0.54
1.43 1.65 1.70 1.30 0.99 0.88 0.79 0.67 0.54 0.51 0.53 0.45 0.39 0.36 0.35 0.47 0.62 0.67 0.72 0.80 0.91 0.88 0.74 0.72 0.68 0.64 0.63 0.68 0.95 1.29 1.10 0.99 0.82 0.84 0.81 0.81 0.75 0.70 0.55 0.56 0.70 0.73 0.75 0.76 0.76 0.74 0.61 0.46 0.39
1.19 1.22 1.13 1.09 0.78 0.62 0.70 0.66 0.52 0.52 0.59 0.44 0.43 0.39 0.37 0.42 0.48 0.52 0.57 0.62 0.68 0.76 0.71 0.66 0.61 0.56 0.55 0.67 0.78 0.98 1.04 1.01 0.88 0.76 0.76 0.84 0.79 0.69 0.59 0.53 0.58 0.67 0.72 0.66 0.66 0.64 0.48 0.43 0.46
1.05 0.95 0.82 0.79 0.61 0.60 0.72 0.60 0.50 0.54 0.50 0.32 0.29 0.34 0.42 0.46 0.44 0.42 0.49 0.61 0.69 0.73 0.73 0.70 0.62 0.59 0.57 0.57 0.54 0.62 0.69 0.73 0.72 0.64 0.65 0.78 0.73 0.68 0.67 0.66 0.63 0.63 0.65 0.71 0.67 0.63 0.55 0.50 0.52
0.95 0.88 0.69 0.55 0.60 0.61 0.62 0.63 0.52 0.50 0.39 0.32 0.32 0.40 0.45 0.45 0.43 0.43 0.49 0.58 0.63 0.69 0.74 0.72 0.65 0.62 0.57 0.53 0.49 0.46 0.56 0.61 0.62 0.66 0.62 0.66 0.69 0.68 0.67 0.64 0.71 0.72 0.70 0.73 0.70 0.61 0.56 0.54 0.51
0.90 0.83 0.76 0.62 0.61 0.63 0.63 0.63 0.58 0.61 0.46 0.37 0.33 0.38 0.40 0.42 0.43 0.45 0.49 0.57 0.59 0.62 0.75 0.77 0.70 0.69 0.64 0.58 0.54 0.53 0.58 0.63 0.61 0.54 0.53 0.58 0.59 0.61 0.71 0.76 0.78 0.79 0.79 0.85 0.83 0.65 0.64 0.65 0.59
0.80 0.86 0.83 0.74 0.71 0.70 0.70 0.79 0.69 0.64 0.51 0.50 0.40 0.34 0.37 0.38 0.40 0.46 0.47 0.52 0.57 0.66 0.78 0.78 0.75 0.84 0.77 0.68 0.68 0.61 0.64 0.64 0.62 0.63 0.61 0.65 0.66 0.68 0.77 0.86 0.89 0.87 0.85 0.87 1.09 0.98 0.74 0.69 0.64
0.90 0.98 1.11 0.78 0.70 0.75 0.84 0.92 0.68 0.67 0.61 0.63 0.49 0.42 0.39 0.40 0.40 0.39 0.40 0.49 0.54 0.68 0.78 0.89 0.80 0.88 0.85 0.80 0.81 0.76 0.75 0.77 0.72 0.71 0.73 0.73 0.77 0.80 0.89 0.95 0.85 0.92 0.99 1.02 1.17 1.24 0.94 0.76 0.75
1.01 1.05 1.03 0.82 0.64 0.69 0.77 0.79 0.65 0.60 0.53 0.51 0.48 0.46 0.48 0.38 0.36 0.34 0.35 0.40 0.47 0.62 0.74 0.89 0.91 0.89 0.93 0.95 0.98 0.95 0.91 0.91 0.88 0.88 0.83 0.85 0.89 0.96 1.03 1.05 0.99 0.99 1.01 1.11 1.11 1.32 1.28 1.07 0.95
0.96 0.83 0.79 0.72 0.65 0.66 0.66 0.56 0.52 0.47 0.46 0.43 0.44 0.42 0.39 0.34 0.35 0.33 0.31 0.34 0.39 0.53 0.66 0.81 0.95 1.06 1.13 1.16 1.21 1.22 1.13 1.06 1.09 1.11 1.08 1.09 1.14 1.11 1.17 1.20 1.22 1.30 1.27 1.26 1.19 1.36 1.47 1.27 1.22
0.70 0.66 0.66 0.58 0.54 0.55 0.49 0.42 0.44 0.40 0.40 0.36 0.36 0.37 0.32 0.28 0.31 0.30 0.26 0.30 0.33 0.42 0.53 0.71 1.07 1.48 1.66 1.55 1.51 1.57 1.66 1.65 1.55 1.52 1.50 1.55 1.55 1.55 1.59 1.56 1.55 1.51 1.46 1.52 1.51 1.74 2.07 1.61 1.39
0.66 0.68 0.68 0.60 0.45 0.42 0.41 0.36 0.34 0.33 0.35 0.31 0.29 0.32 0.30 0.27 0.24 0.22 0.19 0.22 0.27 0.43 0.58 0.71 1.00 1.44 1.63 1.74 1.85 2.07 2.24 2.13 2.00 1.98 1.93 2.01 2.03 2.19 2.15 2.13 2.12 2.02 2.01 1.99 1.91 2.00 2.27 1.93 1.72
0.64 0.65 0.63 0.57 0.42 0.36 0.34 0.34 0.28 0.28 0.28 0.27 0.26 0.28 0.26 0.22 0.21 0.21 0.19 0.21 0.25 0.36 0.48 0.63 0.82 1.10 1.44 1.72 1.99 2.28 2.50 2.48 2.37 2.20 2.17 2.23 2.30 2.46 2.60 2.59 2.62 2.45 2.31 2.31 2.24 2.19 2.31 2.37 2.13
0.65 0.45 0.41 0.40 0.48 0.47 0.35 0.49 0.33 0.29 0.30 0.30 0.29 0.27 0.26 0.23 0.23 0.26 0.23 0.23 0.26 0.32 0.40 0.54 0.73 0.96 1.20 1.45 1.88 2.33 2.62 2.72 2.63 2.52 2.47 2.43 2.46 2.51 2.73 2.77 2.87 2.70 2.59 2.53 2.45 2.27 2.36 2.64 2.57
0.49 0.38 0.37 0.38 0.44 0.40 0.29 0.37 0.33 0.27 0.30 0.31 0.29 0.27 0.25 0.24 0.26 0.29 0.29 0.31 0.33 0.34 0.38 0.49 0.64 0.87 1.11 1.34 1.70 2.11 2.41 2.63 2.78 2.61 2.48 2.50 2.53 2.56 2.69 2.83 2.94 2.80 2.67 2.59 2.69 2.58 2.52 2.45 2.42
0.38 0.38 0.36 0.35 0.41 0.45 0.23 0.33 0.42 0.29 0.26 0.27 0.25 0.24 0.25 0.26 0.31 0.37 0.46 0.50 0.49 0.42 0.45 0.54 0.62 0.77 0.93 1.08 1.30 1.54 1.88 2.16 2.51 2.50 2.43 2.55 2.54 2.47 2.40 2.56 2.80 2.73 2.72 2.72 2.79 2.84 2.77 2.75 2.75
0.35 0.49 0.60 0.60 0.58 0.41 0.19 0.32 0.46 0.33 0.25 0.25 0.26 0.25 0.26 0.30 0.34 0.42 0.57 0.62 0.63 0.54 0.48 0.51 0.63 0.69 0.76 0.87 0.98 1.13 1.39 1.57 1.95 2.27 2.25 2.17 2.23 2.29 2.35 2.39 2.40 2.40 2.49 2.63 2.85 2.82 2.72 2.70 2.80
0.28 0.44 0.65 0.72 0.63 0.44 0.33 0.49 0.54 0.38 0.31 0.27 0.26 0.29 0.33 0.36 0.42 0.59 0.75 0.77 0.76 0.67 0.56 0.55 0.66 0.71 0.73 0.78 0.81 0.90 1.05 1.16 1.33 1.55 1.68 1.71 1.78 2.01 2.13 2.24 2.22 2.24 2.31 2.39 2.51 2.55 2.57 2.54 2.53
0.24 0.30 0.34 0.49 0.46 0.47 0.49 0.59 0.53 0.33 0.32 0.33 0.34 0.38 0.49 0.56 0.62 0.74 0.88 0.91 0.82 0.75 0.65 0.63 0.68 0.79 0.79 0.80 0.81 0.90 0.95 0.96 1.07 1.11 1.27 1.46 1.50 1.57 1.71 1.83 1.94 2.06 2.12 2.19 2.35 2.42 2.41 2.43 2.42
0.16 0.22 0.35 0.54 0.65 0.65 0.54 0.58 0.56 0.44 0.44 0.42 0.47 0.52 0.64 0.74 0.81 0.89 1.03 1.04 0.90 0.77 0.67 0.64 0.67 0.79 0.97 1.09 1.04 0.98 1.05 1.11 1.33 1.35 1.20 1.20 1.38 1.46 1.51 1.57 1.66 1.82 1.96 2.05 2.13 2.24 2.34 2.35 2.35
0.21 0.31 0.44 0.58 0.58 0.77 0.86 0.79 0.65 0.62 0.63 0.65 0.66 0.72 0.79 0.91 0.92 0.90 0.98 1.05 0.94 0.74 0.66 0.60 0.62 0.73 0.87 0.91 0.97 0.96 1.00 1.10 1.37 1.59 1.53 1.36 1.37 1.40 1.38 1.33 1.42 1.58 1.71 1.82 1.95 2.01 2.01 2.05 2.18
0.29 0.41 0.60 0.88 0.81 0.75 0.91 0.90 0.70 0.63 0.66 0.68 0.67 0.66 0.71 0.83 0.84 0.86 0.89 0.86 0.77 0.61 0.54 0.50 0.50 0.63 0.74 0.74 0.79 0.87 0.89 0.97 1.09 1.21 1.23 1.18 1.11 1.09 1.15 1.20 1.22 1.31 1.49 1.61 1.66 1.67 1.71 1.78 1.90

GEFSSGP_prec_meanprecacc_198.txt.gz
Total_Precipitation_Accumulation
0.81 1.02 1.52 2.17 2.72 2.03 1.35 1.03 0.75 0.66 0.58 0.49 0.45 0.48 0.57 0.72 1.13 1.72 1.79 1.54 1.08 0.90 1.06 1.39 1.60 1.55 1.39 1.24 1.27 1.38 1.47 1.62 1.57 1.38 1.20 1.00 0.89 0.76 0.80 0.80 0.77 0.72 0.61 0.66 0.71 0.68 0.64 0.59 0.51
0.81 1.57 2.10 2.88 2.64 1.59 1.31 1.03 0.89 0.65 0.52 0.39 0.33 0.44 0.55 0.50 0.63 1.21 1.81 1.71 1.03 0.77 0.86 1.08 1.32 1.35 1.30 1.27 1.33 1.41 1.39 1.34 1.24 1.09 0.93 0.84 0.84 0.76 0.69 0.73 0.75 0.69 0.60 0.63 0.67 0.75 0.68 0.59 0.49
0.95 1.80 2.39 2.64 1.82 1.34 1.28 0.98 0.81 0.58 0.47 0.40 0.32 0.33 0.49 0.68 0.86 1.43 1.70 1.16 0.88 0.72 0.87 1.08 1.26 1.23 1.23 1.20 1.30 1.34 1.28 1.14 1.04 0.99 0.89 0.81 0.79 0.76 0.74 0.73 0.74 0.68 0.59 0.56 0.65 0.71 0.62 0.56 0.48
1.32 2.13 2.39 1.97 1.39 1.00 0.88 0.85 0.68 0.58 0.39 0.29 0.30 0.39 0.54 0.85 1.02 1.34 1.33 0.92 0.82 0.80 0.98 1.09 1.27 1.24 1.16 1.19 1.22 1.13 0.96 0.89 0.99 1.00 0.90 0.84 0.78 0.75 0.75 0.72 0.65 0.58 0.56 0.57 0.64 0.66 0.60 0.57 0.48
1.69 2.32 2.25 1.64 1.27 1.00 0.81 0.71 0.60 0.54 0.47 0.36 0.31 0.54 0.88 1.06 1.04 1.06 1.06 0.91 0.89 1.04 1.23 1.13 1.22 1.19 1.09 1.11 1.13 1.01 0.98 1.01 1.13 1.10 1.00 0.94 0.83 0.76 0.74 0.68 0.56 0.50 0.53 0.59 0.74 0.73 0.56 0.52 0.48
2.14 2.30 2.43 1.78 1.36 1.11 0.95 0.70 0.55 0.49 0.44 0.37 0.36 0.60 1.02 1.23 1.20 1.11 1.13 1.13 1.07 1.12 1.20 1.14 1.23 1.19 1.05 0.99 0.98 0.88 0.90 1.11 1.25 1.14 1.13 1.22 0.98 0.78 0.66 0.60 0.55 0.51 0.51 0.58 0.70 0.72 0.56 0.50 0.53
2.26 2.34 2.05 1.51 1.36 1.45 1.07 0.64 0.56 0.55 0.54 0.42 0.36 0.64 1.06 1.34 1.15 0.99 1.06 1.03 1.02 1.02 1.02 0.95 0.99 1.04 0.97 0.95 0.99 0.95 0.97 1.06 1.15 1.04 1.06 1.12 0.83 0.63 0.55 0.55 0.53 0.54 0.59 0.64 0.67 0.71 0.63 0.60 0.61
1.57 1.69 1.62 1.46 1.44 1.42 0.97 0.56 0.46 0.46 0.52 0.36 0.34 0.59 1.00 1.11 0.94 0.96 1.00 1.00 1.01 0.98 0.92 0.81 0.86 0.98 1.04 0.97 0.96 1.04 1.08 1.04 1.09 0.98 0.95 0.91 0.66 0.52 0.53 0.49 0.47 0.49 0.56 0.64 0.69 0.71 0.67 0.64 0.63
1.44 1.65 1.79 1.72 1.42 1.22 0.88 0.64 0.45 0.35 0.39 0.34 0.30 0.36 0.47 0.61 0.72 0.88 0.97 0.97 1.06 0.96 0.88 0.82 0.75 0.76 0.89 0.98 0.90 1.10 1.17 1.10 1.01 0.95 0.95 0.86 0.60 0.51 0.52 0.48 0.55 0.57 0.65 0.72 0.74 0.72 0.64 0.60 0.54
1.44 1.71 1.76 1.32 1.00 0.88 0.80 0.69 0.55 0.52 0.55 0.47 0.40 0.37 0.37 0.51 0.66 0.71 0.77 0.84 0.94 0.91 0.77 0.75 0.70 0.65 0.64 0.69 0.96 1.30 1.12 0.99 0.82 0.84 0.81 0.81 0.75 0.70 0.56 0.56 0.70 0.73 0.75 0.76 0.76 0.74 0.61 0.47 0.39
1.19 1.25 1.16 1.10 0.79 0.62 0.71 0.68 0.52 0.54 0.62 0.47 0.45 0.41 0.38 0.46 0.51 0.54 0.60 0.65 0.71 0.78 0.73 0.67 0.62 0.57 0.56 0.68 0.79 0.99 1.05 1.02 0.88 0.76 0.76 0.84 0.79 0.69 0.59 0.53 0.58 0.67 0.72 0.66 0.66 0.64 0.49 0.43 0.46
1.05 0.95 0.82 0.79 0.62 0.61 0.73 0.61 0.50 0.56 0.53 0.35 0.31 0.34 0.43 0.49 0.46 0.45 0.53 0.64 0.72 0.74 0.74 0.71 0.63 0.60 0.58 0.58 0.56 0.64 0.69 0.73 0.72 0.64 0.65 0.78 0.73 0.68 0.67 0.66 0.63 0.63 0.65 0.71 0.68 0.63 0.55 0.51 0.52
0.96 0.88 0.69 0.56 0.60 0.61 0.64 0.65 0.54 0.54 0.42 0.35 0.32 0.40 0.46 0.47 0.44 0.45 0.51 0.60 0.65 0.70 0.75 0.73 0.66 0.62 0.58 0.55 0.51 0.47 0.56 0.61 0.62 0.66 0.62 0.66 0.69 0.68 0.67 0.64 0.71 0.72 0.70 0.73 0.70 0.61 0.56 0.54 0.51
0.91 0.83 0.76 0.63 0.62 0.64 0.65 0.66 0.61 0.65 0.48 0.38 0.34 0.39 0.40 0.43 0.44 0.46 0.50 0.58 0.60 0.63 0.76 0.78 0.71 0.70 0.65 0.59 0.55 0.53 0.58 0.63 0.61 0.54 0.53 0.58 0.59 0.61 0.71 0.76 0.78 0.79 0.79 0.85 0.83 0.65 0.64 0.65 0.59
0.80 0.86 0.83 0.74 0.71 0.70 0.72 0.84 0.76 0.68 0.54 0.52 0.42 0.35 0.37 0.39 0.41 0.46 0.47 0.53 0.58 0.67 0.79 0.79 0.76 0.85 0.78 0.69 0.68 0.61 0.64 0.64 0.62 0.63 0.61 0.65 0.66 0.68 0.77 0.86 0.89 0.87 0.85 0.87 1.09 0.98 0.74 0.69 0.64
0.91 0.99 1.14 0.79 0.71 0.76 0.87 1.00 0.74 0.71 0.64 0.65 0.51 0.44 0.41 0.41 0.41 0.40 0.41 0.51 0.55 0.70 0.79 0.90 0.81 0.90 0.86 0.80 0.81 0.76 0.75 0.77 0.72 0.71 0.73 0.73 0.77 0.80 0.89 0.95 0.85 0.92 0.99 1.02 1.17 1.24 0.94 0.77 0.75
1.04 1.09 1.07 0.83 0.64 0.69 0.79 0.84 0.69 0.63 0.56 0.54 0.50 0.48 0.50 0.40 0.38 0.36 0.36 0.41 0.48 0.63 0.75 0.90 0.92 0.91 0.94 0.95 0.98 0.95 0.91 0.91 0.88 0.88 0.83 0.85 0.89 0.96 1.03 1.05 0.99 0.99 1.01 1.11 1.12 1.32 1.28 1.08 0.95
0.99 0.86 0.81 0.74 0.66 0.67 0.68 0.58 0.55 0.52 0.50 0.46 0.45 0.43 0.41 0.36 0.37 0.36 0.34 0.35 0.40 0.54 0.68 0.82 0.96 1.08 1.15 1.17 1.21 1.22 1.14 1.06 1.09 1.11 1.08 1.09 1.14 1.11 1.17 1.20 1.22 1.30 1.27 1.26 1.19 1.37 1.48 1.28 1.22
0.71 0.68 0.69 0.59 0.54 0.55 0.50 0.44 0.45 0.44 0.44 0.38 0.37 0.39 0.34 0.30 0.34 0.32 0.28 0.31 0.34 0.43 0.54 0.72 1.08 1.49 1.67 1.57 1.51 1.57 1.67 1.65 1.55 1.53 1.50 1.55 1.55 1.55 1.59 1.56 1.55 1.51 1.46 1.52 1.51 1.75 2.08 1.63 1.40
0.67 0.71 0.71 0.61 0.45 0.43 0.42 0.37 0.35 0.34 0.37 0.33 0.31 0.33 0.32 0.29 0.26 0.24 0.20 0.23 0.28 0.45 0.59 0.72 1.01 1.45 1.64 1.75 1.86 2.07 2.25 2.14 2.00 1.98 1.93 2.01 2.03 2.19 2.16 2.14 2.12 2.03 2.02 1.99 1.92 2.01 2.30 1.96 1.73
0.65 0.67 0.64 0.57 0.43 0.36 0.35 0.36 0.30 0.30 0.30 0.29 0.27 0.28 0.27 0.23 0.22 0.22 0.20 0.22 0.27 0.38 0.50 0.64 0.83 1.11 1.45 1.73 2.00 2.28 2.50 2.49 2.37 2.21 2.17 2.23 2.30 2.46 2.60 2.59 2.63 2.45 2.32 2.32 2.25 2.20 2.33 2.40 2.15
0.66 0.45 0.41 0.40 0.49 0.49 0.37 0.54 0.36 0.31 0.31 0.30 0.29 0.27 0.26 0.24 0.23 0.26 0.24 0.23 0.27 0.33 0.41 0.56 0.74 0.96 1.21 1.46 1.88 2.33 2.63 2.72 2.64 2.52 2.47 2.43 2.46 2.51 2.73 2.77 2.87 2.71 2.59 2.53 2.45 2.27 2.37 2.66 2.59
0.49 0.38 0.37 0.38 0.44 0.41 0.30 0.40 0.37 0.28 0.32 0.31 0.30 0.27 0.25 0.24 0.26 0.29 0.30 0.32 0.34 0.34 0.38 0.50 0.65 0.87 1.12 1.34 1.71 2.11 2.41 2.63 2.78 2.61 2.48 2.50 2.53 2.56 2.69 2.83 2.94 2.81 2.67 2.60 2.69 2.58 2.52 2.45 2.43
0.38 0.39 0.36 0.36 0.42 0.47 0.23 0.34 0.45 0.30 0.26 0.27 0.25 0.24 0.25 0.27 0.31 0.37 0.46 0.50 0.49 0.42 0.45 0.54 0.63 0.77 0.93 1.08 1.30 1.54 1.88 2.16 2.51 2.50 2.43 2.55 2.54 2.47 2.40 2.56 2.80 2.74 2.72 2.72 2.79 2.84 2.77 2.76 2.75
0.35 0.51 0.64 0.64 0.62 0.43 0.19 0.33 0.47 0.33 0.25 0.25 0.26 0.26 0.26 0.30 0.35 0.43 0.57 0.62 0.63 0.54 0.49 0.51 0.64 0.70 0.77 0.88 0.98 1.14 1.39 1.57 1.95 2.27 2.25 2.17 2.23 2.29 2.35 2.39 2.40 2.40 2.49 2.63 2.85 2.82 2.72 2.70 2.80
0.29 0.46 0.71 0.79 0.68 0.46 0.33 0.49 0.54 0.38 0.31 0.27 0.26 0.29 0.33 0.36 0.42 0.59 0.75 0.77 0.76 0.67 0.57 0.55 0.67 0.72 0.73 0.78 0.82 0.91 1.05 1.16 1.33 1.56 1.68 1.71 1.78 2.01 2.13 2.24 2.22 2.24 2.31 2.39 2.51 2.55 2.57 2.54 2.53
0.24 0.31 0.36 0.51 0.49 0.51 0.51 0.60 0.54 0.34 0.32 0.33 0.34 0.38 0.49 0.57 0.62 0.74 0.89 0.91 0.82 0.75 0.66 0.63 0.69 0.80 0.80 0.81 0.82 0.91 0.96 0.98 1.09 1.12 1.27 1.46 1.50 1.57 1.71 1.83 1.94 2.06 2.12 2.19 2.35 2.42 2.41 2.43 2.42
0.16 0.22 0.36 0.56 0.70 0.70 0.57 0.60 0.58 0.45 0.44 0.42 0.47 0.52 0.64 0.74 0.81 0.89 1.03 1.05 0.90 0.77 0.67 0.64 0.68 0.81 0.99 1.11 1.05 0.99 1.05 1.12 1.34 1.37 1.21 1.20 1.39 1.46 1.51 1.57 1.66 1.82 1.96 2.05 2.14 2.25 2.34 2.35 2.35
0.21 0.31 0.45 0.59 0.60 0.82 0.92 0.83 0.65 0.62 0.63 0.65 0.66 0.72 0.80 0.91 0.92 0.90 0.99 1.06 0.94 0.74 0.66 0.61 0.63 0.74 0.88 0.92 0.98 0.97 1.01 1.10 1.38 1.60 1.55 1.36 1.37 1.41 1.38 1.33 1.42 1.58 1.71 1.82 1.95 2.01 2.01 2.05 2.18
0.29 0.41 0.61 0.90 0.84 0.78 0.95 0.94 0.70 0.63 0.66 0.68 0.67 0.66 0.71 0.83 0.84 0.86 0.90 0.86 0.77 0.62 0.54 0.50 0.51 0.63 0.75 0.74 0.80 0.88 0.89 0.97 1.09 1.21 1.24 1.18 1.11 1.09 1.15 1.20 1.22 1.31 1.49 1.61 1.66 1.67 1.71 1.78 1.90

GEFSSGP_prec_meanprecacc_204.txt.gz
Total_Precipitation_Accumulation
0.82 1.04 1.55 2.21 2.79 2.10 1.42 1.14 0.84 0.73 0.63 0.54 0.50 0.52 0.62 0.76 1.18 1.81 1.94 1.69 1.18 0.96 1.15 1.50 1.65 1.58 1.44 1.29 1.31 1.42 1.50 1.64 1.58 1.40 1.22 1.02 0.90 0.77 0.82 0.82 0.79 0.73 0.63 0.68 0.72 0.70 0.66 0.61 0.53
0.82 1.59 2.14 2.94 2.69 1.63 1.38 1.15 0.98 0.70 0.54 0.42 0.36 0.46 0.58 0.53 0.67 1.31 1.97 1.87 1.13 0.84 0.92 1.15 1.36 1.38 1.35 1.31 1.37 1.45 1.43 1.37 1.27 1.12 0.96 0.86 0.86 0.77 0.72 0.76 0.77 0.71 0.62 0.65 0.69 0.76 0.69 0.60 0.50
0.97 1.83 2.42 2.68 1.88 1.40 1.35 1.10 0.91 0.62 0.49 0.43 0.34 0.35 0.51 0.73 0.93 1.56 1.83 1.27 0.98 0.79 0.93 1.15 1.31 1.27 1.27 1.23 1.32 1.37 1.33 1.18 1.08 1.02 0.93 0.84 0.81 0.78 0.76 0.75 0.76 0.70 0.61 0.57 0.66 0.71 0.63 0.57 0.49
1.34 2.16 2.41 2.01 1.46 1.10 0.96 0.94 0.73 0.61 0.41 0.31 0.31 0.42 0.57 0.90 1.10 1.45 1.43 1.03 0.91 0.86 1.04 1.15 1.31 1.27 1.18 1.22 1.25 1.15 0.98 0.92 1.04 1.04 0.95 0.87 0.81 0.78 0.77 0.74 0.67 0.59 0.58 0.59 0.64 0.66 0.61 0.58 0.49
1.71 2.34 2.28 1.69 1.33 1.11 0.89 0.78 0.63 0.57 0.49 0.37 0.32 0.58 0.94 1.13 1.13 1.15 1.15 0.99 0.96 1.10 1.30 1.19 1.25 1.22 1.12 1.13 1.16 1.02 0.98 1.03 1.18 1.15 1.04 0.98 0.86 0.78 0.76 0.69 0.57 0.51 0.54 0.61 0.75 0.74 0.57 0.52 0.49
2.17 2.32 2.46 1.82 1.40 1.19 1.05 0.77 0.58 0.51 0.45 0.38 0.38 0.63 1.09 1.31 1.28 1.21 1.20 1.17 1.10 1.15 1.25 1.21 1.28 1.22 1.07 1.02 1.01 0.88 0.90 1.12 1.28 1.23 1.19 1.25 1.00 0.79 0.66 0.61 0.56 0.52 0.51 0.58 0.71 0.72 0.57 0.50 0.54
2.30 2.37 2.08 1.56 1.41 1.52 1.15 0.68 0.57 0.56 0.56 0.44 0.37 0.67 1.13 1.42 1.22 1.05 1.10 1.05 1.03 1.03 1.03 0.98 1.00 1.05 0.99 0.96 1.00 0.95 0.97 1.07 1.17 1.12 1.14 1.14 0.84 0.63 0.56 0.55 0.53 0.54 0.59 0.64 0.67 0.71 0.63 0.60 0.61
1.59 1.71 1.66 1.50 1.48 1.49 1.02 0.59 0.49 0.47 0.54 0.38 0.34 0.60 1.04 1.16 1.00 1.03 1.03 1.01 1.02 0.99 0.92 0.81 0.87 0.99 1.05 0.98 0.96 1.04 1.08 1.04 1.10 1.01 0.99 0.93 0.67 0.53 0.53 0.49 0.47 0.49 0.56 0.64 0.69 0.71 0.67 0.64 0.64
1.45 1.67 1.84 1.75 1.45 1.26 0.91 0.69 0.50 0.37 0.41 0.36 0.31 0.36 0.49 0.64 0.77 0.92 1.00 0.99 1.08 0.98 0.90 0.83 0.75 0.76 0.89 0.98 0.90 1.10 1.18 1.10 1.01 0.96 0.96 0.87 0.61 0.52 0.52 0.48 0.55 0.57 0.65 0.72 0.74 0.72 0.64 0.60 0.55
1.45 1.74 1.80 1.35 1.03 0.91 0.84 0.73 0.58 0.54 0.57 0.49 0.42 0.38 0.39 0.55 0.70 0.74 0.80 0.87 0.96 0.94 0.79 0.77 0.71 0.65 0.64 0.69 0.96 1.30 1.12 0.99 0.82 0.84 0.81 0.81 0.76 0.70 0.56 0.56 0.70 0.73 0.75 0.76 0.76 0.74 0.61 0.47 0.40
1.20 1.28 1.19 1.12 0.81 0.64 0.74 0.72 0.55 0.56 0.65 0.50 0.47 0.43 0.41 0.49 0.55 0.57 0.63 0.68 0.73 0.81 0.76 0.69 0.64 0.57 0.56 0.68 0.79 1.00 1.05 1.02 0.88 0.76 0.76 0.84 0.79 0.69 0.59 0.53 0.58 0.67 0.72 0.66 0.66 0.65 0.49 0.44 0.46
1.05 0.97 0.84 0.81 0.63 0.61 0.75 0.64 0.53 0.58 0.55 0.36 0.31 0.35 0.44 0.50 0.48 0.47 0.55 0.68 0.75 0.78 0.76 0.72 0.64 0.61 0.58 0.58 0.56 0.64 0.69 0.73 0.72 0.64 0.65 0.78 0.73 0.68 0.67 0.66 0.63 0.63 0.65 0.71 0.69 0.64 0.55 0.51 0.53
0.96 0.88 0.70 0.58 0.62 0.62 0.65 0.67 0.57 0.57 0.45 0.37 0.33 0.41 0.47 0.48 0.46 0.46 0.53 0.62 0.68 0.73 0.77 0.74 0.67 0.63 0.58 0.55 0.51 0.47 0.57 0.61 0.62 0.66 0.62 0.66 0.69 0.68 0.67 0.64 0.71 0.72 0.70 0.73 0.71 0.62 0.56 0.55 0.52
0.91 0.84 0.77 0.64 0.63 0.65 0.68 0.69 0.63 0.67 0.51 0.41 0.35 0.40 0.42 0.45 0.46 0.48 0.52 0.60 0.62 0.64 0.78 0.79 0.72 0.70 0.65 0.59 0.55 0.53 0.58 0.63 0.61 0.54 0.53 0.58 0.59 0.61 0.71 0.76 0.78 0.79 0.79 0.85 0.83 0.65 0.64 0.65 0.60
0.81 0.87 0.85 0.76 0.73 0.72 0.74 0.88 0.80 0.71 0.57 0.55 0.44 0.37 0.39 0.41 0.42 0.48 0.49 0.55 0.60 0.68 0.80 0.80 0.77 0.86 0.78 0.69 0.68 0.61 0.64 0.64 0.62 0.63 0.61 0.65 0.66 0.68 0.77 0.86 0.89 0.87 0.85 0.87 1.09 0.98 0.74 0.69 0.65
0.93 1.02 1.16 0.82 0.72 0.77 0.89 1.05 0.78 0.75 0.67 0.68 0.54 0.46 0.42 0.42 0.42 0.41 0.42 0.53 0.57 0.70 0.80 0.91 0.82 0.90 0.86 0.81 0.81 0.76 0.75 0.77 0.72 0.71 0.73 0.73 0.77 0.80 0.89 0.95 0.85 0.92 0.99 1.02 1.17 1.24 0.94 0.77 0.76
1.08 1.12 1.09 0.86 0.65 0.70 0.80 0.88 0.73 0.68 0.58 0.56 0.52 0.50 0.51 0.41 0.39 0.36 0.38 0.43 0.50 0.64 0.75 0.91 0.93 0.91 0.95 0.96 0.98 0.95 0.91 0.91 0.88 0.88 0.83 0.85 0.89 0.96 1.03 1.05 0.99 0.99 1.01 1.11 1.12 1.32 1.28 1.08 0.96
1.02 0.89 0.84 0.76 0.67 0.67 0.68 0.59 0.58 0.56 0.53 0.49 0.48 0.45 0.42 0.37 0.38 0.37 0.34 0.35 0.41 0.56 0.69 0.82 0.97 1.09 1.16 1.18 1.22 1.22 1.14 1.07 1.09 1.12 1.08 1.09 1.14 1.11 1.17 1.20 1.22 1.30 1.27 1.26 1.19 1.37 1.48 1.28 1.22
0.73 0.71 0.71 0.61 0.55 0.56 0.50 0.44 0.46 0.47 0.48 0.43 0.42 0.42 0.35 0.31 0.35 0.34 0.29 0.32 0.35 0.46 0.56 0.72 1.08 1.49 1.68 1.57 1.52 1.58 1.68 1.66 1.56 1.53 1.50 1.55 1.55 1.55 1.59 1.56 1.55 1.51 1.46 1.52 1.51 1.75 2.08 1.63 1.41
0.68 0.73 0.73 0.63 0.46 0.44 0.43 0.38 0.37 0.38 0.40 0.37 0.34 0.37 0.34 0.30 0.27 0.26 0.21 0.23 0.29 0.47 0.62 0.73 1.02 1.45 1.65 1.75 1.87 2.08 2.26 2.14 2.01 1.99 1.93 2.01 2.03 2.19 2.16 2.14 2.12 2.03 2.02 1.99 1.92 2.01 2.30 1.96 1.74
0.67 0.70 0.68 0.59 0.44 0.38 0.37 0.39 0.33 0.36 0.33 0.32 0.31 0.33 0.30 0.24 0.23 0.23 0.20 0.23 0.28 0.40 0.52 0.66 0.84 1.12 1.46 1.73 2.00 2.29 2.51 2.49 2.37 2.21 2.17 2.23 2.30 2.46 2.60 2.59 2.63 2.45 2.32 2.32 2.25 2.20 2.33 2.40 2.16
0.67 0.47 0.43 0.41 0.51 0.51 0.39 0.57 0.39 0.37 0.36 0.33 0.32 0.30 0.29 0.25 0.24 0.27 0.24 0.24 0.28 0.34 0.43 0.58 0.75 0.97 1.23 1.47 1.89 2.33 2.63 2.73 2.64 2.52 2.47 2.44 2.46 2.51 2.73 2.77 2.87 2.71 2.60 2.53 2.45 2.27 2.37 2.66 2.59
0.50 0.39 0.38 0.39 0.46 0.43 0.31 0.41 0.39 0.31 0.35 0.33 0.30 0.28 0.27 0.26 0.27 0.30 0.30 0.32 0.34 0.35 0.40 0.52 0.67 0.89 1.14 1.36 1.72 2.12 2.41 2.64 2.79 2.61 2.48 2.50 2.53 2.56 2.69 2.83 2.94 2.81 2.67 2.60 2.69 2.58 2.52 2.46 2.44
0.39 0.40 0.37 0.38 0.43 0.48 0.24 0.36 0.47 0.32 0.28 0.28 0.26 0.25 0.26 0.28 0.33 0.37 0.47 0.50 0.49 0.43 0.47 0.57 0.66 0.80 0.96 1.11 1.32 1.55 1.89 2.16 2.51 2.51 2.43 2.55 2.54 2.47 2.40 2.56 2.80 2.74 2.72 2.72 2.79 2.84 2.77 2.76 2.75
0.37 0.53 0.67 0.66 0.64 0.44 0.19 0.34 0.49 0.34 0.26 0.26 0.27 0.27 0.28 0.31 0.35 0.43 0.58 0.63 0.64 0.55 0.51 0.53 0.66 0.72 0.79 0.90 1.00 1.14 1.39 1.58 1.96 2.27 2.25 2.17 2.23 2.29 2.35 2.39 2.40 2.40 2.49 2.63 2.85 2.82 2.72 2.70 2.80
0.30 0.48 0.73 0.81 0.71 0.48 0.34 0.51 0.55 0.39 0.31 0.28 0.26 0.29 0.34 0.38 0.43 0.59 0.76 0.78 0.77 0.68 0.59 0.58 0.68 0.73 0.74 0.80 0.84 0.93 1.06 1.17 1.34 1.56 1.68 1.72 1.78 2.01 2.13 2.24 2.22 2.24 2.31 2.39 2.51 2.55 2.57 2.54 2.53
0.25 0.32 0.37 0.53 0.51 0.54 0.53 0.61 0.54 0.34 0.32 0.33 0.35 0.39 0.50 0.59 0.63 0.75 0.90 0.93 0.83 0.76 0.67 0.65 0.71 0.81 0.81 0.82 0.84 0.93 0.97 0.99 1.10 1.14 1.29 1.47 1.51 1.57 1.71 1.83 1.94 2.06 2.12 2.19 2.35 2.42 2.41 2.43 2.42
0.18 0.23 0.38 0.57 0.72 0.73 0.60 0.63 0.59 0.45 0.44 0.43 0.47 0.53 0.65 0.75 0.82 0.91 1.05 1.06 0.91 0.78 0.69 0.66 0.70 0.82 1.00 1.12 1.07 1.00 1.06 1.14 1.36 1.41 1.27 1.24 1.40 1.47 1.51 1.57 1.66 1.82 1.96 2.05 2.14 2.25 2.34 2.35 2.35
0.22 0.32 0.46 0.60 0.62 0.85 0.94 0.85 0.67 0.63 0.64 0.65 0.67 0.72 0.80 0.92 0.93 0.91 1.00 1.07 0.95 0.76 0.68 0.62 0.64 0.75 0.89 0.93 0.99 0.98 1.02 1.11 1.39 1.62 1.57 1.39 1.38 1.41 1.38 1.33 1.42 1.58 1.71 1.82 1.95 2.01 2.01 2.05 2.18
0.30 0.42 0.62 0.91 0.87 0.81 0.97 0.96 0.71 0.64 0.68 0.69 0.68 0.67 0.71 0.83 0.85 0.88 0.92 0.88 0.79 0.63 0.55 0.51 0.52 0.64 0.76 0.75 0.81 0.89 0.91 0.99 1.11 1.23 1.25 1.19 1.12 1.09 1.15 1.20 1.22 1.31 1.49 1.61 1.66 1.67 1.71 1.78 1.90

GEFSSGP_prec_meanprecacc_210.txt.gz
Total_Precipitation_Accumulation
0.85 1.07 1.58 2.23 2.80 2.11 1.45 1.17 0.87 0.78 0.69 0.59 0.55 0.57 0.67 0.82 1.24 1.89 1.99 1.73 1.22 1.01 1.25 1.65 1.75 1.65 1.50 1.35 1.37 1.47 1.53 1.66 1.61 1.42 1.25 1.05 0.92 0.80 0.85 0.84 0.80 0.75 0.65 0.70 0.76 0.73 0.68 0.64 0.55
0.84 1.62 2.17 2.95 2.70 1.65 1.39 1.17 1.02 0.74 0.58 0.46 0.39 0.49 0.62 0.56 0.70 1.37 2.03 1.93 1.18 0.90 1.00 1.25 1.45 1.44 1.39 1.36 1.41 1.49 1.47 1.40 1.29 1.14 0.99 0.89 0.89 0.81 0.74 0.78 0.79 0.73 0.64 0.67 0.71 0.78 0.71 0.62 0.52
0.99 1.86 2.44 2.69 1.89 1.41 1.36 1.14 0.95 0.67 0.54 0.46 0.37 0.37 0.53 0.75 0.97 1.64 1.89 1.31 1.02 0.84 1.01 1.24 1.40 1.34 1.33 1.28 1.36 1.40 1.36 1.22 1.11 1.04 0.96 0.87 0.85 0.81 0.78 0.77 0.79 0.71 0.62 0.58 0.68 0.73 0.65 0.59 0.50
1.37 2.17 2.42 2.01 1.47 1.11 0.98 0.99 0.78 0.65 0.46 0.34 0.34 0.46 0.60 0.92 1.15 1.52 1.47 1.07 0.94 0.91 1.11 1.22 1.37 1.32 1.23 1.26 1.29 1.18 1.02 0.96 1.07 1.07 0.98 0.91 0.84 0.80 0.79 0.76 0.69 0.60 0.58 0.59 0.65 0.67 0.62 0.60 0.50
1.73 2.35 2.28 1.69 1.33 1.13 0.93 0.84 0.69 0.61 0.51 0.39 0.34 0.61 0.97 1.16 1.18 1.21 1.21 1.04 0.99 1.15 1.35 1.24 1.31 1.28 1.17 1.17 1.19 1.05 1.00 1.05 1.21 1.18 1.07 1.01 0.89 0.80 0.78 0.71 0.59 0.52 0.55 0.61 0.75 0.75 0.58 0.54 0.51
2.17 2.32 2.48 1.84 1.41 1.22 1.09 0.82 0.63 0.54 0.47 0.39 0.39 0.65 1.13 1.36 1.33 1.32 1.27 1.20 1.13 1.18 1.28 1.27 1.35 1.28 1.13 1.05 1.03 0.90 0.92 1.13 1.30 1.25 1.22 1.28 1.02 0.81 0.68 0.63 0.57 0.53 0.52 0.58 0.71 0.73 0.58 0.51 0.55
2.30 2.37 2.09 1.58 1.43 1.55 1.19 0.73 0.63 0.59 0.58 0.45 0.38 0.68 1.17 1.49 1.28 1.14 1.16 1.08 1.05 1.06 1.05 1.01 1.05 1.11 1.04 0.99 1.02 0.97 0.99 1.08 1.19 1.14 1.15 1.16 0.85 0.64 0.57 0.56 0.55 0.55 0.60 0.65 0.67 0.71 0.64 0.61 0.63
1.60 1.72 1.66 1.53 1.52 1.53 1.07 0.64 0.53 0.50 0.56 0.39 0.34 0.60 1.08 1.23 1.06 1.09 1.07 1.05 1.04 1.01 0.94 0.83 0.89 1.04 1.09 1.01 0.98 1.05 1.11 1.08 1.15 1.04 1.00 0.95 0.68 0.53 0.53 0.49 0.47 0.49 0.56 0.65 0.69 0.72 0.68 0.65 0.65
1.46 1.69 1.86 1.79 1.49 1.31 0.96 0.73 0.52 0.38 0.42 0.37 0.32 0.37 0.52 0.69 0.81 0.96 1.03 1.02 1.11 1.00 0.91 0.84 0.76 0.78 0.91 0.99 0.91 1.11 1.20 1.15 1.04 0.97 0.97 0.88 0.61 0.52 0.52 0.48 0.56 0.57 0.65 0.72 0.74 0.72 0.65 0.60 0.56
1.46 1.75 1.82 1.37 1.05 0.95 0.88 0.76 0.60 0.55 0.58 0.49 0.42 0.39 0.42 0.58 0.72 0.76 0.82 0.88 0.97 0.95 0.80 0.77 0.71 0.66 0.64 0.70 0.97 1.31 1.13 1.02 0.83 0.85 0.82 0.82 0.76 0.71 0.56 0.56 0.70 0.73 0.75 0.77 0.77 0.74 0.61 0.47 0.40
1.20 1.29 1.20 1.13 0.82 0.66 0.77 0.74 0.56 0.58 0.66 0.51 0.48 0.44 0.43 0.52 0.56 0.59 0.65 0.70 0.75 0.82 0.77 0.70 0.64 0.58 0.56 0.68 0.80 1.00 1.05 1.02 0.89 0.77 0.76 0.85 0.80 0.70 0.59 0.53 0.58 0.67 0.72 0.66 0.66 0.65 0.49 0.44 0.46
1.06 0.98 0.85 0.82 0.64 0.63 0.78 0.67 0.55 0.61 0.56 0.37 0.32 0.35 0.45 0.52 0.49 0.48 0.57 0.69 0.76 0.79 0.78 0.74 0.66 0.62 0.58 0.58 0.56 0.64 0.69 0.73 0.72 0.64 0.65 0.78 0.74 0.69 0.67 0.67 0.63 0.63 0.65 0.71 0.69 0.65 0.56 0.51 0.53
0.97 0.90 0.72 0.59 0.63 0.64 0.68 0.70 0.59 0.58 0.45 0.37 0.34 0.42 0.48 0.48 0.46 0.47 0.54 0.63 0.69 0.74 0.78 0.75 0.68 0.64 0.59 0.55 0.51 0.47 0.57 0.61 0.62 0.66 0.62 0.66 0.69 0.69 0.67 0.65 0.71 0.72 0.70 0.73 0.72 0.62 0.57 0.55 0.53
0.92 0.85 0.79 0.65 0.64 0.67 0.71 0.73 0.66 0.69 0.51 0.42 0.36 0.42 0.44 0.47 0.47 0.49 0.53 0.61 0.63 0.65 0.78 0.80 0.72 0.71 0.65 0.59 0.55 0.53 0.58 0.63 0.61 0.54 0.53 0.58 0.59 0.61 0.71 0.76 0.78 0.79 0.79 0.85 0.83 0.65 0.64 0.66 0.61
0.81 0.88 0.86 0.78 0.75 0.74 0.75 0.91 0.82 0.74 0.61 0.57 0.46 0.39 0.42 0.42 0.43 0.49 0.50 0.56 0.61 0.68 0.81 0.81 0.78 0.86 0.79 0.70 0.68 0.61 0.64 0.65 0.63 0.63 0.61 0.65 0.66 0.68 0.77 0.86 0.89 0.87 0.85 0.87 1.09 0.98 0.74 0.69 0.65
0.93 1.03 1.18 0.85 0.76 0.79 0.90 1.06 0.80 0.77 0.71 0.72 0.57 0.48 0.45 0.43 0.43 0.42 0.43 0.54 0.58 0.72 0.81 0.92 0.83 0.91 0.87 0.81 0.81 0.77 0.76 0.78 0.72 0.71 0.73 0.73 0.77 0.80 0.89 0.95 0.85 0.92 0.99 1.02 1.17 1.24 0.94 0.77 0.76
1.08 1.13 1.12 0.90 0.69 0.72 0.80 0.88 0.74 0.69 0.61 0.60 0.56 0.52 0.53 0.42 0.40 0.37 0.39 0.45 0.51 0.66 0.77 0.92 0.94 0.92 0.96 0.97 0.99 0.95 0.91 0.92 0.88 0.88 0.83 0.85 0.89 0.96 1.03 1.05 0.99 0.99 1.01 1.11 1.12 1.32 1.28 1.08 0.96
1.03 0.90 0.86 0.78 0.70 0.69 0.69 0.60 0.59 0.57 0.55 0.51 0.51 0.48 0.44 0.39 0.39 0.38 0.35 0.36 0.42 0.57 0.71 0.84 0.98 1.10 1.17 1.19 1.23 1.22 1.14 1.07 1.09 1.12 1.08 1.09 1.14 1.11 1.17 1.20 1.22 1.30 1.27 1.26 1.19 1.37 1.48 1.28 1.22
0.73 0.71 0.72 0.62 0.56 0.57 0.51 0.45 0.47 0.48 0.50 0.44 0.43 0.44 0.37 0.33 0.37 0.36 0.30 0.33 0.35 0.46 0.58 0.74 1.09 1.51 1.69 1.58 1.53 1.58 1.68 1.66 1.57 1.54 1.51 1.55 1.55 1.55 1.59 1.56 1.55 1.51 1.46 1.52 1.51 1.75 2.08 1.63 1.41
0.68 0.73 0.74 0.64 0.47 0.45 0.44 0.39 0.37 0.40 0.42 0.39 0.36 0.39 0.35 0.31 0.28 0.26 0.23 0.26 0.31 0.48 0.63 0.74 1.04 1.48 1.67 1.77 1.88 2.09 2.26 2.15 2.02 2.00 1.94 2.01 2.03 2.19 2.16 2.14 2.12 2.03 2.02 1.99 1.92 2.01 2.30 1.96 1.74
0.67 0.70 0.69 0.60 0.46 0.40 0.38 0.39 0.34 0.37 0.34 0.32 0.32 0.34 0.31 0.25 0.23 0.23 0.21 0.24 0.29 0.42 0.54 0.67 0.87 1.15 1.50 1.76 2.02 2.30 2.52 2.49 2.38 2.22 2.19 2.25 2.30 2.46 2.60 2.59 2.63 2.45 2.32 2.32 2.25 2.20 2.33 2.40 2.16
0.68 0.47 0.44 0.42 0.52 0.53 0.40 0.57 0.40 0.39 0.38 0.33 0.33 0.32 0.31 0.26 0.24 0.28 0.25 0.25 0.29 0.36 0.45 0.60 0.79 1.01 1.27 1.51 1.91 2.35 2.64 2.73 2.64 2.53 2.49 2.45 2.46 2.52 2.73 2.77 2.87 2.71 2.60 2.53 2.45 2.27 2.38 2.66 2.59
0.50 0.39 0.39 0.40 0.47 0.43 0.31 0.42 0.40 0.33 0.36 0.33 0.31 0.29 0.29 0.27 0.27 0.30 0.30 0.33 0.35 0.36 0.42 0.54 0.69 0.92 1.18 1.41 1.76 2.16 2.43 2.65 2.79 2.62 2.49 2.51 2.54 2.56 2.69 2.83 2.94 2.81 2.67 2.60 2.69 2.58 2.52 2.46 2.44
0.39 0.41 0.38 0.39 0.44 0.49 0.24 0.36 0.47 0.32 0.29 0.29 0.27 0.25 0.27 0.29 0.33 0.38 0.47 0.51 0.50 0.44 0.49 0.58 0.67 0.82 1.00 1.15 1.36 1.58 1.92 2.18 2.52 2.51 2.44 2.56 2.55 2.47 2.40 2.56 2.80 2.74 2.72 2.72 2.79 2.84 2.77 2.76 2.75
0.37 0.54 0.67 0.67 0.64 0.44 0.19 0.34 0.49 0.34 0.26 0.27 0.27 0.27 0.28 0.31 0.36 0.44 0.58 0.63 0.64 0.56 0.51 0.55 0.68 0.76 0.84 0.94 1.04 1.18 1.43 1.60 1.97 2.28 2.26 2.18 2.24 2.30 2.36 2.39 2.40 2.41 2.49 2.63 2.85 2.82 2.72 2.70 2.80
0.31 0.48 0.74 0.82 0.71 0.48 0.34 0.51 0.55 0.39 0.31 0.28 0.27 0.30 0.35 0.38 0.43 0.60 0.76 0.78 0.77 0.69 0.60 0.59 0.70 0.75 0.79 0.85 0.88 0.97 1.10 1.19 1.35 1.58 1.69 1.73 1.79 2.02 2.13 2.25 2.23 2.24 2.31 2.39 2.51 2.55 2.57 2.54 2.53
0.26 0.32 0.38 0.53 0.51 0.54 0.53 0.61 0.55 0.34 0.32 0.34 0.35 0.39 0.50 0.59 0.63 0.76 0.91 0.93 0.84 0.76 0.69 0.67 0.72 0.83 0.84 0.85 0.87 0.96 1.00 1.01 1.11 1.15 1.30 1.49 1.53 1.59 1.73 1.84 1.94 2.06 2.12 2.19 2.35 2.42 2.41 2.43 2.42
0.18 0.24 0.39 0.58 0.72 0.73 0.60 0.63 0.59 0.45 0.44 0.43 0.47 0.53 0.65 0.76 0.82 0.91 1.06 1.07 0.92 0.80 0.70 0.68 0.71 0.84 1.01 1.14 1.09 1.03 1.09 1.16 1.38 1.42 1.28 1.27 1.43 1.49 1.53 1.58 1.67 1.82 1.96 2.05 2.14 2.25 2.34 2.35 2.35
0.23 0.32 0.46 0.61 0.62 0.85 0.94 0.85 0.67 0.64 0.64 0.65 0.67 0.72 0.81 0.93 0.94 0.92 1.01 1.07 0.96 0.77 0.69 0.63 0.65 0.76 0.91 0.94 1.00 0.98 1.03 1.13 1.41 1.63 1.59 1.41 1.41 1.43 1.40 1.35 1.43 1.58 1.71 1.82 1.95 2.01 2.02 2.05 2.18
0.31 0.43 0.62 0.92 0.87 0.81 0.97 0.96 0.72 0.65 0.68 0.69 0.68 0.67 0.72 0.84 0.85 0.89 0.92 0.88 0.79 0.64 0.56 0.52 0.53 0.65 0.77 0.77 0.82 0.89 0.91 1.00 1.12 1.25 1.27 1.21 1.13 1.10 1.17 1.22 1.23 1.32 1.49 1.61 1.66 1.68 1.71 1.78 1.91

GEFSSGP_prec_meanprecacc_216.txt.gz
Total_Precipitation_Accumulation
0.88 1.09 1.59 2.24 2.81 2.14 1.48 1.21 0.90 0.81 0.74 0.63 0.58 0.60 0.72 0.86 1.30 1.97 2.09 1.82 1.30 1.10 1.37 1.80 1.92 1.81 1.64 1.46 1.47 1.59 1.62 1.73 1.64 1.45 1.28 1.08 0.95 0.83 0.87 0.86 0.82 0.78 0.67 0.73 0.80 0.76 0.72 0.68 0.57
0.86 1.64 2.18 2.96 2.72 1.67 1.42 1.21 1.05 0.76 0.61 0.47 0.40 0.52 0.65 0.60 0.74 1.42 2.11 2.01 1.25 0.97 1.11 1.38 1.56 1.55 1.52 1.48 1.51 1.59 1.55 1.46 1.33 1.17 1.02 0.93 0.93 0.84 0.78 0.80 0.82 0.76 0.67 0.70 0.74 0.80 0.75 0.65 0.54
1.01 1.87 2.44 2.69 1.89 1.42 1.38 1.16 0.98 0.72 0.56 0.47 0.38 0.38 0.56 0.79 1.00 1.67 1.92 1.35 1.05 0.88 1.09 1.37 1.49 1.41 1.41 1.37 1.44 1.48 1.42 1.27 1.16 1.09 1.00 0.91 0.90 0.87 0.84 0.81 0.83 0.75 0.65 0.60 0.69 0.75 0.68 0.61 0.52
1.38 2.18 2.42 2.01 1.47 1.11 0.99 1.01 0.81 0.68 0.49 0.36 0.35 0.47 0.62 0.96 1.20 1.57 1.50 1.09 0.95 0.93 1.16 1.31 1.43 1.38 1.30 1.35 1.38 1.26 1.08 1.01 1.11 1.11 1.02 0.95 0.89 0.86 0.84 0.79 0.72 0.63 0.60 0.60 0.66 0.69 0.64 0.62 0.53
1.73 2.35 2.29 1.70 1.34 1.13 0.93 0.85 0.71 0.63 0.53 0.41 0.35 0.62 0.99 1.19 1.24 1.28 1.24 1.05 1.00 1.18 1.41 1.30 1.36 1.34 1.24 1.22 1.24 1.10 1.05 1.09 1.26 1.22 1.11 1.05 0.93 0.85 0.82 0.74 0.61 0.54 0.56 0.62 0.76 0.77 0.60 0.56 0.53
2.17 2.32 2.48 1.85 1.42 1.23 1.10 0.83 0.65 0.55 0.48 0.40 0.41 0.67 1.15 1.39 1.38 1.37 1.30 1.22 1.15 1.21 1.32 1.31 1.41 1.36 1.20 1.08 1.05 0.93 0.96 1.17 1.35 1.29 1.25 1.31 1.05 0.84 0.72 0.66 0.60 0.54 0.53 0.60 0.73 0.75 0.60 0.53 0.57
2.30 2.37 2.09 1.58 1.44 1.56 1.20 0.75 0.64 0.60 0.59 0.46 0.39 0.69 1.20 1.52 1.31 1.17 1.19 1.10 1.08 1.10 1.09 1.06 1.11 1.18 1.09 1.03 1.05 0.99 1.02 1.11 1.23 1.18 1.18 1.18 0.88 0.66 0.60 0.60 0.58 0.57 0.61 0.67 0.69 0.72 0.65 0.62 0.64
1.61 1.72 1.67 1.54 1.54 1.55 1.08 0.66 0.55 0.51 0.56 0.39 0.35 0.61 1.11 1.27 1.08 1.11 1.10 1.06 1.06 1.04 0.98 0.85 0.91 1.11 1.20 1.11 1.07 1.12 1.16 1.12 1.18 1.06 1.02 0.96 0.68 0.54 0.55 0.52 0.51 0.52 0.58 0.67 0.71 0.73 0.69 0.66 0.66
1.47 1.69 1.87 1.80 1.53 1.35 0.98 0.75 0.53 0.39 0.43 0.37 0.32 0.38 0.55 0.73 0.85 0.99 1.07 1.04 1.13 1.02 0.93 0.85 0.77 0.83 1.02 1.14 1.06 1.22 1.28 1.20 1.07 0.99 0.98 0.89 0.62 0.52 0.53 0.49 0.58 0.59 0.67 0.74 0.76 0.74 0.67 0.62 0.57
1.46 1.75 1.83 1.38 1.07 1.01 0.92 0.78 0.61 0.56 0.58 0.50 0.43 0.40 0.46 0.61 0.76 0.82 0.87 0.91 0.99 0.96 0.81 0.77 0.72 0.67 0.66 0.74 1.02 1.36 1.17 1.07 0.88 0.87 0.83 0.82 0.76 0.72 0.56 0.57 0.72 0.76 0.77 0.79 0.78 0.75 0.62 0.48 0.40
1.20 1.29 1.20 1.13 0.83 0.69 0.82 0.76 0.57 0.59 0.67 0.51 0.48 0.45 0.46 0.56 0.59 0.62 0.70 0.74 0.76 0.84 0.78 0.70 0.65 0.58 0.57 0.69 0.81 1.01 1.07 1.05 0.92 0.78 0.77 0.85 0.80 0.70 0.60 0.53 0.59 0.67 0.73 0.67 0.67 0.65 0.50 0.44 0.47
1.06 0.99 0.86 0.83 0.66 0.66 0.83 0.70 0.57 0.63 0.58 0.37 0.32 0.36 0.47 0.54 0.51 0.50 0.60 0.73 0.79 0.82 0.80 0.75 0.67 0.62 0.59 0.58 0.57 0.65 0.70 0.74 0.72 0.64 0.66 0.79 0.74 0.69 0.67 0.67 0.63 0.63 0.65 0.72 0.69 0.65 0.57 0.52 0.53
0.98 0.92 0.74 0.61 0.65 0.67 0.72 0.73 0.61 0.60 0.46 0.38 0.34 0.44 0.49 0.49 0.47 0.48 0.56 0.66 0.71 0.75 0.80 0.77 0.70 0.65 0.60 0.56 0.52 0.48 0.57 0.61 0.62 0.66 0.62 0.66 0.70 0.70 0.68 0.65 0.71 0.72 0.70 0.73 0.72 0.63 0.58 0.56 0.53
0.93 0.86 0.79 0.66 0.66 0.69 0.74 0.75 0.67 0.70 0.52 0.42 0.37 0.43 0.45 0.48 0.47 0.50 0.53 0.62 0.64 0.66 0.79 0.82 0.73 0.71 0.67 0.60 0.56 0.54 0.58 0.63 0.61 0.54 0.53 0.58 0.60 0.63 0.73 0.77 0.78 0.79 0.79 0.85 0.84 0.65 0.65 0.67 0.61
0.82 0.88 0.87 0.79 0.78 0.75 0.77 0.93 0.84 0.75 0.62 0.58 0.47 0.40 0.43 0.43 0.43 0.49 0.51 0.56 0.61 0.70 0.83 0.82 0.78 0.86 0.79 0.71 0.69 0.61 0.64 0.65 0.63 0.63 0.61 0.65 0.66 0.69 0.78 0.87 0.89 0.87 0.85 0.87 1.09 0.98 0.74 0.69 0.65
0.94 1.03 1.18 0.86 0.77 0.80 0.92 1.08 0.81 0.79 0.73 0.75 0.60 0.50 0.46 0.44 0.43 0.42 0.44 0.55 0.59 0.72 0.82 0.93 0.84 0.91 0.87 0.82 0.82 0.77 0.76 0.78 0.73 0.71 0.73 0.73 0.77 0.80 0.89 0.95 0.86 0.92 0.99 1.02 1.18 1.24 0.94 0.77 0.76
1.09 1.14 1.13 0.91 0.70 0.73 0.81 0.89 0.75 0.71 0.64 0.62 0.58 0.53 0.54 0.43 0.40 0.38 0.39 0.45 0.51 0.67 0.78 0.93 0.95 0.93 0.96 0.97 1.00 0.96 0.92 0.92 0.89 0.88 0.83 0.85 0.89 0.96 1.03 1.05 0.99 0.99 1.01 1.11 1.12 1.32 1.28 1.08 0.96
1.03 0.91 0.87 0.79 0.70 0.71 0.69 0.60 0.59 0.59 0.57 0.52 0.52 0.50 0.45 0.40 0.40 0.38 0.35 0.36 0.42 0.59 0.72 0.85 0.99 1.11 1.17 1.20 1.24 1.23 1.14 1.07 1.09 1.12 1.09 1.09 1.15 1.11 1.17 1.20 1.22 1.30 1.27 1.26 1.19 1.38 1.49 1.29 1.23
0.73 0.72 0.73 0.62 0.56 0.58 0.51 0.45 0.48 0.50 0.51 0.45 0.45 0.45 0.38 0.35 0.38 0.36 0.31 0.33 0.36 0.47 0.58 0.75 1.10 1.52 1.70 1.59 1.54 1.59 1.69 1.67 1.57 1.55 1.51 1.56 1.55 1.55 1.59 1.56 1.55 1.51 1.47 1.52 1.51 1.75 2.09 1.64 1.41
0.68 0.74 0.75 0.64 0.48 0.46 0.45 0.39 0.38 0.41 0.44 0.40 0.37 0.39 0.36 0.33 0.29 0.27 0.23 0.26 0.31 0.48 0.63 0.75 1.04 1.49 1.68 1.78 1.89 2.10 2.27 2.15 2.02 2.00 1.95 2.02 2.03 2.19 2.16 2.14 2.12 2.03 2.02 2.00 1.92 2.01 2.30 1.96 1.74
0.67 0.70 0.70 0.61 0.47 0.41 0.39 0.40 0.35 0.38 0.35 0.33 0.33 0.35 0.31 0.25 0.23 0.24 0.22 0.25 0.30 0.42 0.54 0.68 0.88 1.17 1.52 1.78 2.04 2.32 2.53 2.50 2.38 2.22 2.19 2.25 2.31 2.47 2.61 2.60 2.64 2.46 2.32 2.33 2.25 2.21 2.35 2.41 2.16
0.69 0.48 0.44 0.43 0.54 0.55 0.41 0.59 0.40 0.40 0.38 0.34 0.33 0.33 0.31 0.27 0.25 0.28 0.25 0.25 0.29 0.37 0.46 0.62 0.81 1.04 1.29 1.52 1.93 2.36 2.65 2.74 2.64 2.54 2.49 2.45 2.47 2.52 2.74 2.78 2.88 2.72 2.60 2.54 2.46 2.28 2.38 2.67 2.60
0.51 0.40 0.39 0.41 0.48 0.45 0.32 0.43 0.41 0.33 0.37 0.33 0.31 0.30 0.29 0.27 0.28 0.30 0.30 0.33 0.36 0.37 0.43 0.56 0.72 0.94 1.20 1.43 1.78 2.17 2.44 2.65 2.80 2.62 2.49 2.51 2.54 2.57 2.69 2.84 2.95 2.81 2.68 2.60 2.70 2.58 2.53 2.46 2.44
0.40 0.42 0.40 0.40 0.45 0.50 0.25 0.37 0.48 0.33 0.29 0.30 0.27 0.26 0.27 0.29 0.33 0.38 0.47 0.51 0.50 0.44 0.49 0.59 0.69 0.84 1.02 1.17 1.38 1.61 1.93 2.19 2.53 2.52 2.45 2.57 2.55 2.48 2.41 2.57 2.80 2.74 2.72 2.72 2.80 2.84 2.78 2.76 2.76
0.38 0.55 0.69 0.68 0.65 0.45 0.20 0.34 0.49 0.35 0.27 0.28 0.28 0.28 0.28 0.31 0.36 0.44 0.58 0.63 0.64 0.56 0.52 0.55 0.69 0.78 0.85 0.96 1.06 1.20 1.45 1.61 1.98 2.28 2.26 2.19 2.24 2.30 2.36 2.40 2.40 2.41 2.49 2.63 2.85 2.82 2.72 2.70 2.80
0.31 0.49 0.75 0.83 0.72 0.48 0.34 0.51 0.55 0.39 0.32 0.29 0.27 0.30 0.35 0.38 0.43 0.60 0.76 0.78 0.77 0.69 0.60 0.59 0.71 0.78 0.81 0.87 0.90 0.99 1.12 1.21 1.37 1.58 1.70 1.73 1.80 2.02 2.14 2.25 2.23 2.24 2.31 2.39 2.52 2.55 2.57 2.54 2.53
0.27 0.33 0.38 0.54 0.51 0.54 0.53 0.62 0.55 0.34 0.32 0.34 0.36 0.40 0.50 0.59 0.63 0.76 0.91 0.93 0.84 0.77 0.69 0.67 0.73 0.85 0.87 0.88 0.91 0.99 1.03 1.03 1.13 1.16 1.30 1.49 1.53 1.59 1.73 1.84 1.95 2.07 2.12 2.19 2.35 2.42 2.41 2.43 2.42
0.19 0.25 0.40 0.59 0.73 0.74 0.61 0.63 0.59 0.45 0.44 0.43 0.48 0.54 0.66 0.76 0.83 0.91 1.06 1.07 0.92 0.80 0.70 0.68 0.72 0.85 1.04 1.15 1.11 1.06 1.12 1.19 1.40 1.43 1.29 1.27 1.43 1.49 1.53 1.59 1.67 1.83 1.96 2.05 2.14 2.25 2.35 2.35 2.35
0.23 0.33 0.47 0.61 0.63 0.86 0.95 0.85 0.67 0.64 0.65 0.66 0.67 0.73 0.82 0.93 0.94 0.92 1.01 1.07 0.96 0.77 0.69 0.64 0.66 0.77 0.92 0.96 1.01 1.00 1.05 1.15 1.42 1.65 1.60 1.42 1.41 1.43 1.40 1.35 1.43 1.58 1.71 1.82 1.95 2.01 2.02 2.05 2.18
0.31 0.43 0.63 0.92 0.88 0.81 0.98 0.96 0.72 0.65 0.69 0.69 0.68 0.67 0.72 0.85 0.86 0.89 0.93 0.88 0.79 0.64 0.56 0.53 0.53 0.66 0.78 0.78 0.83 0.91 0.92 1.02 1.14 1.26 1.28 1.23 1.14 1.12 1.17 1.22 1.24 1.32 1.49 1.61 1.66 1.68 1.71 1.78 1.91

GEFSSGP_prec_meanprecacc_222.txt.gz
Total_Precipitation_Accumulation
0.90 1.11 1.62 2.28 2.90 2.24 1.60 1.30 0.97 0.86 0.75 0.64 0.58 0.62 0.75 0.91 1.36 2.05 2.17 1.90 1.36 1.17 1.46 1.93 2.08 1.98 1.73 1.53 1.54 1.67 1.68 1.78 1.69 1.49 1.32 1.12 0.98 0.85 0.90 0.89 0.87 0.83 0.71 0.75 0.82 0.79 0.74 0.69 0.59
0.89 1.65 2.21 3.01 2.83 1.79 1.53 1.31 1.11 0.79 0.62 0.48 0.40 0.53 0.67 0.63 0.77 1.48 2.19 2.09 1.29 1.02 1.18 1.50 1.72 1.72 1.64 1.57 1.59 1.66 1.62 1.52 1.38 1.21 1.06 0.97 0.96 0.87 0.81 0.83 0.85 0.78 0.70 0.73 0.76 0.83 0.77 0.67 0.55
1.05 1.89 2.47 2.75 1.99 1.53 1.48 1.25 1.02 0.72 0.57 0.48 0.38 0.40 0.59 0.84 1.04 1.72 1.98 1.40 1.08 0.93 1.16 1.45 1.62 1.55 1.53 1.50 1.55 1.56 1.49 1.34 1.21 1.12 1.03 0.94 0.93 0.91 0.88 0.86 0.87 0.77 0.67 0.61 0.70 0.76 0.69 0.63 0.54
1.40 2.20 2.45 2.08 1.55 1.18 1.06 1.07 0.83 0.69 0.50 0.36 0.36 0.48 0.63 1.00 1.24 1.61 1.54 1.12 0.98 0.96 1.22 1.36 1.49 1.46 1.41 1.47 1.48 1.33 1.14 1.07 1.17 1.15 1.04 0.97 0.91 0.89 0.88 0.84 0.76 0.65 0.61 0.61 0.67 0.70 0.66 0.63 0.54
1.75 2.37 2.32 1.75 1.38 1.16 0.96 0.86 0.71 0.64 0.54 0.41 0.36 0.65 1.02 1.24 1.29 1.32 1.28 1.07 1.03 1.21 1.44 1.35 1.41 1.41 1.33 1.32 1.31 1.16 1.11 1.14 1.30 1.26 1.15 1.09 0.96 0.89 0.87 0.78 0.64 0.55 0.57 0.64 0.78 0.79 0.62 0.57 0.55
2.19 2.34 2.53 1.90 1.46 1.25 1.11 0.85 0.65 0.55 0.49 0.41 0.41 0.69 1.20 1.45 1.42 1.41 1.35 1.25 1.17 1.22 1.34 1.34 1.44 1.41 1.24 1.13 1.12 1.00 1.02 1.23 1.40 1.35 1.30 1.35 1.10 0.90 0.77 0.70 0.63 0.56 0.54 0.61 0.74 0.76 0.61 0.55 0.59
2.33 2.40 2.14 1.62 1.48 1.59 1.22 0.76 0.66 0.61 0.60 0.46 0.39 0.71 1.24 1.58 1.35 1.20 1.21 1.13 1.11 1.15 1.17 1.10 1.14 1.21 1.12 1.06 1.09 1.05 1.08 1.18 1.30 1.23 1.22 1.21 0.92 0.71 0.63 0.63 0.62 0.59 0.62 0.68 0.70 0.74 0.66 0.63 0.65
1.62 1.74 1.69 1.56 1.57 1.57 1.08 0.67 0.56 0.52 0.57 0.40 0.35 0.63 1.15 1.31 1.12 1.14 1.12 1.09 1.09 1.09 1.05 0.90 0.93 1.12 1.22 1.14 1.13 1.19 1.21 1.17 1.24 1.11 1.06 0.99 0.71 0.56 0.56 0.55 0.54 0.54 0.60 0.68 0.72 0.74 0.69 0.67 0.67
1.50 1.72 1.90 1.82 1.55 1.37 0.99 0.76 0.55 0.40 0.43 0.37 0.32 0.39 0.58 0.76 0.88 1.02 1.09 1.06 1.16 1.05 0.95 0.88 0.79 0.84 1.03 1.15 1.11 1.29 1.34 1.27 1.13 1.04 1.03 0.91 0.63 0.53 0.53 0.50 0.61 0.63 0.70 0.76 0.78 0.75 0.67 0.63 0.58
1.48 1.78 1.86 1.39 1.08 1.02 0.93 0.79 0.62 0.57 0.59 0.50 0.44 0.42 0.47 0.63 0.78 0.84 0.89 0.93 1.01 0.99 0.83 0.79 0.73 0.67 0.67 0.74 1.04 1.41 1.24 1.15 0.93 0.90 0.85 0.84 0.77 0.72 0.56 0.57 0.74 0.79 0.82 0.82 0.80 0.77 0.64 0.50 0.42
1.21 1.30 1.21 1.14 0.83 0.71 0.83 0.78 0.58 0.61 0.69 0.52 0.50 0.47 0.48 0.57 0.61 0.64 0.72 0.75 0.78 0.86 0.81 0.72 0.65 0.58 0.58 0.70 0.82 1.03 1.10 1.08 0.93 0.80 0.78 0.85 0.80 0.70 0.60 0.53 0.60 0.71 0.79 0.72 0.69 0.67 0.52 0.46 0.48
1.07 0.99 0.86 0.83 0.66 0.67 0.85 0.72 0.59 0.66 0.61 0.39 0.34 0.38 0.48 0.55 0.53 0.51 0.60 0.74 0.80 0.83 0.83 0.77 0.68 0.63 0.59 0.59 0.57 0.66 0.71 0.75 0.73 0.65 0.66 0.79 0.75 0.70 0.67 0.67 0.63 0.64 0.68 0.74 0.71 0.67 0.58 0.53 0.53
0.98 0.92 0.74 0.61 0.65 0.68 0.75 0.76 0.64 0.62 0.49 0.40 0.35 0.45 0.51 0.50 0.48 0.49 0.56 0.67 0.72 0.77 0.83 0.81 0.71 0.65 0.60 0.56 0.52 0.49 0.58 0.61 0.62 0.66 0.63 0.66 0.71 0.70 0.68 0.65 0.71 0.72 0.70 0.73 0.72 0.64 0.59 0.57 0.53
0.93 0.87 0.80 0.66 0.67 0.69 0.75 0.77 0.70 0.73 0.56 0.45 0.38 0.44 0.46 0.48 0.48 0.50 0.54 0.64 0.66 0.67 0.80 0.83 0.76 0.72 0.67 0.60 0.56 0.54 0.59 0.64 0.62 0.55 0.53 0.58 0.61 0.63 0.73 0.77 0.78 0.79 0.79 0.85 0.84 0.65 0.65 0.68 0.62
0.82 0.88 0.87 0.79 0.78 0.76 0.78 0.95 0.86 0.78 0.65 0.61 0.48 0.41 0.44 0.44 0.44 0.50 0.51 0.57 0.63 0.71 0.84 0.83 0.80 0.88 0.80 0.71 0.70 0.62 0.65 0.65 0.63 0.63 0.62 0.65 0.67 0.69 0.79 0.87 0.89 0.87 0.85 0.87 1.09 0.98 0.74 0.70 0.66
0.95 1.05 1.20 0.86 0.77 0.81 0.93 1.11 0.83 0.80 0.76 0.78 0.61 0.50 0.47 0.45 0.43 0.42 0.44 0.55 0.59 0.73 0.83 0.94 0.84 0.92 0.88 0.83 0.82 0.77 0.77 0.78 0.73 0.71 0.73 0.73 0.77 0.80 0.89 0.95 0.86 0.92 0.99 1.02 1.18 1.24 0.95 0.77 0.76
1.10 1.17 1.16 0.92 0.70 0.73 0.83 0.92 0.76 0.72 0.67 0.66 0.60 0.54 0.55 0.43 0.41 0.38 0.39 0.45 0.52 0.67 0.78 0.93 0.96 0.93 0.97 0.98 1.00 0.96 0.92 0.93 0.89 0.88 0.83 0.85 0.89 0.96 1.03 1.05 0.99 0.99 1.01 1.11 1.12 1.32 1.28 1.08 0.97
1.05 0.93 0.89 0.81 0.71 0.71 0.71 0.62 0.60 0.60 0.60 0.55 0.54 0.51 0.46 0.40 0.40 0.39 0.35 0.36 0.42 0.59 0.72 0.86 1.01 1.12 1.18 1.20 1.25 1.24 1.15 1.07 1.10 1.12 1.09 1.10 1.15 1.11 1.17 1.20 1.22 1.30 1.28 1.27 1.19 1.38 1.49 1.29 1.23
0.73 0.72 0.73 0.63 0.57 0.59 0.53 0.46 0.49 0.52 0.54 0.47 0.48 0.48 0.39 0.35 0.38 0.36 0.31 0.33 0.36 0.47 0.59 0.75 1.11 1.53 1.71 1.59 1.55 1.60 1.69 1.67 1.58 1.55 1.51 1.56 1.55 1.55 1.59 1.56 1.55 1.51 1.47 1.52 1.51 1.75 2.10 1.64 1.42
0.68 0.74 0.75 0.65 0.48 0.47 0.46 0.39 0.39 0.43 0.47 0.41 0.39 0.42 0.38 0.33 0.30 0.27 0.23 0.26 0.31 0.48 0.63 0.75 1.05 1.49 1.68 1.78 1.90 2.11 2.28 2.16 2.02 2.01 1.95 2.02 2.04 2.19 2.16 2.14 2.13 2.03 2.02 2.00 1.93 2.03 2.32 1.98 1.75
0.68 0.71 0.70 0.62 0.48 0.42 0.41 0.42 0.36 0.40 0.36 0.34 0.35 0.37 0.32 0.26 0.24 0.24 0.22 0.25 0.30 0.42 0.54 0.68 0.88 1.17 1.53 1.78 2.04 2.32 2.54 2.51 2.38 2.22 2.20 2.25 2.31 2.47 2.61 2.61 2.64 2.46 2.33 2.34 2.26 2.22 2.37 2.44 2.18
0.70 0.48 0.44 0.44 0.56 0.57 0.43 0.62 0.43 0.42 0.39 0.34 0.35 0.35 0.33 0.27 0.25 0.28 0.25 0.25 0.29 0.37 0.47 0.62 0.81 1.04 1.30 1.54 1.94 2.37 2.66 2.74 2.65 2.54 2.49 2.45 2.47 2.52 2.74 2.79 2.90 2.73 2.60 2.55 2.46 2.28 2.39 2.69 2.63
0.52 0.40 0.39 0.41 0.50 0.46 0.33 0.45 0.43 0.35 0.37 0.34 0.32 0.31 0.30 0.28 0.28 0.30 0.30 0.33 0.36 0.38 0.43 0.57 0.72 0.94 1.21 1.43 1.78 2.18 2.45 2.66 2.80 2.63 2.49 2.51 2.54 2.57 2.70 2.84 2.95 2.82 2.68 2.61 2.70 2.59 2.54 2.47 2.46
0.40 0.42 0.41 0.42 0.48 0.53 0.26 0.38 0.49 0.34 0.30 0.30 0.28 0.26 0.27 0.30 0.34 0.38 0.47 0.51 0.50 0.44 0.49 0.60 0.69 0.85 1.03 1.17 1.39 1.62 1.94 2.20 2.53 2.52 2.45 2.57 2.55 2.48 2.41 2.57 2.80 2.74 2.72 2.73 2.81 2.85 2.78 2.77 2.77
0.38 0.58 0.73 0.73 0.70 0.48 0.21 0.35 0.50 0.35 0.27 0.28 0.29 0.28 0.28 0.31 0.36 0.44 0.58 0.63 0.65 0.56 0.52 0.55 0.70 0.79 0.87 0.97 1.06 1.21 1.46 1.62 1.98 2.29 2.26 2.19 2.24 2.30 2.36 2.40 2.40 2.41 2.49 2.63 2.86 2.83 2.72 2.71 2.81
0.32 0.51 0.80 0.88 0.77 0.50 0.35 0.52 0.56 0.40 0.32 0.29 0.27 0.30 0.35 0.38 0.44 0.60 0.77 0.79 0.78 0.69 0.60 0.60 0.71 0.80 0.84 0.89 0.91 1.00 1.13 1.22 1.38 1.59 1.70 1.73 1.80 2.02 2.14 2.25 2.23 2.24 2.31 2.39 2.52 2.56 2.58 2.54 2.53
0.28 0.34 0.39 0.56 0.54 0.56 0.54 0.63 0.55 0.35 0.33 0.34 0.36 0.40 0.50 0.59 0.63 0.76 0.91 0.94 0.85 0.77 0.69 0.67 0.74 0.87 0.88 0.90 0.93 1.01 1.04 1.04 1.14 1.17 1.31 1.49 1.53 1.59 1.73 1.84 1.95 2.07 2.12 2.20 2.35 2.43 2.41 2.44 2.43
0.19 0.25 0.41 0.61 0.77 0.79 0.64 0.65 0.61 0.46 0.45 0.43 0.48 0.54 0.66 0.76 0.83 0.92 1.07 1.08 0.92 0.80 0.70 0.68 0.73 0.86 1.04 1.16 1.13 1.10 1.14 1.21 1.42 1.45 1.30 1.28 1.43 1.49 1.54 1.59 1.67 1.83 1.96 2.05 2.14 2.25 2.35 2.35 2.36
0.24 0.34 0.48 0.64 0.65 0.90 1.01 0.89 0.68 0.64 0.65 0.66 0.68 0.73 0.82 0.94 0.95 0.93 1.02 1.08 0.96 0.77 0.69 0.64 0.67 0.77 0.93 0.97 1.03 1.01 1.07 1.18 1.45 1.67 1.61 1.43 1.42 1.44 1.40 1.35 1.43 1.58 1.71 1.82 1.95 2.01 2.02 2.05 2.19
0.32 0.44 0.64 0.96 0.90 0.83 1.01 0.99 0.72 0.65 0.69 0.70 0.69 0.68 0.74 0.86 0.87 0.90 0.94 0.89 0.80 0.65 0.57 0.53 0.54 0.66 0.79 0.79 0.84 0.91 0.93 1.04 1.17 1.28 1.30 1.24 1.15 1.12 1.18 1.22 1.24 1.32 1.49 1.61 1.66 1.68 1.71 1.78 1.91

GEFSSGP_prec_meanprecacc_228.txt.gz
Total_Precipitation_Accumulation
0.91 1.13 1.66 2.33 2.94 2.30 1.66 1.36 1.03 0.90 0.78 0.67 0.61 0.64 0.78 0.95 1.41 2.11 2.25 1.99 1.40 1.23 1.59 2.14 2.21 2.04 1.78 1.56 1.58 1.70 1.72 1.83 1.73 1.52 1.35 1.14 1.01 0.89 0.92 0.92 0.91 0.85 0.74 0.77 0.83 0.80 0.76 0.71 0.61
0.90 1.68 2.24 3.06 2.88 1.86 1.61 1.39 1.15 0.81 0.64 0.49 0.42 0.54 0.70 0.66 0.81 1.53 2.24 2.14 1.32 1.09 1.34 1.67 1.81 1.78 1.66 1.59 1.62 1.69 1.66 1.59 1.47 1.27 1.09 0.99 0.98 0.90 0.84 0.87 0.90 0.83 0.73 0.74 0.77 0.84 0.78 0.69 0.57
1.06 1.91 2.50 2.79 2.05 1.62 1.57 1.33 1.08 0.75 0.58 0.48 0.40 0.42 0.63 0.88 1.08 1.75 2.01 1.42 1.10 0.95 1.24 1.57 1.72 1.62 1.57 1.52 1.57 1.59 1.52 1.38 1.29 1.18 1.06 0.96 0.94 0.93 0.92 0.90 0.91 0.81 0.69 0.62 0.71 0.77 0.70 0.64 0.55
1.41 2.21 2.47 2.13 1.60 1.26 1.13 1.12 0.88 0.71 0.50 0.37 0.37 0.51 0.67 1.06 1.29 1.63 1.58 1.14 0.99 0.98 1.25 1.42 1.60 1.55 1.45 1.49 1.50 1.36 1.17 1.12 1.23 1.20 1.08 1.00 0.93 0.90 0.90 0.87 0.80 0.68 0.62 0.62 0.68 0.71 0.66 0.64 0.55
1.76 2.39 2.35 1.79 1.44 1.22 1.00 0.88 0.72 0.64 0.54 0.42 0.37 0.67 1.07 1.30 1.36 1.36 1.33 1.10 1.04 1.22 1.46 1.38 1.48 1.46 1.38 1.35 1.32 1.18 1.13 1.18 1.35 1.31 1.20 1.12 0.98 0.91 0.89 0.81 0.68 0.56 0.58 0.64 0.78 0.80 0.63 0.58 0.55
2.20 2.35 2.55 1.94 1.52 1.29 1.14 0.85 0.65 0.55 0.49 0.41 0.42 0.70 1.23 1.52 1.49 1.47 1.40 1.29 1.21 1.24 1.35 1.36 1.48 1.44 1.29 1.17 1.14 1.02 1.05 1.27 1.43 1.36 1.32 1.36 1.11 0.91 0.78 0.73 0.68 0.57 0.54 0.62 0.75 0.77 0.62 0.56 0.60
2.34 2.42 2.16 1.65 1.51 1.62 1.25 0.77 0.66 0.62 0.60 0.46 0.39 0.72 1.28 1.64 1.41 1.23 1.25 1.17 1.16 1.16 1.19 1.11 1.16 1.22 1.14 1.09 1.13 1.09 1.12 1.22 1.33 1.26 1.24 1.23 0.94 0.72 0.64 0.65 0.65 0.61 0.64 0.69 0.72 0.75 0.68 0.65 0.66
1.64 1.75 1.70 1.58 1.60 1.61 1.11 0.67 0.57 0.52 0.58 0.40 0.36 0.64 1.18 1.37 1.17 1.17 1.14 1.12 1.12 1.10 1.05 0.90 0.93 1.12 1.22 1.16 1.16 1.22 1.24 1.20 1.27 1.15 1.09 1.01 0.73 0.57 0.57 0.56 0.56 0.56 0.61 0.70 0.74 0.76 0.71 0.68 0.68
1.51 1.73 1.91 1.84 1.56 1.39 1.00 0.77 0.55 0.40 0.43 0.37 0.33 0.39 0.59 0.81 0.92 1.04 1.11 1.10 1.20 1.07 0.96 0.89 0.79 0.84 1.03 1.15 1.12 1.30 1.36 1.29 1.16 1.07 1.05 0.92 0.64 0.54 0.54 0.51 0.63 0.64 0.71 0.77 0.79 0.76 0.69 0.64 0.59
1.49 1.79 1.87 1.41 1.08 1.02 0.94 0.80 0.63 0.58 0.60 0.51 0.44 0.42 0.48 0.64 0.80 0.86 0.91 0.97 1.04 1.02 0.85 0.80 0.73 0.67 0.67 0.75 1.04 1.41 1.24 1.15 0.94 0.91 0.86 0.84 0.77 0.72 0.56 0.58 0.76 0.81 0.83 0.83 0.81 0.78 0.65 0.51 0.43
1.23 1.31 1.23 1.15 0.84 0.71 0.84 0.79 0.60 0.63 0.71 0.53 0.50 0.48 0.49 0.58 0.63 0.66 0.74 0.78 0.80 0.87 0.81 0.72 0.66 0.59 0.58 0.70 0.82 1.04 1.10 1.08 0.94 0.80 0.78 0.85 0.80 0.71 0.60 0.54 0.60 0.72 0.80 0.72 0.70 0.68 0.53 0.47 0.49
1.08 1.00 0.87 0.83 0.66 0.67 0.86 0.73 0.61 0.68 0.64 0.41 0.34 0.38 0.49 0.56 0.54 0.52 0.62 0.76 0.81 0.84 0.84 0.78 0.68 0.63 0.60 0.59 0.58 0.67 0.72 0.76 0.74 0.66 0.66 0.79 0.75 0.70 0.67 0.67 0.63 0.65 0.69 0.75 0.72 0.68 0.60 0.55 0.55
0.99 0.93 0.75 0.61 0.65 0.69 0.75 0.77 0.66 0.65 0.53 0.42 0.36 0.46 0.52 0.52 0.49 0.50 0.57 0.69 0.74 0.77 0.83 0.82 0.73 0.66 0.60 0.56 0.53 0.51 0.59 0.63 0.64 0.67 0.63 0.66 0.71 0.70 0.68 0.65 0.71 0.73 0.71 0.74 0.73 0.65 0.60 0.59 0.56
0.93 0.87 0.80 0.66 0.67 0.70 0.75 0.78 0.72 0.77 0.59 0.48 0.40 0.46 0.48 0.50 0.49 0.51 0.55 0.64 0.67 0.68 0.81 0.85 0.78 0.74 0.68 0.61 0.57 0.55 0.60 0.65 0.63 0.55 0.53 0.59 0.61 0.63 0.73 0.77 0.78 0.79 0.79 0.86 0.84 0.66 0.66 0.70 0.64
0.83 0.89 0.87 0.79 0.78 0.76 0.78 0.96 0.87 0.80 0.69 0.65 0.53 0.44 0.46 0.45 0.45 0.50 0.51 0.58 0.64 0.72 0.85 0.85 0.82 0.91 0.82 0.72 0.71 0.63 0.66 0.67 0.64 0.64 0.62 0.66 0.67 0.69 0.79 0.87 0.89 0.88 0.85 0.87 1.10 0.98 0.75 0.71 0.67
0.95 1.05 1.20 0.86 0.77 0.81 0.94 1.12 0.84 0.82 0.79 0.84 0.66 0.54 0.49 0.46 0.44 0.43 0.44 0.55 0.60 0.75 0.84 0.94 0.85 0.93 0.89 0.84 0.84 0.78 0.78 0.80 0.74 0.73 0.74 0.74 0.78 0.80 0.89 0.95 0.86 0.92 0.99 1.02 1.18 1.25 0.95 0.78 0.76
1.11 1.19 1.17 0.92 0.70 0.73 0.83 0.92 0.77 0.73 0.68 0.69 0.65 0.58 0.57 0.45 0.41 0.39 0.40 0.46 0.52 0.67 0.79 0.94 0.96 0.94 0.98 1.00 1.03 0.98 0.94 0.94 0.90 0.89 0.84 0.85 0.89 0.96 1.03 1.05 0.99 0.99 1.01 1.12 1.12 1.33 1.28 1.09 0.97
1.05 0.94 0.90 0.81 0.71 0.71 0.72 0.63 0.61 0.61 0.61 0.56 0.57 0.53 0.48 0.41 0.41 0.39 0.36 0.37 0.42 0.59 0.73 0.86 1.01 1.12 1.19 1.22 1.27 1.26 1.17 1.09 1.11 1.13 1.09 1.10 1.15 1.12 1.17 1.20 1.22 1.30 1.28 1.27 1.19 1.38 1.49 1.29 1.24
0.74 0.72 0.74 0.63 0.57 0.59 0.54 0.48 0.52 0.54 0.56 0.48 0.50 0.49 0.41 0.36 0.39 0.37 0.32 0.33 0.36 0.47 0.59 0.75 1.11 1.54 1.71 1.60 1.56 1.60 1.71 1.68 1.59 1.55 1.52 1.56 1.56 1.55 1.59 1.56 1.55 1.51 1.47 1.52 1.51 1.75 2.10 1.64 1.42
0.68 0.74 0.76 0.66 0.48 0.48 0.47 0.41 0.42 0.47 0.48 0.43 0.41 0.43 0.39 0.34 0.30 0.28 0.24 0.27 0.31 0.48 0.63 0.75 1.05 1.49 1.68 1.79 1.90 2.11 2.29 2.16 2.03 2.01 1.95 2.02 2.04 2.19 2.16 2.14 2.13 2.03 2.02 2.00 1.93 2.03 2.32 1.98 1.75
0.68 0.71 0.70 0.63 0.49 0.44 0.42 0.44 0.38 0.43 0.38 0.36 0.36 0.38 0.33 0.27 0.24 0.25 0.22 0.25 0.30 0.42 0.55 0.69 0.88 1.17 1.53 1.79 2.04 2.32 2.55 2.51 2.39 2.23 2.20 2.26 2.31 2.47 2.61 2.61 2.65 2.46 2.33 2.34 2.26 2.22 2.37 2.44 2.18
0.70 0.48 0.44 0.44 0.57 0.58 0.44 0.64 0.45 0.44 0.41 0.36 0.36 0.35 0.34 0.29 0.28 0.30 0.27 0.27 0.30 0.37 0.47 0.62 0.81 1.04 1.30 1.54 1.94 2.37 2.66 2.75 2.65 2.54 2.50 2.46 2.47 2.52 2.74 2.79 2.90 2.73 2.60 2.55 2.47 2.28 2.39 2.69 2.63
0.52 0.40 0.40 0.42 0.52 0.48 0.34 0.46 0.45 0.38 0.39 0.35 0.33 0.31 0.30 0.29 0.30 0.34 0.34 0.35 0.37 0.39 0.44 0.57 0.72 0.95 1.21 1.44 1.78 2.18 2.45 2.66 2.80 2.63 2.50 2.52 2.54 2.57 2.70 2.84 2.96 2.82 2.69 2.61 2.70 2.59 2.54 2.47 2.46
0.40 0.43 0.42 0.44 0.50 0.54 0.27 0.39 0.50 0.36 0.32 0.32 0.29 0.26 0.28 0.30 0.35 0.39 0.49 0.53 0.52 0.46 0.50 0.60 0.69 0.86 1.04 1.18 1.39 1.62 1.94 2.20 2.53 2.52 2.45 2.57 2.56 2.48 2.41 2.57 2.80 2.74 2.72 2.73 2.81 2.85 2.79 2.77 2.77
0.40 0.60 0.76 0.76 0.72 0.49 0.21 0.36 0.50 0.36 0.28 0.29 0.30 0.28 0.29 0.32 0.37 0.45 0.60 0.65 0.66 0.57 0.53 0.56 0.70 0.80 0.88 0.98 1.07 1.22 1.46 1.63 1.98 2.29 2.27 2.19 2.25 2.30 2.36 2.40 2.40 2.41 2.49 2.63 2.86 2.83 2.72 2.71 2.81
0.33 0.52 0.81 0.91 0.80 0.51 0.36 0.53 0.57 0.41 0.33 0.29 0.29 0.31 0.35 0.39 0.45 0.61 0.78 0.80 0.80 0.70 0.61 0.60 0.72 0.81 0.84 0.90 0.92 1.01 1.14 1.23 1.39 1.60 1.70 1.74 1.80 2.03 2.14 2.25 2.23 2.24 2.31 2.39 2.52 2.56 2.58 2.54 2.53
0.29 0.34 0.40 0.58 0.56 0.57 0.55 0.64 0.57 0.38 0.35 0.35 0.38 0.42 0.51 0.59 0.64 0.77 0.92 0.96 0.87 0.78 0.69 0.68 0.75 0.87 0.88 0.91 0.94 1.03 1.06 1.06 1.15 1.18 1.32 1.50 1.54 1.60 1.73 1.84 1.95 2.07 2.12 2.20 2.35 2.43 2.41 2.44 2.43
0.20 0.26 0.42 0.63 0.80 0.82 0.65 0.67 0.63 0.50 0.47 0.44 0.50 0.55 0.67 0.77 0.84 0.93 1.08 1.10 0.94 0.81 0.71 0.69 0.74 0.87 1.06 1.18 1.14 1.11 1.17 1.23 1.44 1.46 1.31 1.29 1.44 1.50 1.54 1.59 1.67 1.83 1.96 2.05 2.14 2.25 2.35 2.35 2.36
0.24 0.35 0.49 0.66 0.68 0.93 1.04 0.96 0.74 0.67 0.66 0.68 0.71 0.76 0.83 0.95 0.96 0.94 1.04 1.10 0.98 0.79 0.70 0.65 0.68 0.78 0.93 0.98 1.03 1.02 1.09 1.20 1.47 1.69 1.63 1.44 1.43 1.44 1.41 1.35 1.43 1.58 1.71 1.82 1.95 2.01 2.02 2.05 2.19
0.33 0.45 0.66 0.99 0.94 0.86 1.05 1.04 0.75 0.67 0.70 0.71 0.71 0.70 0.75 0.87 0.88 0.92 0.95 0.91 0.82 0.67 0.58 0.55 0.56 0.67 0.79 0.79 0.84 0.92 0.94 1.04 1.18 1.29 1.31 1.25 1.16 1.13 1.18 1.23 1.24 1.32 1.49 1.61 1.66 1.68 1.71 1.78 1.91

GEFSSGP_prec_meanprecacc_234.txt.gz
Total_Precipitation_Accumulation
0.95 1.16 1.68 2.35 2.97 2.31 1.68 1.39 1.06 0.94 0.83 0.71 0.64 0.66 0.79 0.97 1.43 2.14 2.29 2.01 1.42 1.26 1.65 2.25 2.32 2.13 1.85 1.61 1.64 1.76 1.75 1.86 1.77 1.55 1.39 1.18 1.06 0.93 0.95 0.95 0.93 0.87 0.76 0.79 0.85 0.82 0.78 0.74 0.65
0.93 1.70 2.25 3.07 2.90 1.87 1.62 1.40 1.18 0.85 0.68 0.53 0.44 0.56 0.72 0.69 0.83 1.57 2.29 2.17 1.34 1.13 1.42 1.80 1.94 1.88 1.73 1.64 1.66 1.75 1.71 1.63 1.51 1.30 1.12 1.03 1.02 0.94 0.88 0.91 0.93 0.85 0.75 0.75 0.79 0.85 0.80 0.72 0.60
1.07 1.92 2.50 2.80 2.06 1.62 1.58 1.35 1.10 0.78 0.61 0.50 0.41 0.44 0.65 0.91 1.11 1.80 2.06 1.45 1.13 0.97 1.31 1.70 1.83 1.70 1.64 1.56 1.60 1.62 1.61 1.49 1.39 1.27 1.11 1.01 0.99 0.97 0.97 0.95 0.94 0.84 0.71 0.64 0.73 0.79 0.73 0.67 0.57
1.42 2.22 2.47 2.13 1.61 1.27 1.14 1.14 0.90 0.73 0.52 0.37 0.37 0.51 0.68 1.09 1.33 1.68 1.62 1.16 1.02 1.00 1.29 1.54 1.72 1.62 1.51 1.52 1.51 1.38 1.20 1.18 1.32 1.30 1.14 1.03 0.96 0.94 0.95 0.91 0.82 0.69 0.64 0.64 0.69 0.72 0.68 0.66 0.56
1.77 2.39 2.35 1.80 1.46 1.23 1.01 0.89 0.73 0.65 0.55 0.42 0.37 0.68 1.09 1.33 1.41 1.41 1.37 1.12 1.07 1.24 1.50 1.44 1.56 1.50 1.40 1.36 1.34 1.19 1.14 1.21 1.39 1.37 1.25 1.15 1.01 0.94 0.92 0.84 0.70 0.58 0.59 0.65 0.79 0.81 0.64 0.59 0.57
2.21 2.35 2.55 1.95 1.53 1.30 1.15 0.87 0.66 0.56 0.50 0.41 0.42 0.70 1.25 1.55 1.53 1.51 1.44 1.32 1.25 1.27 1.38 1.40 1.52 1.46 1.31 1.18 1.15 1.02 1.06 1.28 1.45 1.39 1.35 1.39 1.14 0.95 0.82 0.75 0.69 0.59 0.55 0.63 0.76 0.79 0.64 0.58 0.63
2.35 2.42 2.16 1.66 1.52 1.63 1.27 0.79 0.67 0.63 0.60 0.47 0.39 0.72 1.29 1.67 1.44 1.26 1.27 1.20 1.18 1.19 1.20 1.13 1.18 1.24 1.15 1.10 1.15 1.10 1.15 1.27 1.36 1.28 1.26 1.25 0.97 0.75 0.66 0.68 0.68 0.63 0.65 0.71 0.73 0.77 0.70 0.68 0.70
1.64 1.76 1.70 1.59 1.61 1.61 1.11 0.69 0.57 0.53 0.58 0.40 0.36 0.64 1.19 1.39 1.19 1.19 1.16 1.15 1.15 1.12 1.06 0.92 0.95 1.13 1.23 1.17 1.18 1.24 1.27 1.24 1.32 1.19 1.12 1.03 0.75 0.60 0.60 0.58 0.59 0.58 0.63 0.72 0.76 0.78 0.72 0.70 0.70
1.51 1.73 1.92 1.84 1.57 1.40 1.01 0.78 0.55 0.40 0.43 0.37 0.33 0.39 0.59 0.81 0.93 1.06 1.12 1.11 1.23 1.09 0.96 0.89 0.80 0.85 1.04 1.16 1.14 1.32 1.38 1.33 1.20 1.11 1.08 0.94 0.64 0.54 0.55 0.53 0.66 0.66 0.73 0.79 0.81 0.78 0.71 0.66 0.61
1.49 1.79 1.88 1.41 1.09 1.02 0.94 0.81 0.63 0.58 0.60 0.51 0.44 0.43 0.48 0.64 0.81 0.88 0.93 0.98 1.05 1.03 0.86 0.80 0.73 0.67 0.67 0.75 1.05 1.42 1.27 1.18 0.96 0.93 0.89 0.86 0.78 0.72 0.57 0.60 0.79 0.84 0.86 0.85 0.83 0.79 0.66 0.51 0.43
1.23 1.31 1.23 1.15 0.84 0.71 0.85 0.80 0.60 0.63 0.71 0.53 0.50 0.48 0.49 0.59 0.63 0.66 0.75 0.81 0.82 0.89 0.82 0.73 0.66 0.59 0.58 0.70 0.83 1.04 1.11 1.09 0.95 0.81 0.80 0.87 0.81 0.71 0.60 0.54 0.62 0.73 0.81 0.73 0.71 0.69 0.53 0.47 0.50
1.08 1.00 0.87 0.84 0.66 0.68 0.86 0.74 0.62 0.69 0.64 0.41 0.35 0.38 0.49 0.56 0.54 0.53 0.63 0.78 0.84 0.86 0.85 0.78 0.69 0.63 0.60 0.59 0.58 0.67 0.73 0.77 0.75 0.67 0.68 0.80 0.76 0.71 0.67 0.67 0.63 0.65 0.69 0.75 0.72 0.68 0.60 0.55 0.56
1.00 0.94 0.75 0.62 0.65 0.69 0.76 0.78 0.67 0.66 0.53 0.43 0.37 0.46 0.52 0.52 0.49 0.50 0.58 0.70 0.76 0.79 0.85 0.83 0.73 0.66 0.60 0.57 0.53 0.51 0.60 0.64 0.65 0.69 0.65 0.68 0.72 0.71 0.68 0.65 0.71 0.73 0.71 0.74 0.73 0.65 0.60 0.60 0.56
0.94 0.88 0.80 0.67 0.67 0.70 0.76 0.79 0.74 0.78 0.60 0.50 0.41 0.46 0.49 0.51 0.50 0.52 0.55 0.65 0.68 0.70 0.82 0.86 0.79 0.75 0.68 0.61 0.57 0.56 0.61 0.67 0.64 0.57 0.54 0.59 0.61 0.63 0.73 0.77 0.78 0.79 0.79 0.86 0.84 0.66 0.66 0.70 0.64
0.83 0.89 0.87 0.80 0.79 0.77 0.80 0.97 0.89 0.81 0.70 0.67 0.55 0.45 0.47 0.46 0.46 0.51 0.52 0.58 0.65 0.73 0.86 0.86 0.82 0.91 0.82 0.73 0.71 0.63 0.67 0.69 0.67 0.67 0.64 0.66 0.67 0.69 0.79 0.87 0.89 0.88 0.85 0.87 1.10 0.98 0.75 0.71 0.67
0.96 1.05 1.20 0.87 0.78 0.81 0.94 1.13 0.85 0.83 0.80 0.85 0.68 0.56 0.51 0.47 0.45 0.44 0.45 0.56 0.60 0.76 0.85 0.95 0.85 0.94 0.91 0.86 0.85 0.79 0.78 0.81 0.78 0.76 0.76 0.75 0.78 0.81 0.89 0.95 0.86 0.92 0.99 1.02 1.18 1.25 0.95 0.78 0.76
1.11 1.19 1.17 0.92 0.71 0.74 0.84 0.93 0.77 0.73 0.70 0.71 0.66 0.59 0.58 0.46 0.42 0.39 0.40 0.46 0.53 0.68 0.79 0.94 0.96 0.94 0.99 1.01 1.04 0.99 0.95 0.95 0.91 0.90 0.85 0.86 0.90 0.97 1.03 1.05 0.99 0.99 1.01 1.12 1.12 1.33 1.29 1.10 0.98
1.05 0.94 0.90 0.81 0.71 0.72 0.73 0.63 0.62 0.61 0.62 0.58 0.58 0.54 0.49 0.42 0.41 0.39 0.36 0.37 0.43 0.59 0.73 0.86 1.01 1.13 1.19 1.22 1.28 1.27 1.17 1.10 1.12 1.14 1.10 1.10 1.16 1.12 1.18 1.20 1.22 1.30 1.28 1.27 1.19 1.38 1.49 1.30 1.24
0.74 0.72 0.74 0.63 0.57 0.60 0.55 0.48 0.52 0.55 0.57 0.50 0.51 0.50 0.41 0.37 0.39 0.37 0.32 0.34 0.36 0.48 0.59 0.76 1.12 1.54 1.71 1.60 1.56 1.61 1.71 1.69 1.59 1.56 1.52 1.57 1.57 1.56 1.60 1.57 1.55 1.51 1.47 1.53 1.51 1.75 2.10 1.65 1.42
0.68 0.74 0.76 0.66 0.48 0.48 0.48 0.42 0.42 0.48 0.49 0.45 0.42 0.44 0.39 0.35 0.31 0.28 0.24 0.27 0.32 0.49 0.64 0.76 1.05 1.50 1.68 1.79 1.91 2.12 2.29 2.17 2.04 2.01 1.96 2.03 2.05 2.20 2.17 2.15 2.13 2.04 2.03 2.01 1.93 2.03 2.32 1.98 1.75
0.68 0.71 0.70 0.63 0.49 0.44 0.42 0.44 0.39 0.44 0.39 0.37 0.37 0.38 0.34 0.27 0.25 0.25 0.23 0.27 0.32 0.44 0.56 0.70 0.89 1.18 1.53 1.79 2.05 2.33 2.55 2.52 2.39 2.23 2.21 2.26 2.32 2.48 2.61 2.61 2.65 2.47 2.33 2.34 2.26 2.22 2.37 2.44 2.18
0.70 0.48 0.44 0.44 0.57 0.59 0.44 0.64 0.46 0.45 0.41 0.36 0.36 0.36 0.35 0.30 0.28 0.31 0.28 0.29 0.32 0.39 0.48 0.64 0.83 1.05 1.31 1.55 1.95 2.38 2.66 2.75 2.65 2.55 2.51 2.47 2.48 2.53 2.74 2.80 2.90 2.73 2.61 2.55 2.47 2.29 2.40 2.70 2.63
0.52 0.41 0.40 0.43 0.52 0.48 0.34 0.46 0.45 0.38 0.40 0.35 0.33 0.32 0.31 0.30 0.31 0.34 0.35 0.36 0.39 0.42 0.46 0.59 0.74 0.97 1.22 1.44 1.79 2.18 2.46 2.67 2.81 2.64 2.51 2.53 2.55 2.58 2.70 2.84 2.96 2.82 2.69 2.61 2.71 2.60 2.55 2.48 2.47
0.41 0.44 0.43 0.44 0.50 0.54 0.27 0.39 0.50 0.36 0.32 0.33 0.30 0.27 0.28 0.31 0.36 0.41 0.50 0.54 0.53 0.48 0.52 0.62 0.72 0.87 1.05 1.19 1.39 1.63 1.97 2.21 2.54 2.53 2.46 2.58 2.56 2.48 2.42 2.57 2.81 2.74 2.72 2.73 2.81 2.86 2.79 2.77 2.78
0.40 0.60 0.77 0.76 0.72 0.49 0.21 0.36 0.50 0.36 0.29 0.30 0.31 0.29 0.29 0.33 0.38 0.47 0.61 0.66 0.68 0.58 0.54 0.57 0.71 0.81 0.89 0.98 1.07 1.22 1.47 1.63 2.00 2.31 2.28 2.20 2.25 2.31 2.37 2.40 2.41 2.41 2.49 2.64 2.86 2.83 2.72 2.71 2.81
0.33 0.53 0.82 0.92 0.80 0.52 0.36 0.53 0.57 0.41 0.33 0.29 0.29 0.31 0.35 0.40 0.45 0.62 0.79 0.82 0.81 0.71 0.62 0.61 0.73 0.81 0.85 0.90 0.93 1.01 1.14 1.23 1.41 1.62 1.72 1.75 1.81 2.03 2.15 2.26 2.23 2.25 2.31 2.39 2.52 2.56 2.58 2.54 2.53
0.29 0.35 0.41 0.59 0.57 0.58 0.55 0.64 0.57 0.39 0.37 0.37 0.38 0.42 0.51 0.60 0.64 0.77 0.94 0.99 0.89 0.79 0.70 0.69 0.76 0.88 0.89 0.92 0.95 1.04 1.07 1.07 1.17 1.20 1.34 1.52 1.56 1.61 1.75 1.86 1.96 2.07 2.12 2.20 2.36 2.43 2.41 2.44 2.43
0.21 0.27 0.42 0.64 0.81 0.83 0.66 0.67 0.64 0.54 0.51 0.47 0.51 0.56 0.68 0.78 0.84 0.93 1.09 1.12 0.96 0.82 0.72 0.70 0.75 0.88 1.06 1.19 1.15 1.12 1.19 1.25 1.45 1.48 1.33 1.30 1.46 1.51 1.55 1.60 1.68 1.84 1.96 2.05 2.14 2.25 2.35 2.36 2.36
0.25 0.35 0.49 0.66 0.69 0.94 1.05 0.96 0.75 0.68 0.68 0.71 0.74 0.78 0.84 0.96 0.97 0.95 1.04 1.11 1.00 0.80 0.72 0.67 0.70 0.80 0.94 0.99 1.04 1.03 1.11 1.22 1.48 1.70 1.64 1.45 1.43 1.45 1.42 1.37 1.45 1.59 1.71 1.82 1.95 2.01 2.02 2.06 2.19
0.33 0.45 0.66 1.00 0.94 0.87 1.05 1.04 0.76 0.67 0.71 0.72 0.72 0.71 0.76 0.87 0.89 0.92 0.96 0.91 0.82 0.68 0.60 0.57 0.58 0.69 0.81 0.80 0.86 0.93 0.96 1.06 1.19 1.30 1.32 1.26 1.16 1.13 1.19 1.24 1.25 1.34 1.50 1.62 1.66 1.68 1.71 1.78 1.91

GEFSSGP_prec_meanprecacc_240.txt.gz
Total_Precipitation_Accumulation
0.96 1.17 1.69 2.35 2.98 2.33 1.71 1.42 1.09 0.97 0.86 0.75 0.67 0.69 0.81 0.99 1.45 2.16 2.31 2.04 1.45 1.30 1.70 2.31 2.40 2.22 1.93 1.68 1.69 1.81 1.80 1.90 1.81 1.60 1.44 1.23 1.08 0.97 0.98 0.99 0.96 0.90 0.80 0.82 0.88 0.84 0.80 0.79 0.70
0.94 1.70 2.25 3.07 2.92 1.90 1.66 1.44 1.22 0.90 0.71 0.55 0.48 0.60 0.75 0.72 0.85 1.58 2.31 2.21 1.39 1.17 1.48 1.87 2.07 2.00 1.82 1.70 1.72 1.81 1.77 1.69 1.57 1.36 1.18 1.09 1.07 0.99 0.92 0.98 0.98 0.88 0.78 0.78 0.80 0.87 0.83 0.76 0.64
1.07 1.92 2.50 2.80 2.07 1.64 1.62 1.39 1.14 0.81 0.62 0.52 0.44 0.46 0.68 0.95 1.14 1.82 2.09 1.48 1.16 1.01 1.38 1.83 1.98 1.79 1.70 1.61 1.65 1.68 1.70 1.61 1.47 1.36 1.20 1.08 1.07 1.04 1.02 1.02 0.99 0.87 0.74 0.67 0.76 0.82 0.77 0.70 0.60
1.42 2.22 2.47 2.13 1.62 1.27 1.16 1.17 0.91 0.75 0.53 0.38 0.39 0.53 0.71 1.13 1.37 1.71 1.66 1.19 1.04 1.02 1.32 1.61 1.81 1.67 1.53 1.55 1.55 1.42 1.24 1.24 1.39 1.40 1.26 1.15 1.04 1.00 1.00 0.98 0.87 0.73 0.66 0.66 0.71 0.75 0.71 0.68 0.58
1.77 2.39 2.35 1.80 1.46 1.24 1.03 0.90 0.73 0.66 0.56 0.44 0.38 0.70 1.11 1.36 1.44 1.44 1.41 1.15 1.10 1.27 1.52 1.49 1.63 1.53 1.43 1.39 1.36 1.22 1.17 1.24 1.44 1.42 1.30 1.21 1.06 0.99 0.98 0.90 0.73 0.60 0.60 0.66 0.81 0.83 0.65 0.61 0.58
2.21 2.36 2.56 1.95 1.53 1.31 1.17 0.87 0.66 0.56 0.50 0.42 0.43 0.72 1.27 1.56 1.54 1.52 1.46 1.35 1.28 1.31 1.41 1.43 1.56 1.49 1.33 1.21 1.18 1.05 1.09 1.30 1.47 1.42 1.38 1.41 1.16 0.99 0.89 0.81 0.72 0.60 0.57 0.64 0.77 0.80 0.65 0.60 0.65
2.35 2.42 2.17 1.66 1.53 1.64 1.28 0.79 0.67 0.63 0.61 0.47 0.39 0.73 1.31 1.68 1.45 1.26 1.28 1.21 1.19 1.21 1.23 1.15 1.20 1.26 1.17 1.12 1.17 1.14 1.20 1.31 1.38 1.31 1.29 1.28 0.99 0.79 0.71 0.71 0.71 0.66 0.68 0.73 0.75 0.78 0.72 0.70 0.72
1.64 1.76 1.71 1.59 1.61 1.62 1.12 0.69 0.58 0.53 0.58 0.40 0.36 0.64 1.20 1.39 1.19 1.19 1.16 1.16 1.16 1.13 1.08 0.93 0.96 1.15 1.25 1.19 1.20 1.28 1.31 1.29 1.37 1.23 1.15 1.05 0.79 0.64 0.63 0.61 0.62 0.61 0.66 0.74 0.78 0.80 0.75 0.72 0.72
1.51 1.73 1.92 1.84 1.58 1.40 1.01 0.78 0.56 0.40 0.43 0.37 0.33 0.39 0.59 0.82 0.94 1.07 1.13 1.11 1.23 1.11 0.99 0.90 0.81 0.86 1.05 1.17 1.15 1.34 1.41 1.36 1.23 1.15 1.12 0.96 0.67 0.57 0.57 0.56 0.69 0.69 0.75 0.82 0.83 0.80 0.72 0.67 0.62
1.49 1.80 1.88 1.41 1.09 1.03 0.94 0.81 0.63 0.58 0.60 0.51 0.44 0.43 0.48 0.65 0.82 0.89 0.94 0.99 1.06 1.04 0.87 0.81 0.73 0.68 0.68 0.76 1.05 1.43 1.28 1.21 0.98 0.95 0.93 0.89 0.81 0.75 0.59 0.63 0.83 0.87 0.89 0.88 0.85 0.81 0.66 0.52 0.44
1.23 1.31 1.23 1.15 0.84 0.71 0.85 0.80 0.61 0.63 0.71 0.54 0.50 0.48 0.49 0.60 0.64 0.67 0.76 0.82 0.84 0.90 0.83 0.74 0.66 0.59 0.58 0.71 0.83 1.05 1.13 1.12 0.97 0.83 0.82 0.88 0.84 0.74 0.62 0.56 0.64 0.75 0.83 0.75 0.71 0.69 0.53 0.47 0.50
1.08 1.00 0.87 0.84 0.67 0.68 0.86 0.74 0.62 0.69 0.64 0.41 0.35 0.38 0.49 0.56 0.55 0.54 0.64 0.80 0.85 0.87 0.86 0.79 0.69 0.63 0.60 0.60 0.59 0.68 0.74 0.78 0.77 0.69 0.69 0.82 0.77 0.72 0.69 0.69 0.65 0.67 0.71 0.77 0.73 0.69 0.60 0.55 0.57
1.00 0.94 0.75 0.62 0.66 0.69 0.76 0.79 0.68 0.66 0.54 0.43 0.37 0.46 0.52 0.52 0.50 0.51 0.59 0.71 0.77 0.80 0.86 0.84 0.73 0.66 0.61 0.57 0.54 0.51 0.60 0.65 0.66 0.70 0.66 0.69 0.73 0.72 0.69 0.67 0.72 0.74 0.72 0.75 0.74 0.65 0.61 0.60 0.57
0.94 0.88 0.80 0.67 0.67 0.71 0.76 0.80 0.74 0.78 0.61 0.50 0.42 0.47 0.49 0.51 0.50 0.53 0.56 0.65 0.69 0.70 0.83 0.87 0.79 0.75 0.68 0.61 0.57 0.56 0.62 0.68 0.66 0.58 0.55 0.60 0.62 0.64 0.73 0.77 0.79 0.81 0.80 0.86 0.84 0.66 0.66 0.70 0.65
0.83 0.89 0.88 0.80 0.79 0.77 0.80 0.98 0.90 0.81 0.70 0.67 0.55 0.46 0.47 0.47 0.46 0.52 0.52 0.59 0.65 0.73 0.86 0.86 0.82 0.91 0.82 0.73 0.71 0.63 0.67 0.71 0.69 0.68 0.65 0.67 0.67 0.70 0.79 0.87 0.90 0.89 0.85 0.87 1.10 0.98 0.75 0.71 0.67
0.96 1.05 1.20 0.87 0.78 0.82 0.95 1.13 0.85 0.83 0.81 0.86 0.69 0.56 0.52 0.48 0.46 0.45 0.46 0.57 0.61 0.77 0.85 0.95 0.85 0.94 0.91 0.86 0.86 0.80 0.79 0.83 0.82 0.79 0.77 0.76 0.78 0.81 0.89 0.95 0.86 0.93 0.99 1.02 1.18 1.25 0.96 0.79 0.77
1.11 1.19 1.17 0.92 0.71 0.74 0.84 0.94 0.78 0.73 0.71 0.72 0.67 0.60 0.59 0.47 0.43 0.40 0.42 0.47 0.54 0.71 0.81 0.95 0.97 0.95 0.99 1.02 1.05 1.00 0.96 0.96 0.94 0.92 0.86 0.87 0.91 0.97 1.03 1.05 0.99 1.00 1.02 1.12 1.12 1.33 1.30 1.10 0.98
1.06 0.94 0.90 0.81 0.71 0.72 0.73 0.64 0.63 0.62 0.64 0.59 0.59 0.55 0.49 0.43 0.42 0.40 0.37 0.38 0.44 0.61 0.75 0.87 1.02 1.14 1.20 1.23 1.28 1.27 1.18 1.11 1.12 1.14 1.10 1.11 1.17 1.13 1.18 1.21 1.22 1.30 1.28 1.27 1.20 1.39 1.50 1.31 1.25
0.74 0.72 0.74 0.63 0.57 0.60 0.55 0.49 0.53 0.55 0.58 0.52 0.52 0.51 0.42 0.38 0.40 0.38 0.32 0.34 0.37 0.49 0.60 0.77 1.13 1.56 1.73 1.61 1.57 1.62 1.72 1.70 1.60 1.56 1.53 1.58 1.57 1.57 1.61 1.57 1.55 1.52 1.48 1.54 1.52 1.76 2.11 1.65 1.43
0.69 0.74 0.76 0.66 0.48 0.48 0.48 0.42 0.42 0.48 0.49 0.46 0.43 0.45 0.40 0.35 0.31 0.28 0.24 0.28 0.33 0.50 0.65 0.77 1.06 1.51 1.70 1.80 1.92 2.12 2.30 2.18 2.04 2.02 1.97 2.04 2.06 2.21 2.18 2.16 2.14 2.04 2.03 2.01 1.94 2.04 2.34 1.99 1.75
0.68 0.71 0.70 0.64 0.49 0.44 0.42 0.44 0.39 0.44 0.40 0.37 0.37 0.39 0.34 0.27 0.25 0.25 0.24 0.27 0.32 0.44 0.56 0.70 0.90 1.20 1.55 1.80 2.06 2.33 2.56 2.53 2.41 2.24 2.23 2.29 2.34 2.50 2.63 2.62 2.66 2.47 2.34 2.35 2.27 2.23 2.38 2.45 2.19
0.70 0.48 0.44 0.44 0.57 0.59 0.44 0.64 0.46 0.45 0.41 0.36 0.37 0.37 0.35 0.30 0.28 0.31 0.28 0.29 0.32 0.40 0.49 0.64 0.84 1.07 1.32 1.56 1.95 2.38 2.67 2.76 2.66 2.57 2.54 2.49 2.51 2.56 2.77 2.80 2.91 2.74 2.62 2.57 2.48 2.30 2.41 2.72 2.65
0.52 0.41 0.41 0.43 0.52 0.48 0.34 0.47 0.45 0.38 0.40 0.36 0.33 0.32 0.32 0.30 0.32 0.35 0.35 0.37 0.40 0.42 0.47 0.60 0.75 0.98 1.23 1.45 1.80 2.19 2.47 2.68 2.82 2.65 2.52 2.54 2.57 2.60 2.72 2.86 2.97 2.83 2.70 2.63 2.72 2.61 2.56 2.49 2.48
0.41 0.44 0.43 0.45 0.50 0.54 0.27 0.39 0.50 0.36 0.32 0.33 0.30 0.27 0.29 0.31 0.37 0.41 0.50 0.54 0.54 0.48 0.53 0.63 0.74 0.89 1.05 1.19 1.40 1.63 1.98 2.22 2.55 2.54 2.47 2.59 2.57 2.49 2.43 2.59 2.82 2.76 2.74 2.74 2.82 2.86 2.80 2.78 2.78
0.40 0.61 0.78 0.77 0.73 0.50 0.22 0.36 0.50 0.36 0.29 0.30 0.31 0.29 0.29 0.33 0.39 0.48 0.61 0.67 0.68 0.58 0.55 0.58 0.73 0.82 0.89 0.99 1.08 1.22 1.47 1.64 2.01 2.32 2.29 2.22 2.26 2.32 2.38 2.41 2.42 2.42 2.50 2.65 2.87 2.84 2.73 2.71 2.81
0.34 0.53 0.83 0.92 0.80 0.52 0.36 0.53 0.57 0.41 0.33 0.30 0.29 0.32 0.36 0.40 0.46 0.63 0.79 0.83 0.82 0.71 0.63 0.62 0.74 0.82 0.86 0.91 0.93 1.01 1.14 1.24 1.41 1.64 1.74 1.77 1.82 2.05 2.17 2.27 2.24 2.25 2.32 2.40 2.53 2.56 2.58 2.55 2.53
0.29 0.35 0.41 0.59 0.57 0.58 0.56 0.64 0.57 0.39 0.37 0.37 0.38 0.42 0.52 0.61 0.65 0.78 0.94 1.00 0.89 0.79 0.71 0.70 0.77 0.89 0.90 0.92 0.95 1.04 1.07 1.07 1.18 1.21 1.35 1.53 1.57 1.62 1.76 1.87 1.96 2.08 2.13 2.21 2.37 2.44 2.42 2.44 2.43
0.21 0.27 0.43 0.64 0.81 0.83 0.67 0.67 0.65 0.55 0.51 0.48 0.52 0.57 0.68 0.79 0.85 0.94 1.09 1.13 0.97 0.82 0.73 0.71 0.76 0.89 1.07 1.19 1.15 1.12 1.19 1.25 1.46 1.49 1.34 1.31 1.46 1.51 1.55 1.61 1.69 1.84 1.97 2.06 2.15 2.26 2.36 2.36 2.36
0.25 0.35 0.50 0.67 0.69 0.95 1.05 0.97 0.76 0.69 0.69 0.71 0.74 0.78 0.85 0.97 0.97 0.95 1.05 1.11 1.01 0.81 0.72 0.68 0.71 0.81 0.95 1.00 1.05 1.03 1.11 1.22 1.48 1.70 1.64 1.46 1.44 1.46 1.42 1.37 1.45 1.59 1.72 1.83 1.96 2.02 2.03 2.06 2.19
0.34 0.45 0.66 1.00 0.95 0.87 1.05 1.04 0.76 0.68 0.71 0.72 0.72 0.72 0.77 0.88 0.89 0.92 0.96 0.91 0.83 0.69 0.60 0.57 0.59 0.70 0.82 0.82 0.86 0.94 0.96 1.07 1.19 1.30 1.32 1.26 1.17 1.13 1.19 1.24 1.26 1.34 1.51 1.62 1.67 1.68 1.72 1.79 1.91

GEFSSGP_prec_meanprecacc_246.txt.gz
Total_Precipitation_Accumulation
0.97 1.18 1.71 2.40 3.09 2.49 1.85 1.55 1.19 1.04 0.89 0.77 0.68 0.69 0.84 1.03 1.50 2.22 2.40 2.13 1.53 1.39 1.75 2.34 2.42 2.24 1.97 1.72 1.73 1.86 1.85 1.97 1.86 1.63 1.47 1.27 1.12 1.00 1.03 1.04 1.01 0.93 0.83 0.86 0.91 0.87 0.83 0.81 0.73
0.94 1.71 2.27 3.13 3.05 2.06 1.79 1.59 1.34 0.96 0.74 0.57 0.48 0.61 0.77 0.73 0.87 1.63 2.40 2.29 1.45 1.23 1.52 1.89 2.11 2.07 1.89 1.75 1.76 1.86 1.81 1.74 1.62 1.40 1.24 1.16 1.13 1.03 0.97 1.03 1.03 0.90 0.81 0.81 0.83 0.90 0.86 0.78 0.67
1.07 1.92 2.52 2.88 2.19 1.78 1.74 1.52 1.21 0.84 0.64 0.53 0.45 0.48 0.70 0.97 1.18 1.88 2.18 1.55 1.21 1.05 1.41 1.88 2.10 1.92 1.78 1.66 1.69 1.73 1.75 1.66 1.52 1.42 1.28 1.16 1.14 1.08 1.07 1.08 1.04 0.90 0.78 0.69 0.78 0.85 0.79 0.72 0.61
1.43 2.23 2.50 2.21 1.71 1.35 1.25 1.23 0.93 0.76 0.55 0.40 0.40 0.55 0.74 1.15 1.41 1.76 1.72 1.25 1.09 1.06 1.35 1.63 1.85 1.71 1.57 1.58 1.58 1.46 1.30 1.29 1.44 1.45 1.32 1.22 1.10 1.04 1.05 1.03 0.91 0.75 0.69 0.68 0.73 0.77 0.72 0.68 0.58
1.77 2.42 2.43 1.88 1.51 1.28 1.06 0.92 0.75 0.68 0.59 0.46 0.40 0.73 1.13 1.39 1.49 1.49 1.46 1.21 1.15 1.33 1.58 1.53 1.65 1.56 1.45 1.41 1.38 1.25 1.22 1.31 1.51 1.46 1.35 1.27 1.11 1.03 1.02 0.93 0.76 0.62 0.62 0.68 0.82 0.83 0.66 0.61 0.58
2.22 2.39 2.65 2.03 1.57 1.32 1.18 0.88 0.67 0.57 0.52 0.43 0.44 0.75 1.29 1.59 1.59 1.56 1.49 1.37 1.31 1.34 1.47 1.46 1.59 1.52 1.36 1.24 1.20 1.08 1.13 1.37 1.53 1.46 1.42 1.45 1.19 1.01 0.91 0.83 0.74 0.62 0.58 0.65 0.78 0.80 0.66 0.61 0.65
2.36 2.46 2.23 1.72 1.56 1.66 1.29 0.80 0.68 0.63 0.61 0.47 0.40 0.74 1.32 1.69 1.46 1.28 1.29 1.22 1.20 1.21 1.25 1.19 1.23 1.28 1.19 1.13 1.19 1.17 1.24 1.36 1.43 1.34 1.32 1.31 1.02 0.81 0.74 0.74 0.73 0.69 0.70 0.74 0.76 0.79 0.72 0.70 0.73
1.64 1.77 1.74 1.63 1.66 1.64 1.12 0.70 0.58 0.53 0.59 0.40 0.36 0.66 1.21 1.40 1.20 1.20 1.16 1.16 1.17 1.14 1.09 0.96 0.99 1.17 1.27 1.20 1.20 1.29 1.35 1.33 1.39 1.26 1.19 1.08 0.81 0.66 0.66 0.64 0.64 0.63 0.67 0.75 0.80 0.81 0.75 0.73 0.73
1.51 1.76 1.98 1.88 1.61 1.41 1.01 0.78 0.56 0.40 0.43 0.37 0.33 0.40 0.60 0.82 0.94 1.08 1.13 1.12 1.24 1.11 0.99 0.92 0.82 0.88 1.06 1.18 1.15 1.35 1.43 1.39 1.26 1.18 1.15 0.98 0.69 0.59 0.60 0.58 0.72 0.72 0.78 0.84 0.85 0.81 0.74 0.69 0.63
1.49 1.83 1.91 1.42 1.09 1.03 0.94 0.81 0.64 0.58 0.60 0.51 0.44 0.43 0.48 0.65 0.82 0.89 0.95 1.00 1.07 1.06 0.89 0.82 0.74 0.68 0.68 0.77 1.06 1.44 1.29 1.22 1.00 0.97 0.94 0.90 0.82 0.76 0.60 0.65 0.85 0.89 0.90 0.89 0.87 0.82 0.68 0.54 0.46
1.23 1.32 1.23 1.15 0.84 0.71 0.85 0.80 0.61 0.64 0.72 0.54 0.51 0.48 0.49 0.60 0.64 0.68 0.78 0.83 0.85 0.90 0.84 0.74 0.66 0.59 0.59 0.72 0.84 1.06 1.13 1.13 0.99 0.85 0.83 0.89 0.84 0.74 0.62 0.57 0.65 0.76 0.84 0.76 0.72 0.70 0.55 0.49 0.52
1.09 1.00 0.87 0.84 0.67 0.68 0.86 0.74 0.62 0.69 0.64 0.41 0.35 0.38 0.49 0.57 0.55 0.55 0.65 0.80 0.85 0.88 0.86 0.79 0.69 0.64 0.60 0.60 0.59 0.68 0.74 0.79 0.78 0.71 0.71 0.83 0.78 0.73 0.69 0.69 0.65 0.67 0.72 0.79 0.74 0.70 0.61 0.57 0.58
1.01 0.94 0.75 0.62 0.66 0.69 0.76 0.79 0.68 0.66 0.54 0.43 0.37 0.46 0.52 0.52 0.50 0.52 0.60 0.71 0.77 0.81 0.87 0.84 0.74 0.66 0.61 0.57 0.54 0.52 0.61 0.66 0.68 0.72 0.67 0.70 0.73 0.72 0.69 0.67 0.73 0.74 0.73 0.77 0.76 0.66 0.62 0.61 0.57
0.94 0.88 0.80 0.67 0.67 0.71 0.76 0.80 0.74 0.78 0.61 0.50 0.42 0.47 0.49 0.51 0.51 0.53 0.57 0.66 0.69 0.70 0.84 0.88 0.80 0.75 0.69 0.62 0.58 0.57 0.62 0.68 0.67 0.60 0.56 0.60 0.62 0.64 0.73 0.78 0.80 0.81 0.81 0.87 0.85 0.67 0.68 0.72 0.66
0.83 0.89 0.88 0.80 0.79 0.77 0.80 0.98 0.90 0.82 0.70 0.67 0.55 0.46 0.47 0.47 0.46 0.52 0.53 0.59 0.65 0.74 0.87 0.86 0.83 0.92 0.83 0.74 0.71 0.63 0.67 0.71 0.70 0.70 0.66 0.67 0.67 0.70 0.79 0.88 0.90 0.89 0.86 0.88 1.11 0.99 0.77 0.74 0.69
0.96 1.06 1.21 0.87 0.78 0.82 0.95 1.14 0.86 0.83 0.81 0.86 0.69 0.56 0.52 0.49 0.46 0.46 0.47 0.57 0.61 0.77 0.86 0.95 0.86 0.95 0.92 0.87 0.86 0.80 0.79 0.83 0.83 0.81 0.79 0.77 0.79 0.81 0.90 0.96 0.87 0.93 1.00 1.03 1.19 1.26 0.97 0.80 0.78
1.12 1.20 1.18 0.92 0.71 0.74 0.84 0.94 0.78 0.73 0.71 0.73 0.68 0.60 0.59 0.47 0.43 0.41 0.42 0.48 0.54 0.71 0.81 0.95 0.98 0.96 1.01 1.03 1.05 1.00 0.96 0.96 0.94 0.92 0.87 0.88 0.91 0.97 1.03 1.05 1.00 1.00 1.02 1.12 1.12 1.34 1.31 1.12 1.00
1.06 0.94 0.90 0.81 0.71 0.72 0.73 0.64 0.63 0.62 0.64 0.60 0.61 0.57 0.50 0.43 0.42 0.40 0.37 0.38 0.44 0.62 0.75 0.88 1.03 1.15 1.21 1.24 1.28 1.27 1.18 1.11 1.13 1.15 1.10 1.12 1.18 1.13 1.19 1.21 1.22 1.30 1.28 1.28 1.21 1.40 1.51 1.33 1.28
0.74 0.72 0.74 0.63 0.57 0.60 0.55 0.49 0.53 0.55 0.58 0.52 0.53 0.52 0.43 0.38 0.40 0.38 0.32 0.35 0.38 0.49 0.60 0.77 1.14 1.57 1.74 1.63 1.59 1.63 1.72 1.70 1.60 1.57 1.53 1.58 1.57 1.57 1.62 1.58 1.56 1.52 1.48 1.54 1.53 1.77 2.12 1.68 1.45
0.69 0.74 0.76 0.66 0.48 0.48 0.48 0.42 0.42 0.48 0.49 0.46 0.43 0.45 0.40 0.35 0.31 0.28 0.25 0.29 0.34 0.51 0.66 0.78 1.07 1.51 1.71 1.81 1.94 2.15 2.32 2.19 2.05 2.03 1.98 2.05 2.07 2.22 2.18 2.16 2.15 2.05 2.04 2.02 1.95 2.06 2.36 2.00 1.77
0.68 0.71 0.70 0.64 0.49 0.44 0.43 0.45 0.39 0.44 0.40 0.37 0.38 0.39 0.34 0.27 0.25 0.25 0.24 0.28 0.32 0.45 0.57 0.71 0.91 1.20 1.55 1.81 2.07 2.35 2.57 2.54 2.41 2.26 2.24 2.30 2.36 2.51 2.64 2.62 2.66 2.48 2.35 2.37 2.29 2.25 2.41 2.48 2.20
0.70 0.48 0.44 0.44 0.58 0.59 0.44 0.66 0.47 0.46 0.42 0.37 0.37 0.37 0.36 0.30 0.28 0.31 0.29 0.30 0.33 0.40 0.50 0.65 0.84 1.07 1.33 1.56 1.97 2.39 2.68 2.77 2.67 2.57 2.55 2.50 2.51 2.57 2.78 2.81 2.91 2.75 2.62 2.58 2.49 2.31 2.44 2.75 2.68
0.52 0.41 0.41 0.43 0.53 0.49 0.34 0.48 0.46 0.39 0.41 0.36 0.34 0.33 0.32 0.30 0.32 0.35 0.35 0.37 0.40 0.43 0.48 0.61 0.77 0.99 1.24 1.46 1.80 2.20 2.48 2.69 2.82 2.66 2.53 2.55 2.57 2.60 2.73 2.87 2.97 2.84 2.70 2.64 2.72 2.62 2.58 2.51 2.51
0.41 0.44 0.43 0.45 0.51 0.56 0.27 0.40 0.51 0.37 0.33 0.34 0.30 0.28 0.29 0.32 0.37 0.41 0.51 0.54 0.54 0.49 0.54 0.64 0.75 0.91 1.07 1.20 1.40 1.64 1.99 2.23 2.56 2.55 2.48 2.60 2.58 2.50 2.43 2.59 2.83 2.77 2.74 2.75 2.82 2.87 2.80 2.79 2.79
0.40 0.62 0.80 0.80 0.75 0.52 0.22 0.36 0.51 0.36 0.29 0.30 0.31 0.29 0.29 0.34 0.39 0.48 0.62 0.67 0.69 0.59 0.55 0.59 0.74 0.83 0.90 1.00 1.08 1.23 1.48 1.64 2.01 2.33 2.30 2.22 2.27 2.32 2.38 2.41 2.42 2.43 2.51 2.65 2.88 2.84 2.74 2.72 2.82
0.34 0.54 0.84 0.95 0.83 0.53 0.37 0.53 0.57 0.41 0.33 0.30 0.29 0.32 0.36 0.40 0.46 0.63 0.80 0.84 0.83 0.71 0.63 0.63 0.75 0.83 0.86 0.92 0.94 1.02 1.14 1.24 1.41 1.64 1.74 1.77 1.83 2.05 2.17 2.27 2.24 2.25 2.33 2.41 2.54 2.57 2.59 2.55 2.54
0.29 0.35 0.41 0.60 0.58 0.60 0.57 0.65 0.58 0.39 0.37 0.37 0.39 0.43 0.53 0.61 0.66 0.79 0.95 1.01 0.91 0.80 0.71 0.71 0.78 0.90 0.91 0.93 0.96 1.05 1.08 1.08 1.18 1.22 1.35 1.53 1.57 1.62 1.76 1.87 1.96 2.08 2.13 2.21 2.38 2.45 2.43 2.45 2.44
0.21 0.27 0.43 0.65 0.82 0.85 0.68 0.69 0.66 0.55 0.52 0.48 0.52 0.58 0.70 0.80 0.87 0.96 1.10 1.13 0.97 0.83 0.73 0.72 0.77 0.90 1.08 1.20 1.16 1.13 1.20 1.26 1.46 1.49 1.34 1.32 1.47 1.52 1.56 1.62 1.69 1.84 1.97 2.06 2.15 2.27 2.37 2.37 2.37
0.25 0.35 0.50 0.67 0.70 0.96 1.07 0.98 0.77 0.70 0.69 0.71 0.75 0.79 0.85 0.98 0.98 0.97 1.07 1.12 1.01 0.81 0.73 0.68 0.71 0.82 0.96 1.01 1.06 1.04 1.12 1.23 1.49 1.71 1.65 1.46 1.45 1.46 1.43 1.38 1.46 1.60 1.72 1.83 1.96 2.02 2.03 2.07 2.20
0.34 0.45 0.67 1.01 0.96 0.88 1.07 1.06 0.76 0.68 0.71 0.72 0.72 0.72 0.78 0.89 0.89 0.93 0.97 0.92 0.83 0.70 0.61 0.59 0.60 0.71 0.83 0.82 0.88 0.95 0.97 1.08 1.20 1.32 1.34 1.27 1.18 1.14 1.20 1.25 1.26 1.34 1.51 1.62 1.67 1.68 1.72 1.79 1.92

GEFSSGP_prec_meanprecacc_252.txt.gz
Total_Precipitation_Accumulation
0.98 1.21 1.75 2.47 3.23 2.63 1.95 1.68 1.33 1.13 0.94 0.81 0.71 0.72 0.86 1.07 1.55 2.27 2.49 2.23 1.60 1.42 1.76 2.35 2.45 2.28 2.01 1.74 1.75 1.88 1.88 2.01 1.89 1.65 1.49 1.29 1.14 1.03 1.06 1.06 1.03 0.95 0.85 0.88 0.93 0.89 0.85 0.83 0.75
0.96 1.73 2.31 3.22 3.19 2.18 1.91 1.73 1.45 1.02 0.77 0.59 0.50 0.62 0.79 0.76 0.92 1.69 2.48 2.38 1.54 1.28 1.54 1.91 2.14 2.12 1.94 1.79 1.78 1.88 1.83 1.77 1.66 1.43 1.25 1.17 1.15 1.06 1.01 1.06 1.07 0.93 0.83 0.83 0.85 0.92 0.87 0.79 0.69
1.08 1.94 2.57 2.96 2.29 1.87 1.85 1.65 1.30 0.88 0.67 0.55 0.45 0.48 0.71 0.99 1.22 1.93 2.24 1.63 1.27 1.09 1.44 1.91 2.14 2.00 1.85 1.71 1.73 1.77 1.79 1.70 1.55 1.45 1.31 1.19 1.16 1.11 1.11 1.12 1.08 0.92 0.79 0.71 0.79 0.87 0.81 0.73 0.62
1.44 2.25 2.55 2.28 1.77 1.41 1.32 1.33 0.99 0.80 0.58 0.43 0.42 0.56 0.76 1.18 1.43 1.79 1.80 1.32 1.13 1.10 1.39 1.66 1.87 1.74 1.60 1.61 1.61 1.50 1.34 1.34 1.48 1.49 1.36 1.26 1.13 1.06 1.07 1.08 0.94 0.77 0.70 0.69 0.74 0.78 0.74 0.69 0.59
1.78 2.45 2.48 1.95 1.58 1.34 1.13 0.97 0.78 0.70 0.62 0.50 0.43 0.76 1.18 1.45 1.55 1.56 1.54 1.27 1.18 1.36 1.62 1.55 1.67 1.57 1.47 1.44 1.41 1.28 1.26 1.35 1.55 1.50 1.39 1.30 1.14 1.05 1.04 0.95 0.78 0.63 0.63 0.68 0.82 0.84 0.67 0.62 0.59
2.24 2.43 2.71 2.08 1.63 1.37 1.23 0.93 0.69 0.59 0.54 0.45 0.47 0.77 1.33 1.65 1.66 1.62 1.55 1.41 1.32 1.35 1.49 1.48 1.62 1.54 1.38 1.26 1.23 1.11 1.17 1.42 1.57 1.50 1.45 1.48 1.21 1.02 0.92 0.84 0.75 0.63 0.59 0.66 0.79 0.81 0.67 0.61 0.66
2.38 2.50 2.28 1.77 1.62 1.70 1.32 0.83 0.69 0.64 0.63 0.48 0.41 0.75 1.36 1.74 1.50 1.31 1.31 1.23 1.21 1.22 1.26 1.19 1.23 1.29 1.20 1.15 1.21 1.19 1.28 1.41 1.47 1.37 1.35 1.32 1.03 0.82 0.75 0.75 0.74 0.69 0.71 0.75 0.77 0.80 0.73 0.71 0.74
1.65 1.80 1.77 1.67 1.70 1.67 1.13 0.70 0.58 0.54 0.60 0.40 0.36 0.67 1.23 1.43 1.21 1.21 1.17 1.17 1.17 1.14 1.09 0.96 1.00 1.17 1.27 1.20 1.22 1.31 1.37 1.36 1.42 1.28 1.20 1.10 0.83 0.67 0.67 0.65 0.66 0.64 0.68 0.76 0.80 0.82 0.77 0.75 0.74
1.52 1.79 2.01 1.89 1.63 1.43 1.01 0.78 0.56 0.40 0.43 0.37 0.33 0.40 0.60 0.82 0.94 1.08 1.14 1.12 1.25 1.12 0.99 0.92 0.82 0.88 1.06 1.18 1.16 1.36 1.44 1.40 1.27 1.19 1.16 0.99 0.69 0.59 0.60 0.59 0.73 0.73 0.79 0.84 0.86 0.82 0.75 0.70 0.65
1.50 1.86 1.92 1.42 1.09 1.03 0.94 0.81 0.64 0.58 0.61 0.51 0.45 0.43 0.49 0.66 0.82 0.90 0.96 1.01 1.08 1.06 0.89 0.82 0.74 0.69 0.69 0.77 1.06 1.44 1.29 1.22 1.00 0.97 0.95 0.90 0.82 0.76 0.60 0.66 0.86 0.90 0.91 0.90 0.88 0.84 0.69 0.55 0.48
1.23 1.33 1.24 1.15 0.84 0.71 0.85 0.80 0.61 0.64 0.72 0.54 0.51 0.48 0.50 0.61 0.65 0.69 0.79 0.84 0.85 0.91 0.84 0.74 0.66 0.59 0.59 0.72 0.84 1.06 1.13 1.13 0.99 0.85 0.83 0.89 0.84 0.74 0.62 0.57 0.66 0.77 0.84 0.76 0.73 0.71 0.56 0.50 0.54
1.09 1.01 0.88 0.84 0.67 0.68 0.86 0.74 0.62 0.69 0.65 0.41 0.35 0.38 0.49 0.58 0.55 0.55 0.66 0.80 0.86 0.89 0.87 0.80 0.69 0.64 0.60 0.60 0.59 0.69 0.74 0.79 0.78 0.71 0.71 0.83 0.78 0.73 0.69 0.69 0.66 0.68 0.72 0.79 0.75 0.71 0.63 0.59 0.60
1.01 0.94 0.76 0.62 0.66 0.69 0.76 0.79 0.68 0.66 0.54 0.43 0.37 0.47 0.53 0.53 0.51 0.52 0.60 0.72 0.78 0.81 0.87 0.85 0.74 0.67 0.61 0.57 0.54 0.52 0.61 0.66 0.68 0.72 0.68 0.70 0.73 0.72 0.70 0.67 0.73 0.75 0.73 0.77 0.77 0.68 0.63 0.63 0.60
0.94 0.88 0.80 0.67 0.67 0.71 0.76 0.80 0.74 0.79 0.61 0.50 0.42 0.48 0.50 0.51 0.51 0.54 0.58 0.67 0.70 0.71 0.85 0.89 0.81 0.76 0.69 0.62 0.58 0.57 0.63 0.69 0.68 0.61 0.57 0.61 0.62 0.64 0.74 0.78 0.80 0.81 0.81 0.87 0.87 0.68 0.69 0.74 0.70
0.83 0.89 0.88 0.80 0.79 0.77 0.80 0.98 0.90 0.82 0.70 0.67 0.55 0.47 0.48 0.47 0.47 0.53 0.53 0.59 0.66 0.74 0.87 0.87 0.84 0.93 0.84 0.74 0.71 0.63 0.68 0.72 0.71 0.71 0.68 0.70 0.69 0.70 0.80 0.88 0.90 0.89 0.86 0.89 1.12 1.00 0.78 0.75 0.74
0.96 1.06 1.21 0.87 0.78 0.82 0.95 1.14 0.86 0.84 0.81 0.87 0.70 0.57 0.52 0.49 0.47 0.46 0.48 0.58 0.62 0.77 0.86 0.95 0.86 0.95 0.93 0.88 0.86 0.80 0.79 0.84 0.83 0.82 0.82 0.79 0.80 0.81 0.90 0.96 0.87 0.93 1.00 1.04 1.20 1.27 0.98 0.80 0.79
1.12 1.20 1.18 0.93 0.71 0.74 0.84 0.94 0.78 0.74 0.72 0.74 0.69 0.61 0.60 0.48 0.43 0.41 0.42 0.49 0.57 0.73 0.82 0.95 0.98 0.96 1.01 1.04 1.06 1.00 0.96 0.96 0.94 0.93 0.87 0.88 0.92 0.97 1.04 1.05 1.00 1.00 1.03 1.13 1.13 1.35 1.32 1.12 1.02
1.07 0.95 0.90 0.82 0.71 0.72 0.73 0.64 0.63 0.62 0.64 0.61 0.61 0.57 0.51 0.44 0.42 0.41 0.38 0.39 0.46 0.64 0.76 0.88 1.03 1.15 1.22 1.25 1.31 1.29 1.19 1.11 1.13 1.15 1.11 1.12 1.18 1.14 1.19 1.21 1.23 1.31 1.29 1.28 1.21 1.40 1.52 1.34 1.30
0.74 0.73 0.74 0.63 0.57 0.60 0.55 0.49 0.53 0.55 0.59 0.53 0.54 0.53 0.43 0.38 0.41 0.39 0.34 0.36 0.39 0.51 0.62 0.78 1.14 1.58 1.75 1.65 1.63 1.66 1.74 1.70 1.60 1.57 1.53 1.58 1.58 1.57 1.62 1.58 1.56 1.53 1.49 1.55 1.54 1.78 2.13 1.68 1.46
0.69 0.74 0.76 0.66 0.48 0.48 0.48 0.42 0.42 0.48 0.49 0.46 0.43 0.45 0.40 0.36 0.32 0.30 0.27 0.31 0.35 0.52 0.68 0.79 1.08 1.53 1.73 1.84 1.96 2.17 2.33 2.19 2.05 2.03 1.98 2.05 2.07 2.22 2.19 2.16 2.15 2.05 2.05 2.03 1.96 2.07 2.37 2.01 1.77
0.68 0.71 0.70 0.64 0.49 0.44 0.43 0.45 0.40 0.45 0.40 0.38 0.38 0.39 0.34 0.28 0.26 0.26 0.25 0.29 0.33 0.46 0.59 0.72 0.92 1.22 1.57 1.83 2.10 2.37 2.59 2.55 2.42 2.26 2.24 2.30 2.36 2.51 2.64 2.63 2.67 2.49 2.36 2.38 2.30 2.26 2.42 2.49 2.21
0.70 0.48 0.44 0.44 0.58 0.59 0.44 0.66 0.47 0.46 0.42 0.38 0.37 0.37 0.36 0.30 0.29 0.31 0.29 0.31 0.35 0.42 0.51 0.67 0.86 1.09 1.34 1.58 1.99 2.42 2.71 2.79 2.68 2.58 2.55 2.50 2.52 2.57 2.78 2.81 2.92 2.75 2.63 2.60 2.51 2.32 2.45 2.76 2.68
0.52 0.41 0.41 0.43 0.53 0.49 0.35 0.48 0.46 0.39 0.41 0.37 0.34 0.33 0.33 0.31 0.32 0.35 0.36 0.39 0.43 0.46 0.51 0.64 0.79 1.01 1.25 1.48 1.83 2.22 2.50 2.71 2.84 2.67 2.54 2.55 2.58 2.60 2.73 2.87 2.98 2.84 2.71 2.65 2.75 2.64 2.59 2.52 2.51
0.41 0.44 0.43 0.45 0.52 0.56 0.28 0.40 0.52 0.37 0.33 0.34 0.30 0.28 0.29 0.32 0.37 0.42 0.51 0.56 0.57 0.51 0.56 0.67 0.78 0.93 1.09 1.21 1.42 1.65 2.00 2.24 2.56 2.56 2.49 2.60 2.58 2.50 2.43 2.59 2.83 2.77 2.75 2.76 2.84 2.89 2.81 2.80 2.80
0.40 0.62 0.80 0.81 0.77 0.52 0.22 0.37 0.51 0.37 0.30 0.31 0.31 0.29 0.30 0.34 0.40 0.49 0.63 0.69 0.71 0.61 0.57 0.62 0.77 0.85 0.92 1.01 1.10 1.24 1.49 1.65 2.02 2.34 2.31 2.23 2.27 2.32 2.38 2.42 2.43 2.43 2.51 2.66 2.88 2.85 2.74 2.72 2.83
0.34 0.54 0.85 0.96 0.84 0.54 0.37 0.54 0.58 0.42 0.34 0.30 0.29 0.32 0.37 0.42 0.47 0.65 0.82 0.87 0.86 0.74 0.65 0.66 0.77 0.85 0.88 0.93 0.95 1.02 1.15 1.24 1.42 1.65 1.76 1.79 1.84 2.05 2.18 2.28 2.24 2.26 2.33 2.42 2.54 2.58 2.60 2.56 2.55
0.29 0.36 0.42 0.60 0.58 0.60 0.58 0.66 0.59 0.40 0.38 0.37 0.39 0.44 0.55 0.63 0.68 0.81 0.97 1.04 0.95 0.82 0.73 0.74 0.81 0.92 0.93 0.95 0.97 1.06 1.08 1.09 1.19 1.22 1.37 1.55 1.59 1.63 1.77 1.88 1.97 2.08 2.14 2.22 2.38 2.45 2.44 2.46 2.45
0.21 0.27 0.43 0.65 0.83 0.85 0.69 0.70 0.67 0.56 0.52 0.49 0.53 0.59 0.71 0.81 0.88 0.97 1.12 1.15 1.00 0.85 0.76 0.76 0.81 0.92 1.10 1.22 1.18 1.15 1.21 1.27 1.47 1.50 1.35 1.33 1.48 1.54 1.57 1.62 1.69 1.84 1.97 2.06 2.16 2.27 2.37 2.37 2.38
0.26 0.36 0.50 0.68 0.70 0.96 1.08 1.00 0.78 0.71 0.70 0.72 0.75 0.79 0.86 0.99 0.99 0.98 1.08 1.14 1.03 0.84 0.77 0.74 0.77 0.86 1.00 1.04 1.09 1.07 1.14 1.25 1.51 1.72 1.66 1.47 1.46 1.48 1.44 1.39 1.47 1.61 1.72 1.83 1.97 2.03 2.04 2.08 2.22
0.34 0.45 0.67 1.02 0.96 0.89 1.09 1.08 0.77 0.69 0.72 0.73 0.74 0.74 0.79 0.90 0.90 0.94 0.98 0.94 0.85 0.72 0.65 0.64 0.65 0.75 0.88 0.88 0.92 0.98 0.99 1.10 1.22 1.32 1.34 1.28 1.19 1.16 1.22 1.27 1.28 1.36 1.52 1.64 1.68 1.69 1.73 1.80 1.92

GEFSSGP_prec_meanprecacc_258.txt.gz
Total_Precipitation_Accumulation
0.98 1.22 1.77 2.52 3.27 2.68 2.01 1.71 1.36 1.17 0.98 0.87 0.77 0.77 0.90 1.09 1.58 2.30 2.52 2.25 1.62 1.44 1.78 2.38 2.50 2.32 2.08 1.81 1.79 1.91 1.91 2.06 1.95 1.72 1.53 1.32 1.18 1.08 1.10 1.09 1.08 0.99 0.87 0.90 0.96 0.92 0.89 0.89 0.80
0.96 1.74 2.33 3.25 3.23 2.22 1.95 1.76 1.48 1.05 0.79 0.62 0.52 0.67 0.82 0.77 0.95 1.72 2.52 2.41 1.58 1.31 1.55 1.94 2.21 2.18 2.00 1.84 1.84 1.91 1.87 1.81 1.72 1.48 1.28 1.20 1.18 1.10 1.06 1.11 1.13 0.97 0.86 0.85 0.87 0.95 0.90 0.83 0.73
1.09 1.95 2.58 2.98 2.32 1.92 1.90 1.71 1.33 0.90 0.68 0.56 0.47 0.51 0.73 1.01 1.24 1.96 2.28 1.68 1.31 1.13 1.47 1.94 2.20 2.06 1.91 1.76 1.78 1.80 1.84 1.75 1.61 1.50 1.33 1.22 1.19 1.15 1.16 1.18 1.13 0.95 0.82 0.74 0.83 0.90 0.85 0.77 0.66
1.45 2.26 2.56 2.30 1.82 1.44 1.37 1.38 1.02 0.82 0.58 0.43 0.42 0.58 0.78 1.20 1.45 1.82 1.82 1.37 1.18 1.14 1.43 1.69 1.90 1.76 1.63 1.64 1.66 1.54 1.39 1.38 1.54 1.55 1.41 1.29 1.17 1.10 1.11 1.11 0.98 0.80 0.73 0.72 0.77 0.82 0.78 0.73 0.63
1.79 2.45 2.49 1.97 1.61 1.37 1.16 1.02 0.82 0.73 0.64 0.51 0.44 0.79 1.21 1.48 1.58 1.59 1.55 1.28 1.21 1.41 1.66 1.60 1.72 1.61 1.51 1.48 1.45 1.34 1.31 1.39 1.59 1.55 1.44 1.34 1.17 1.06 1.06 0.98 0.81 0.65 0.64 0.69 0.84 0.87 0.70 0.65 0.62
2.24 2.43 2.71 2.10 1.67 1.40 1.27 0.97 0.75 0.64 0.58 0.48 0.49 0.81 1.37 1.68 1.68 1.64 1.57 1.42 1.34 1.38 1.52 1.51 1.66 1.58 1.41 1.29 1.26 1.15 1.22 1.47 1.62 1.56 1.51 1.51 1.25 1.04 0.94 0.86 0.76 0.64 0.60 0.67 0.80 0.83 0.69 0.64 0.69
2.38 2.50 2.28 1.78 1.64 1.73 1.35 0.85 0.73 0.69 0.67 0.52 0.43 0.78 1.39 1.77 1.53 1.33 1.33 1.23 1.22 1.23 1.27 1.21 1.25 1.31 1.24 1.19 1.25 1.23 1.33 1.47 1.53 1.44 1.39 1.36 1.06 0.84 0.77 0.76 0.75 0.71 0.72 0.76 0.79 0.82 0.77 0.74 0.77
1.65 1.81 1.78 1.67 1.70 1.69 1.15 0.72 0.61 0.56 0.62 0.42 0.38 0.69 1.25 1.45 1.23 1.23 1.18 1.17 1.17 1.14 1.10 0.97 1.00 1.17 1.27 1.22 1.26 1.36 1.42 1.42 1.49 1.35 1.27 1.15 0.86 0.70 0.70 0.66 0.67 0.65 0.70 0.78 0.82 0.84 0.80 0.77 0.77
1.52 1.79 2.01 1.89 1.63 1.44 1.03 0.80 0.58 0.42 0.45 0.39 0.34 0.41 0.61 0.83 0.95 1.09 1.15 1.12 1.25 1.12 1.00 0.92 0.83 0.88 1.06 1.18 1.17 1.39 1.47 1.44 1.33 1.25 1.23 1.04 0.70 0.60 0.61 0.61 0.76 0.75 0.80 0.86 0.88 0.85 0.78 0.72 0.66
1.50 1.86 1.92 1.42 1.09 1.04 0.95 0.82 0.65 0.60 0.62 0.52 0.45 0.44 0.49 0.66 0.83 0.90 0.96 1.01 1.08 1.06 0.89 0.82 0.74 0.69 0.69 0.77 1.06 1.44 1.30 1.23 1.01 0.98 0.96 0.92 0.83 0.77 0.61 0.68 0.89 0.91 0.92 0.91 0.90 0.85 0.70 0.56 0.49
1.24 1.33 1.24 1.16 0.84 0.71 0.85 0.80 0.61 0.64 0.74 0.55 0.52 0.49 0.50 0.61 0.66 0.70 0.79 0.85 0.86 0.92 0.85 0.74 0.67 0.60 0.59 0.72 0.84 1.06 1.14 1.14 1.00 0.85 0.83 0.90 0.85 0.75 0.63 0.58 0.66 0.77 0.85 0.77 0.74 0.72 0.56 0.51 0.54
1.09 1.01 0.88 0.84 0.67 0.68 0.87 0.74 0.62 0.69 0.66 0.42 0.35 0.39 0.50 0.58 0.56 0.56 0.66 0.81 0.86 0.89 0.87 0.80 0.69 0.64 0.61 0.60 0.60 0.69 0.75 0.79 0.79 0.71 0.71 0.83 0.78 0.73 0.70 0.70 0.66 0.68 0.72 0.79 0.76 0.72 0.63 0.59 0.61
1.01 0.94 0.76 0.63 0.66 0.69 0.76 0.79 0.68 0.67 0.55 0.44 0.37 0.47 0.54 0.53 0.51 0.53 0.61 0.72 0.78 0.82 0.87 0.85 0.74 0.67 0.61 0.58 0.55 0.53 0.62 0.67 0.69 0.72 0.68 0.70 0.74 0.73 0.70 0.67 0.73 0.75 0.73 0.78 0.77 0.68 0.64 0.63 0.60
0.94 0.88 0.80 0.67 0.67 0.71 0.76 0.80 0.75 0.80 0.62 0.51 0.43 0.48 0.51 0.52 0.52 0.55 0.58 0.67 0.71 0.72 0.85 0.89 0.81 0.76 0.69 0.62 0.58 0.57 0.63 0.70 0.69 0.62 0.57 0.61 0.63 0.65 0.74 0.78 0.80 0.81 0.81 0.88 0.88 0.69 0.69 0.74 0.70
0.83 0.89 0.88 0.80 0.79 0.77 0.80 0.99 0.91 0.83 0.71 0.68 0.56 0.47 0.49 0.48 0.48 0.53 0.54 0.60 0.67 0.75 0.87 0.87 0.84 0.93 0.84 0.74 0.71 0.64 0.68 0.73 0.74 0.73 0.69 0.71 0.70 0.71 0.80 0.88 0.90 0.89 0.86 0.89 1.13 1.01 0.78 0.75 0.74
0.96 1.06 1.22 0.87 0.78 0.82 0.95 1.14 0.86 0.84 0.82 0.87 0.70 0.58 0.53 0.50 0.47 0.47 0.48 0.58 0.63 0.78 0.86 0.96 0.86 0.95 0.93 0.88 0.87 0.80 0.80 0.85 0.85 0.84 0.86 0.81 0.80 0.82 0.91 0.97 0.87 0.93 1.01 1.04 1.20 1.27 0.98 0.80 0.80
1.12 1.20 1.18 0.93 0.71 0.74 0.84 0.94 0.78 0.74 0.72 0.74 0.69 0.62 0.60 0.48 0.44 0.42 0.43 0.49 0.57 0.73 0.82 0.96 0.99 0.97 1.02 1.04 1.06 1.00 0.96 0.97 0.94 0.93 0.88 0.89 0.92 0.99 1.06 1.07 1.01 1.01 1.03 1.13 1.13 1.35 1.32 1.13 1.03
1.07 0.95 0.90 0.82 0.71 0.72 0.73 0.64 0.63 0.62 0.64 0.61 0.61 0.57 0.52 0.45 0.43 0.41 0.38 0.40 0.47 0.64 0.77 0.89 1.04 1.16 1.23 1.26 1.31 1.29 1.20 1.11 1.13 1.15 1.11 1.12 1.18 1.15 1.21 1.23 1.24 1.32 1.30 1.29 1.22 1.41 1.52 1.34 1.31
0.74 0.73 0.74 0.63 0.57 0.60 0.55 0.49 0.53 0.56 0.59 0.53 0.54 0.53 0.44 0.39 0.41 0.39 0.34 0.37 0.40 0.51 0.63 0.79 1.15 1.58 1.77 1.66 1.64 1.67 1.74 1.71 1.61 1.57 1.54 1.58 1.58 1.58 1.63 1.60 1.58 1.54 1.50 1.56 1.55 1.80 2.14 1.69 1.47
0.69 0.74 0.76 0.66 0.48 0.48 0.48 0.42 0.43 0.49 0.50 0.46 0.43 0.46 0.41 0.36 0.32 0.30 0.27 0.31 0.35 0.53 0.68 0.80 1.09 1.54 1.74 1.85 1.97 2.18 2.34 2.21 2.06 2.04 1.98 2.06 2.07 2.22 2.19 2.17 2.16 2.07 2.07 2.05 1.97 2.08 2.38 2.02 1.78
0.68 0.71 0.70 0.64 0.49 0.44 0.43 0.45 0.40 0.45 0.40 0.38 0.38 0.39 0.35 0.28 0.26 0.27 0.26 0.30 0.34 0.47 0.60 0.73 0.94 1.24 1.58 1.84 2.11 2.39 2.61 2.57 2.44 2.27 2.25 2.31 2.36 2.51 2.64 2.63 2.68 2.50 2.37 2.40 2.32 2.28 2.44 2.50 2.21
0.70 0.48 0.44 0.44 0.58 0.59 0.44 0.66 0.47 0.46 0.42 0.38 0.38 0.37 0.36 0.30 0.29 0.32 0.29 0.32 0.36 0.43 0.53 0.69 0.90 1.13 1.37 1.60 2.01 2.44 2.72 2.80 2.70 2.60 2.57 2.52 2.52 2.58 2.79 2.82 2.93 2.76 2.64 2.61 2.52 2.34 2.47 2.77 2.68
0.52 0.41 0.41 0.43 0.53 0.49 0.35 0.48 0.46 0.39 0.41 0.37 0.34 0.33 0.33 0.31 0.32 0.36 0.36 0.39 0.44 0.48 0.53 0.67 0.83 1.05 1.28 1.51 1.85 2.24 2.51 2.72 2.85 2.68 2.55 2.57 2.59 2.62 2.74 2.88 2.98 2.84 2.72 2.66 2.76 2.66 2.60 2.53 2.52
0.41 0.44 0.44 0.45 0.52 0.56 0.28 0.40 0.52 0.37 0.33 0.34 0.30 0.28 0.29 0.32 0.38 0.42 0.52 0.57 0.58 0.54 0.59 0.68 0.80 0.97 1.12 1.24 1.44 1.66 2.01 2.24 2.57 2.57 2.50 2.62 2.59 2.51 2.44 2.60 2.84 2.78 2.75 2.76 2.84 2.90 2.83 2.81 2.80
0.40 0.62 0.81 0.81 0.77 0.52 0.22 0.37 0.51 0.37 0.30 0.31 0.32 0.29 0.30 0.34 0.40 0.49 0.64 0.71 0.73 0.63 0.59 0.63 0.80 0.88 0.95 1.03 1.11 1.25 1.50 1.66 2.03 2.35 2.32 2.24 2.28 2.33 2.39 2.43 2.43 2.44 2.52 2.66 2.89 2.87 2.76 2.74 2.84
0.34 0.54 0.85 0.96 0.84 0.54 0.37 0.54 0.58 0.42 0.34 0.31 0.30 0.33 0.37 0.42 0.48 0.66 0.83 0.89 0.88 0.76 0.68 0.69 0.81 0.88 0.90 0.95 0.96 1.04 1.16 1.26 1.44 1.66 1.77 1.80 1.84 2.06 2.19 2.29 2.25 2.27 2.34 2.43 2.55 2.59 2.61 2.57 2.56
0.30 0.36 0.42 0.61 0.58 0.60 0.58 0.66 0.59 0.40 0.38 0.37 0.40 0.45 0.56 0.64 0.69 0.82 0.98 1.06 0.97 0.85 0.75 0.77 0.85 0.97 0.96 0.99 1.00 1.08 1.10 1.10 1.20 1.24 1.38 1.56 1.60 1.65 1.78 1.89 1.97 2.09 2.15 2.23 2.39 2.46 2.44 2.47 2.46
0.21 0.28 0.44 0.65 0.83 0.85 0.69 0.70 0.68 0.56 0.53 0.50 0.54 0.60 0.71 0.82 0.89 0.98 1.13 1.17 1.02 0.88 0.79 0.79 0.86 0.97 1.14 1.26 1.22 1.18 1.23 1.29 1.49 1.51 1.36 1.34 1.50 1.55 1.58 1.64 1.71 1.85 1.98 2.07 2.17 2.28 2.38 2.39 2.39
0.26 0.36 0.50 0.68 0.70 0.97 1.08 1.00 0.79 0.71 0.70 0.73 0.76 0.80 0.87 0.99 1.00 0.99 1.09 1.15 1.05 0.87 0.79 0.77 0.80 0.89 1.03 1.07 1.12 1.10 1.16 1.27 1.53 1.73 1.67 1.49 1.47 1.49 1.45 1.40 1.48 1.62 1.73 1.84 1.97 2.04 2.06 2.09 2.22
0.35 0.46 0.67 1.02 0.97 0.89 1.09 1.08 0.78 0.69 0.73 0.74 0.74 0.74 0.79 0.90 0.90 0.94 0.98 0.95 0.87 0.74 0.67 0.65 0.67 0.77 0.91 0.91 0.95 1.01 1.03 1.12 1.24 1.35 1.36 1.29 1.20 1.17 1.23 1.28 1.28 1.36 1.53 1.65 1.69 1.71 1.74 1.81 1.93

GEFSSGP_prec_meanprecacc_264.txt.gz
Total_Precipitation_Accumulation
1.00 1.24 1.79 2.53 3.29 2.69 2.02 1.73 1.37 1.19 1.00 0.88 0.78 0.78 0.91 1.12 1.61 2.32 2.53 2.26 1.64 1.47 1.82 2.44 2.60 2.43 2.17 1.86 1.84 1.95 1.96 2.12 2.03 1.81 1.59 1.36 1.23 1.13 1.13 1.12 1.11 1.04 0.92 0.95 1.00 0.96 0.93 0.93 0.84
0.97 1.75 2.35 3.26 3.25 2.23 1.96 1.78 1.50 1.07 0.81 0.62 0.53 0.68 0.83 0.78 0.96 1.73 2.53 2.42 1.60 1.34 1.59 2.01 2.32 2.28 2.10 1.91 1.89 1.98 1.93 1.87 1.79 1.56 1.32 1.23 1.21 1.14 1.10 1.15 1.17 1.02 0.90 0.88 0.91 0.99 0.94 0.88 0.77
1.09 1.95 2.59 2.99 2.35 1.93 1.91 1.72 1.34 0.92 0.69 0.56 0.48 0.52 0.74 1.02 1.25 1.97 2.30 1.71 1.35 1.16 1.50 2.03 2.33 2.17 1.98 1.82 1.83 1.86 1.90 1.80 1.66 1.57 1.39 1.27 1.25 1.20 1.21 1.23 1.18 1.00 0.87 0.78 0.87 0.93 0.88 0.81 0.69
1.45 2.26 2.56 2.32 1.84 1.45 1.38 1.40 1.04 0.83 0.59 0.43 0.42 0.58 0.79 1.22 1.47 1.84 1.86 1.40 1.22 1.17 1.45 1.74 1.96 1.84 1.69 1.68 1.70 1.59 1.44 1.43 1.59 1.62 1.47 1.36 1.24 1.16 1.16 1.17 1.03 0.85 0.77 0.76 0.83 0.87 0.82 0.77 0.65
1.79 2.46 2.49 1.98 1.62 1.38 1.18 1.04 0.83 0.74 0.64 0.52 0.45 0.80 1.22 1.50 1.61 1.61 1.57 1.30 1.24 1.44 1.70 1.65 1.77 1.68 1.61 1.56 1.52 1.39 1.36 1.45 1.65 1.61 1.49 1.39 1.22 1.10 1.09 1.01 0.84 0.68 0.66 0.73 0.89 0.92 0.76 0.70 0.66
2.24 2.43 2.72 2.11 1.68 1.42 1.30 1.00 0.76 0.65 0.58 0.49 0.50 0.82 1.39 1.70 1.70 1.65 1.58 1.43 1.34 1.39 1.54 1.56 1.71 1.64 1.48 1.35 1.35 1.23 1.30 1.53 1.67 1.60 1.55 1.57 1.30 1.08 0.97 0.89 0.80 0.67 0.62 0.69 0.83 0.87 0.74 0.67 0.71
2.39 2.51 2.29 1.79 1.65 1.75 1.37 0.87 0.76 0.71 0.68 0.54 0.45 0.79 1.40 1.79 1.54 1.35 1.34 1.24 1.22 1.24 1.28 1.23 1.28 1.35 1.28 1.25 1.33 1.31 1.43 1.55 1.58 1.49 1.44 1.42 1.12 0.89 0.80 0.78 0.77 0.73 0.74 0.78 0.81 0.87 0.81 0.77 0.79
1.65 1.81 1.78 1.68 1.71 1.70 1.17 0.73 0.63 0.58 0.64 0.44 0.39 0.71 1.27 1.47 1.24 1.24 1.20 1.17 1.18 1.16 1.12 0.98 1.01 1.19 1.29 1.26 1.33 1.43 1.50 1.48 1.56 1.42 1.32 1.18 0.90 0.74 0.74 0.69 0.69 0.68 0.72 0.80 0.85 0.88 0.83 0.79 0.79
1.53 1.80 2.01 1.90 1.65 1.45 1.04 0.81 0.59 0.43 0.46 0.40 0.35 0.43 0.64 0.84 0.96 1.10 1.16 1.13 1.26 1.13 1.02 0.94 0.84 0.89 1.08 1.20 1.20 1.42 1.51 1.48 1.37 1.32 1.29 1.06 0.72 0.62 0.65 0.64 0.78 0.77 0.83 0.89 0.91 0.88 0.80 0.73 0.67
1.51 1.86 1.93 1.43 1.10 1.04 0.96 0.83 0.67 0.62 0.64 0.54 0.47 0.45 0.51 0.67 0.84 0.92 0.98 1.03 1.09 1.07 0.91 0.84 0.76 0.70 0.70 0.78 1.07 1.45 1.31 1.24 1.03 1.01 0.99 0.94 0.84 0.79 0.64 0.70 0.91 0.93 0.94 0.94 0.92 0.87 0.71 0.56 0.50
1.24 1.33 1.24 1.16 0.85 0.72 0.85 0.81 0.62 0.66 0.75 0.57 0.52 0.50 0.51 0.62 0.67 0.71 0.81 0.86 0.87 0.93 0.86 0.76 0.68 0.61 0.60 0.73 0.85 1.06 1.14 1.15 1.01 0.87 0.85 0.93 0.87 0.77 0.65 0.59 0.68 0.78 0.86 0.78 0.75 0.73 0.57 0.51 0.55
1.09 1.01 0.88 0.84 0.67 0.68 0.87 0.75 0.63 0.71 0.67 0.44 0.36 0.39 0.51 0.59 0.57 0.57 0.67 0.81 0.87 0.89 0.88 0.81 0.70 0.64 0.61 0.62 0.61 0.70 0.75 0.80 0.80 0.74 0.74 0.85 0.80 0.75 0.72 0.72 0.67 0.69 0.73 0.80 0.77 0.73 0.64 0.60 0.62
1.01 0.95 0.76 0.63 0.67 0.69 0.76 0.79 0.69 0.68 0.56 0.46 0.38 0.48 0.55 0.54 0.52 0.53 0.61 0.73 0.79 0.82 0.88 0.85 0.74 0.67 0.61 0.58 0.56 0.53 0.63 0.69 0.70 0.74 0.70 0.72 0.76 0.75 0.71 0.69 0.74 0.76 0.74 0.78 0.78 0.69 0.64 0.63 0.61
0.94 0.88 0.81 0.68 0.67 0.71 0.77 0.80 0.76 0.80 0.63 0.52 0.43 0.49 0.51 0.52 0.52 0.55 0.58 0.68 0.71 0.72 0.86 0.89 0.81 0.76 0.70 0.62 0.58 0.57 0.64 0.72 0.71 0.63 0.59 0.63 0.65 0.67 0.75 0.79 0.81 0.82 0.82 0.89 0.89 0.69 0.70 0.75 0.71
0.83 0.89 0.88 0.80 0.79 0.77 0.80 0.99 0.92 0.84 0.72 0.69 0.56 0.48 0.49 0.48 0.48 0.53 0.54 0.61 0.68 0.75 0.88 0.87 0.85 0.93 0.84 0.74 0.72 0.64 0.69 0.74 0.76 0.76 0.71 0.72 0.71 0.72 0.81 0.89 0.91 0.90 0.87 0.91 1.14 1.01 0.79 0.75 0.74
0.96 1.06 1.22 0.88 0.78 0.82 0.95 1.15 0.86 0.85 0.83 0.89 0.71 0.58 0.53 0.50 0.47 0.47 0.48 0.58 0.63 0.78 0.87 0.96 0.87 0.96 0.94 0.88 0.87 0.81 0.81 0.86 0.86 0.86 0.88 0.82 0.81 0.83 0.92 0.98 0.88 0.94 1.01 1.05 1.21 1.28 0.99 0.81 0.80
1.13 1.21 1.19 0.93 0.71 0.74 0.85 0.95 0.79 0.74 0.72 0.75 0.70 0.62 0.61 0.49 0.44 0.42 0.43 0.50 0.57 0.73 0.82 0.96 0.99 0.98 1.03 1.05 1.06 1.01 0.97 0.98 0.95 0.94 0.89 0.91 0.93 1.00 1.07 1.08 1.02 1.02 1.03 1.13 1.14 1.36 1.33 1.14 1.04
1.07 0.95 0.90 0.82 0.71 0.72 0.73 0.65 0.63 0.62 0.64 0.61 0.62 0.58 0.52 0.45 0.43 0.42 0.38 0.40 0.47 0.64 0.77 0.89 1.04 1.16 1.24 1.27 1.31 1.30 1.20 1.12 1.14 1.16 1.12 1.13 1.19 1.16 1.22 1.24 1.25 1.33 1.30 1.29 1.22 1.41 1.52 1.35 1.32
0.74 0.73 0.74 0.64 0.57 0.60 0.55 0.49 0.53 0.56 0.60 0.53 0.54 0.53 0.44 0.39 0.42 0.40 0.35 0.37 0.41 0.52 0.63 0.79 1.15 1.59 1.78 1.67 1.65 1.68 1.75 1.72 1.62 1.58 1.55 1.59 1.58 1.58 1.63 1.60 1.59 1.55 1.51 1.58 1.56 1.80 2.15 1.70 1.48
0.69 0.74 0.76 0.66 0.48 0.48 0.48 0.42 0.43 0.49 0.50 0.46 0.44 0.46 0.41 0.36 0.33 0.30 0.28 0.32 0.36 0.53 0.69 0.80 1.10 1.55 1.75 1.85 1.97 2.18 2.35 2.22 2.07 2.04 1.99 2.06 2.08 2.23 2.19 2.17 2.16 2.08 2.08 2.07 1.99 2.09 2.39 2.03 1.79
0.68 0.71 0.70 0.64 0.49 0.44 0.43 0.45 0.40 0.45 0.40 0.38 0.38 0.39 0.35 0.28 0.26 0.27 0.26 0.30 0.34 0.47 0.61 0.74 0.94 1.25 1.60 1.85 2.11 2.40 2.61 2.58 2.44 2.27 2.25 2.31 2.36 2.51 2.65 2.63 2.68 2.50 2.38 2.41 2.33 2.28 2.46 2.52 2.22
0.70 0.48 0.44 0.44 0.58 0.59 0.44 0.66 0.47 0.46 0.42 0.38 0.38 0.37 0.36 0.30 0.29 0.32 0.30 0.32 0.36 0.43 0.54 0.70 0.91 1.15 1.39 1.62 2.02 2.44 2.72 2.81 2.70 2.60 2.57 2.52 2.53 2.58 2.79 2.83 2.94 2.77 2.65 2.62 2.53 2.34 2.48 2.79 2.70
0.52 0.41 0.41 0.43 0.53 0.49 0.35 0.48 0.46 0.39 0.41 0.37 0.34 0.33 0.33 0.31 0.32 0.36 0.36 0.40 0.45 0.49 0.54 0.68 0.84 1.07 1.31 1.54 1.87 2.25 2.52 2.72 2.85 2.68 2.55 2.57 2.59 2.62 2.74 2.88 2.99 2.85 2.73 2.66 2.76 2.67 2.61 2.54 2.53
0.41 0.44 0.44 0.46 0.52 0.56 0.28 0.40 0.52 0.37 0.34 0.34 0.30 0.28 0.29 0.32 0.38 0.42 0.52 0.57 0.59 0.55 0.60 0.70 0.81 0.97 1.13 1.26 1.46 1.68 2.03 2.25 2.58 2.58 2.50 2.62 2.59 2.51 2.44 2.61 2.84 2.78 2.76 2.77 2.85 2.91 2.84 2.82 2.81
0.40 0.62 0.81 0.82 0.78 0.53 0.22 0.37 0.51 0.37 0.30 0.31 0.32 0.29 0.30 0.34 0.40 0.49 0.64 0.71 0.73 0.64 0.60 0.65 0.81 0.89 0.96 1.05 1.14 1.27 1.52 1.67 2.04 2.35 2.32 2.24 2.28 2.33 2.40 2.43 2.44 2.44 2.52 2.67 2.90 2.88 2.77 2.75 2.85
0.34 0.54 0.86 0.97 0.84 0.55 0.37 0.54 0.58 0.42 0.34 0.31 0.30 0.33 0.37 0.42 0.48 0.66 0.83 0.89 0.89 0.78 0.70 0.71 0.83 0.92 0.95 0.98 0.99 1.07 1.19 1.27 1.45 1.67 1.77 1.80 1.85 2.06 2.19 2.29 2.25 2.27 2.35 2.43 2.56 2.60 2.62 2.58 2.57
0.30 0.36 0.42 0.61 0.58 0.61 0.58 0.66 0.59 0.40 0.38 0.37 0.40 0.45 0.56 0.64 0.69 0.82 0.99 1.06 0.97 0.85 0.76 0.79 0.89 1.00 1.00 1.02 1.03 1.10 1.11 1.11 1.22 1.24 1.38 1.57 1.60 1.65 1.79 1.89 1.98 2.09 2.15 2.24 2.40 2.46 2.45 2.48 2.47
0.22 0.28 0.44 0.66 0.83 0.86 0.69 0.70 0.68 0.57 0.53 0.50 0.54 0.60 0.72 0.82 0.90 0.99 1.13 1.17 1.02 0.88 0.80 0.81 0.89 1.00 1.17 1.28 1.23 1.19 1.24 1.29 1.50 1.51 1.36 1.34 1.51 1.56 1.59 1.64 1.71 1.86 1.98 2.07 2.17 2.28 2.39 2.39 2.39
0.26 0.36 0.51 0.69 0.71 0.97 1.09 1.00 0.79 0.71 0.70 0.73 0.76 0.80 0.87 1.00 1.00 0.99 1.09 1.16 1.05 0.87 0.80 0.78 0.83 0.92 1.05 1.09 1.14 1.11 1.18 1.28 1.53 1.74 1.68 1.49 1.48 1.49 1.46 1.41 1.48 1.62 1.74 1.85 1.98 2.04 2.06 2.09 2.23
0.35 0.46 0.67 1.03 0.97 0.89 1.09 1.08 0.78 0.70 0.73 0.75 0.75 0.75 0.79 0.90 0.90 0.94 0.99 0.95 0.87 0.75 0.68 0.66 0.68 0.79 0.92 0.92 0.97 1.03 1.05 1.14 1.25 1.36 1.37 1.30 1.21 1.18 1.24 1.29 1.29 1.37 1.54 1.65 1.69 1.71 1.75 1.81 1.93

GEFSSGP_prec_meanprecacc_270.txt.gz
Total_Precipitation_Accumulation
1.00 1.24 1.79 2.56 3.39 2.82 2.11 1.80 1.42 1.21 1.01 0.88 0.78 0.78 0.94 1.17 1.67 2.38 2.60 2.31 1.67 1.56 1.91 2.53 2.69 2.51 2.24 1.93 1.91 2.02 2.05 2.22 2.13 1.89 1.65 1.42 1.29 1.18 1.18 1.16 1.14 1.08 0.96 0.98 1.03 0.99 0.96 0.95 0.88
0.97 1.75 2.35 3.32 3.37 2.36 2.04 1.85 1.55 1.08 0.82 0.62 0.54 0.69 0.84 0.80 0.97 1.75 2.57 2.46 1.63 1.42 1.67 2.14 2.49 2.40 2.17 1.97 1.96 2.06 2.02 1.95 1.87 1.64 1.38 1.29 1.26 1.19 1.13 1.19 1.20 1.05 0.93 0.91 0.95 1.03 0.98 0.91 0.81
1.09 1.95 2.61 3.06 2.44 2.02 1.98 1.76 1.36 0.92 0.69 0.56 0.48 0.53 0.75 1.03 1.27 1.99 2.35 1.75 1.40 1.21 1.55 2.11 2.48 2.30 2.04 1.87 1.90 1.92 1.97 1.87 1.72 1.63 1.46 1.33 1.31 1.26 1.24 1.25 1.22 1.04 0.89 0.81 0.91 0.97 0.92 0.86 0.75
1.46 2.27 2.58 2.37 1.91 1.49 1.41 1.43 1.05 0.83 0.59 0.43 0.43 0.59 0.80 1.24 1.50 1.88 1.93 1.44 1.25 1.20 1.48 1.78 2.02 1.91 1.74 1.72 1.73 1.63 1.48 1.48 1.63 1.68 1.53 1.41 1.29 1.21 1.19 1.20 1.08 0.89 0.81 0.80 0.86 0.89 0.86 0.81 0.69
1.80 2.48 2.53 2.03 1.67 1.41 1.21 1.05 0.84 0.75 0.66 0.52 0.45 0.81 1.25 1.52 1.65 1.65 1.61 1.34 1.25 1.45 1.72 1.68 1.81 1.73 1.66 1.59 1.54 1.42 1.40 1.49 1.68 1.64 1.52 1.42 1.26 1.13 1.11 1.04 0.88 0.72 0.70 0.76 0.92 0.94 0.78 0.73 0.68
2.26 2.46 2.77 2.17 1.72 1.44 1.31 1.01 0.77 0.66 0.59 0.49 0.50 0.83 1.40 1.73 1.74 1.68 1.60 1.45 1.35 1.39 1.55 1.59 1.74 1.67 1.51 1.38 1.39 1.27 1.34 1.57 1.71 1.64 1.58 1.60 1.34 1.12 0.99 0.92 0.82 0.70 0.64 0.71 0.85 0.90 0.77 0.70 0.73
2.42 2.54 2.34 1.83 1.69 1.78 1.39 0.87 0.77 0.72 0.69 0.55 0.45 0.80 1.41 1.81 1.57 1.37 1.37 1.25 1.23 1.24 1.29 1.24 1.30 1.38 1.32 1.30 1.38 1.37 1.47 1.58 1.61 1.52 1.47 1.46 1.15 0.92 0.83 0.81 0.80 0.75 0.75 0.80 0.83 0.89 0.83 0.79 0.80
1.66 1.83 1.82 1.72 1.76 1.73 1.18 0.74 0.64 0.60 0.65 0.45 0.40 0.72 1.29 1.48 1.25 1.26 1.23 1.19 1.20 1.17 1.13 0.99 1.02 1.21 1.33 1.31 1.38 1.48 1.53 1.50 1.58 1.44 1.34 1.21 0.94 0.78 0.77 0.71 0.71 0.70 0.74 0.81 0.86 0.89 0.84 0.80 0.79
1.53 1.83 2.07 1.95 1.69 1.47 1.04 0.82 0.60 0.44 0.47 0.41 0.36 0.44 0.65 0.85 0.96 1.12 1.19 1.15 1.27 1.15 1.04 0.97 0.86 0.92 1.11 1.24 1.25 1.48 1.55 1.50 1.40 1.34 1.31 1.09 0.75 0.65 0.69 0.66 0.81 0.79 0.84 0.90 0.92 0.89 0.81 0.75 0.69
1.51 1.91 1.96 1.44 1.10 1.04 0.96 0.83 0.67 0.62 0.65 0.55 0.47 0.46 0.52 0.68 0.85 0.95 1.03 1.06 1.12 1.10 0.93 0.87 0.78 0.73 0.73 0.81 1.10 1.48 1.33 1.27 1.05 1.03 1.02 0.96 0.86 0.81 0.66 0.72 0.93 0.95 0.95 0.94 0.92 0.88 0.73 0.59 0.52
1.24 1.36 1.25 1.16 0.85 0.72 0.85 0.81 0.63 0.67 0.76 0.57 0.53 0.51 0.53 0.63 0.68 0.75 0.85 0.88 0.89 0.96 0.90 0.82 0.73 0.64 0.63 0.75 0.87 1.08 1.15 1.17 1.03 0.88 0.87 0.94 0.89 0.79 0.67 0.62 0.70 0.80 0.87 0.79 0.76 0.74 0.58 0.53 0.57
1.09 1.01 0.88 0.85 0.67 0.68 0.87 0.75 0.64 0.72 0.69 0.45 0.37 0.40 0.51 0.59 0.57 0.58 0.70 0.84 0.89 0.91 0.91 0.85 0.74 0.68 0.65 0.64 0.62 0.70 0.76 0.81 0.82 0.76 0.75 0.86 0.81 0.77 0.75 0.74 0.69 0.70 0.75 0.82 0.78 0.74 0.64 0.60 0.62
1.01 0.95 0.77 0.63 0.67 0.69 0.76 0.80 0.69 0.69 0.57 0.46 0.39 0.48 0.55 0.54 0.52 0.54 0.61 0.74 0.81 0.85 0.91 0.87 0.76 0.68 0.63 0.59 0.56 0.54 0.64 0.69 0.71 0.75 0.73 0.74 0.78 0.77 0.73 0.70 0.75 0.76 0.75 0.79 0.79 0.70 0.64 0.63 0.61
0.95 0.88 0.81 0.68 0.68 0.71 0.77 0.81 0.76 0.81 0.63 0.52 0.44 0.49 0.51 0.53 0.53 0.56 0.59 0.69 0.73 0.74 0.89 0.92 0.82 0.77 0.70 0.63 0.59 0.58 0.65 0.72 0.71 0.64 0.60 0.65 0.67 0.69 0.78 0.81 0.82 0.83 0.82 0.90 0.90 0.70 0.71 0.75 0.71
0.83 0.89 0.88 0.80 0.79 0.77 0.80 1.00 0.92 0.84 0.72 0.69 0.56 0.48 0.49 0.48 0.48 0.54 0.54 0.61 0.69 0.76 0.89 0.89 0.86 0.94 0.85 0.75 0.72 0.65 0.69 0.74 0.76 0.76 0.71 0.72 0.72 0.74 0.82 0.90 0.91 0.90 0.88 0.92 1.15 1.01 0.79 0.76 0.75
0.96 1.06 1.22 0.88 0.78 0.82 0.96 1.17 0.87 0.85 0.83 0.90 0.72 0.58 0.53 0.50 0.47 0.47 0.48 0.58 0.63 0.79 0.87 0.96 0.88 0.97 0.95 0.89 0.88 0.82 0.82 0.87 0.87 0.87 0.89 0.83 0.83 0.86 0.94 0.99 0.89 0.95 1.03 1.07 1.23 1.29 1.00 0.81 0.81
1.13 1.21 1.19 0.93 0.71 0.74 0.85 0.96 0.79 0.74 0.72 0.75 0.71 0.63 0.61 0.49 0.44 0.42 0.43 0.50 0.57 0.73 0.82 0.97 0.99 0.98 1.03 1.05 1.08 1.02 0.98 0.99 0.97 0.95 0.91 0.92 0.95 1.02 1.09 1.10 1.04 1.03 1.05 1.15 1.15 1.37 1.35 1.15 1.06
1.08 0.96 0.91 0.82 0.71 0.72 0.73 0.65 0.63 0.62 0.64 0.61 0.62 0.58 0.53 0.46 0.44 0.42 0.39 0.40 0.47 0.64 0.77 0.89 1.05 1.17 1.24 1.27 1.32 1.31 1.21 1.13 1.15 1.16 1.13 1.14 1.21 1.17 1.24 1.26 1.26 1.34 1.32 1.31 1.23 1.43 1.55 1.37 1.35
0.74 0.73 0.75 0.64 0.57 0.60 0.55 0.49 0.53 0.56 0.60 0.53 0.54 0.53 0.44 0.40 0.42 0.40 0.35 0.37 0.41 0.52 0.63 0.79 1.16 1.60 1.78 1.69 1.67 1.71 1.76 1.73 1.63 1.59 1.56 1.59 1.59 1.59 1.64 1.61 1.61 1.58 1.53 1.59 1.57 1.83 2.18 1.73 1.50
0.69 0.74 0.76 0.66 0.48 0.48 0.48 0.42 0.43 0.49 0.50 0.46 0.44 0.46 0.41 0.37 0.33 0.31 0.28 0.32 0.36 0.53 0.69 0.80 1.10 1.55 1.75 1.86 1.98 2.19 2.36 2.23 2.08 2.06 2.00 2.07 2.08 2.23 2.20 2.18 2.18 2.10 2.10 2.08 2.00 2.11 2.41 2.06 1.81
0.68 0.71 0.70 0.64 0.49 0.44 0.43 0.45 0.40 0.45 0.40 0.38 0.38 0.39 0.35 0.28 0.27 0.28 0.27 0.31 0.35 0.48 0.62 0.74 0.95 1.25 1.60 1.86 2.12 2.40 2.62 2.60 2.46 2.29 2.26 2.32 2.37 2.52 2.65 2.64 2.69 2.52 2.39 2.44 2.35 2.31 2.49 2.55 2.25
0.70 0.48 0.44 0.44 0.58 0.59 0.45 0.68 0.48 0.46 0.43 0.38 0.38 0.37 0.36 0.30 0.29 0.32 0.30 0.33 0.37 0.44 0.54 0.71 0.91 1.15 1.39 1.62 2.02 2.45 2.74 2.83 2.73 2.63 2.58 2.53 2.53 2.58 2.79 2.83 2.94 2.78 2.66 2.63 2.55 2.37 2.51 2.83 2.74
0.53 0.41 0.41 0.43 0.53 0.50 0.35 0.49 0.48 0.39 0.42 0.37 0.34 0.33 0.33 0.31 0.32 0.36 0.36 0.40 0.46 0.49 0.55 0.69 0.84 1.07 1.32 1.54 1.88 2.27 2.53 2.74 2.87 2.71 2.58 2.59 2.61 2.63 2.75 2.89 3.00 2.86 2.73 2.68 2.78 2.68 2.63 2.55 2.55
0.41 0.44 0.44 0.46 0.52 0.58 0.28 0.41 0.53 0.37 0.34 0.34 0.31 0.28 0.29 0.32 0.38 0.42 0.52 0.57 0.60 0.55 0.60 0.70 0.81 0.98 1.14 1.26 1.47 1.69 2.04 2.26 2.60 2.60 2.53 2.64 2.62 2.53 2.45 2.61 2.85 2.79 2.77 2.78 2.87 2.92 2.85 2.83 2.83
0.40 0.63 0.83 0.84 0.80 0.54 0.22 0.37 0.52 0.38 0.30 0.31 0.32 0.29 0.30 0.34 0.41 0.50 0.64 0.71 0.74 0.64 0.61 0.66 0.82 0.90 0.98 1.06 1.15 1.28 1.53 1.68 2.04 2.36 2.34 2.26 2.30 2.35 2.41 2.44 2.44 2.45 2.53 2.67 2.90 2.89 2.78 2.76 2.87
0.34 0.55 0.87 0.99 0.87 0.56 0.37 0.54 0.59 0.42 0.34 0.31 0.30 0.33 0.37 0.42 0.48 0.66 0.83 0.90 0.89 0.79 0.71 0.73 0.85 0.93 0.96 0.99 1.00 1.08 1.19 1.28 1.45 1.68 1.79 1.81 1.86 2.08 2.20 2.30 2.26 2.27 2.35 2.44 2.56 2.60 2.63 2.59 2.59
0.30 0.36 0.42 0.61 0.59 0.62 0.58 0.66 0.59 0.40 0.38 0.37 0.40 0.45 0.56 0.64 0.69 0.83 0.99 1.07 0.99 0.86 0.77 0.80 0.90 1.01 1.01 1.03 1.05 1.11 1.12 1.12 1.22 1.25 1.39 1.58 1.61 1.66 1.80 1.90 1.98 2.09 2.15 2.24 2.40 2.47 2.45 2.48 2.48
0.22 0.28 0.44 0.66 0.85 0.88 0.71 0.71 0.69 0.57 0.53 0.50 0.54 0.60 0.72 0.82 0.91 1.00 1.14 1.18 1.05 0.90 0.80 0.81 0.89 1.01 1.18 1.30 1.25 1.21 1.25 1.30 1.50 1.52 1.37 1.35 1.51 1.57 1.60 1.65 1.72 1.86 1.98 2.08 2.18 2.28 2.39 2.40 2.40
0.26 0.36 0.51 0.69 0.72 0.99 1.11 1.02 0.80 0.71 0.71 0.73 0.77 0.81 0.87 1.00 1.01 1.01 1.11 1.17 1.07 0.88 0.81 0.79 0.83 0.93 1.06 1.11 1.15 1.12 1.18 1.29 1.54 1.75 1.68 1.49 1.48 1.50 1.47 1.42 1.49 1.63 1.74 1.85 1.99 2.05 2.06 2.09 2.23
0.35 0.46 0.68 1.04 0.98 0.90 1.10 1.10 0.78 0.70 0.73 0.75 0.76 0.76 0.80 0.91 0.91 0.96 1.01 0.96 0.88 0.75 0.68 0.67 0.69 0.80 0.93 0.93 0.98 1.04 1.05 1.15 1.26 1.37 1.38 1.31 1.22 1.19 1.24 1.30 1.31 1.38 1.54 1.66 1.70 1.72 1.75 1.82 1.93

GEFSSGP_prec_meanprecacc_276.txt.gz
Total_Precipitation_Accumulation
1.01 1.25 1.82 2.62 3.47 2.88 2.19 1.88 1.49 1.23 1.02 0.89 0.79 0.80 0.98 1.21 1.71 2.44 2.69 2.40 1.73 1.60 1.96 2.64 2.80 2.59 2.31 1.97 1.94 2.05 2.08 2.28 2.17 1.92 1.67 1.46 1.32 1.20 1.20 1.19 1.16 1.09 0.97 1.00 1.05 1.01 0.97 0.98 0.94
0.98 1.77 2.39 3.38 3.44 2.43 2.13 1.93 1.59 1.10 0.82 0.63 0.54 0.71 0.88 0.83 1.02 1.80 2.64 2.53 1.68 1.46 1.71 2.20 2.54 2.45 2.23 2.02 1.99 2.08 2.04 1.98 1.90 1.67 1.42 1.32 1.28 1.21 1.15 1.20 1.21 1.07 0.95 0.93 0.97 1.04 0.99 0.93 0.88
1.11 1.97 2.65 3.11 2.49 2.09 2.05 1.82 1.40 0.95 0.70 0.57 0.49 0.54 0.78 1.08 1.31 2.03 2.40 1.79 1.42 1.24 1.59 2.17 2.52 2.33 2.07 1.90 1.92 1.95 2.00 1.91 1.76 1.66 1.49 1.36 1.33 1.28 1.26 1.27 1.24 1.06 0.90 0.83 0.92 0.98 0.94 0.87 0.79
1.48 2.29 2.61 2.41 1.95 1.55 1.47 1.47 1.07 0.84 0.60 0.43 0.43 0.59 0.81 1.28 1.54 1.93 1.98 1.47 1.27 1.22 1.52 1.81 2.06 1.93 1.76 1.74 1.75 1.65 1.52 1.50 1.65 1.71 1.55 1.44 1.32 1.23 1.21 1.22 1.11 0.93 0.83 0.82 0.88 0.91 0.87 0.83 0.72
1.82 2.50 2.56 2.07 1.71 1.45 1.27 1.10 0.86 0.76 0.66 0.53 0.46 0.82 1.27 1.56 1.69 1.70 1.66 1.37 1.26 1.46 1.75 1.72 1.84 1.74 1.68 1.61 1.55 1.43 1.43 1.52 1.70 1.67 1.55 1.45 1.28 1.15 1.13 1.06 0.90 0.75 0.72 0.77 0.94 0.96 0.81 0.76 0.70
2.28 2.48 2.79 2.21 1.78 1.48 1.35 1.03 0.78 0.67 0.60 0.50 0.51 0.84 1.44 1.78 1.77 1.72 1.64 1.48 1.36 1.40 1.57 1.62 1.79 1.70 1.55 1.41 1.41 1.30 1.36 1.61 1.74 1.68 1.62 1.63 1.36 1.14 1.02 0.94 0.84 0.71 0.65 0.71 0.86 0.91 0.79 0.71 0.75
2.45 2.57 2.37 1.87 1.75 1.82 1.41 0.89 0.78 0.72 0.70 0.56 0.46 0.81 1.43 1.84 1.60 1.40 1.41 1.29 1.27 1.25 1.30 1.24 1.31 1.40 1.35 1.33 1.42 1.41 1.50 1.62 1.65 1.55 1.51 1.49 1.17 0.94 0.85 0.82 0.81 0.76 0.76 0.80 0.84 0.90 0.84 0.80 0.83
1.69 1.86 1.85 1.75 1.80 1.78 1.21 0.76 0.65 0.60 0.66 0.45 0.41 0.73 1.31 1.50 1.28 1.30 1.26 1.22 1.23 1.20 1.15 1.01 1.03 1.22 1.34 1.33 1.41 1.51 1.56 1.53 1.61 1.47 1.37 1.24 0.95 0.79 0.79 0.73 0.73 0.71 0.74 0.82 0.86 0.89 0.85 0.81 0.82
1.56 1.86 2.10 1.97 1.73 1.51 1.05 0.83 0.61 0.44 0.47 0.42 0.37 0.45 0.68 0.86 0.98 1.15 1.22 1.17 1.30 1.19 1.07 1.00 0.89 0.94 1.13 1.26 1.27 1.50 1.57 1.52 1.41 1.36 1.33 1.10 0.76 0.66 0.70 0.68 0.83 0.80 0.85 0.90 0.92 0.89 0.83 0.77 0.71
1.54 1.93 1.98 1.46 1.12 1.06 0.97 0.84 0.68 0.63 0.66 0.56 0.49 0.48 0.54 0.69 0.86 0.97 1.05 1.07 1.13 1.13 0.96 0.90 0.84 0.80 0.80 0.86 1.14 1.51 1.35 1.28 1.06 1.04 1.02 0.96 0.87 0.82 0.67 0.75 0.96 0.97 0.96 0.95 0.93 0.88 0.74 0.59 0.53
1.25 1.37 1.26 1.16 0.85 0.72 0.86 0.82 0.63 0.67 0.76 0.58 0.54 0.52 0.54 0.64 0.69 0.76 0.87 0.90 0.91 0.97 0.92 0.84 0.75 0.70 0.72 0.81 0.91 1.10 1.17 1.18 1.04 0.89 0.88 0.95 0.91 0.80 0.68 0.65 0.72 0.81 0.88 0.80 0.76 0.74 0.58 0.53 0.57
1.10 1.01 0.88 0.85 0.68 0.69 0.88 0.76 0.64 0.73 0.69 0.45 0.37 0.40 0.52 0.59 0.58 0.59 0.71 0.85 0.90 0.93 0.93 0.87 0.77 0.72 0.69 0.68 0.66 0.74 0.78 0.83 0.85 0.79 0.77 0.89 0.85 0.79 0.76 0.75 0.70 0.71 0.76 0.82 0.79 0.74 0.65 0.60 0.62
1.02 0.95 0.77 0.63 0.67 0.70 0.77 0.80 0.70 0.70 0.58 0.47 0.40 0.49 0.55 0.55 0.54 0.55 0.62 0.75 0.82 0.86 0.92 0.89 0.78 0.71 0.72 0.71 0.62 0.61 0.68 0.72 0.74 0.79 0.74 0.76 0.81 0.80 0.75 0.72 0.76 0.77 0.75 0.79 0.80 0.70 0.64 0.64 0.61
0.95 0.89 0.81 0.68 0.68 0.72 0.78 0.81 0.76 0.82 0.64 0.53 0.44 0.50 0.52 0.54 0.55 0.57 0.60 0.69 0.74 0.75 0.90 0.94 0.84 0.79 0.76 0.71 0.63 0.62 0.68 0.74 0.73 0.65 0.61 0.66 0.69 0.72 0.80 0.83 0.83 0.83 0.83 0.91 0.90 0.70 0.71 0.76 0.72
0.84 0.89 0.88 0.80 0.79 0.78 0.81 1.01 0.93 0.85 0.73 0.70 0.57 0.49 0.50 0.50 0.50 0.56 0.55 0.62 0.70 0.78 0.90 0.90 0.87 0.96 0.87 0.78 0.75 0.67 0.71 0.76 0.78 0.77 0.72 0.73 0.73 0.75 0.83 0.90 0.92 0.91 0.88 0.93 1.16 1.03 0.79 0.76 0.76
0.97 1.06 1.22 0.88 0.78 0.82 0.96 1.18 0.88 0.86 0.83 0.90 0.73 0.59 0.54 0.51 0.49 0.48 0.50 0.60 0.64 0.81 0.89 0.98 0.89 0.98 0.96 0.90 0.90 0.84 0.84 0.89 0.89 0.89 0.90 0.84 0.84 0.87 0.95 0.99 0.90 0.95 1.03 1.07 1.24 1.31 1.01 0.82 0.82
1.13 1.21 1.19 0.93 0.71 0.74 0.85 0.96 0.79 0.75 0.72 0.76 0.72 0.64 0.62 0.50 0.46 0.43 0.45 0.51 0.58 0.75 0.84 0.98 1.01 0.99 1.04 1.07 1.08 1.03 0.99 1.00 0.98 0.97 0.93 0.94 0.97 1.03 1.10 1.11 1.05 1.04 1.06 1.16 1.16 1.38 1.36 1.17 1.06
1.08 0.96 0.91 0.82 0.71 0.72 0.73 0.65 0.64 0.63 0.65 0.61 0.63 0.59 0.54 0.47 0.46 0.44 0.40 0.42 0.49 0.66 0.78 0.90 1.05 1.17 1.25 1.28 1.33 1.31 1.22 1.14 1.16 1.18 1.14 1.16 1.23 1.19 1.25 1.28 1.28 1.35 1.33 1.31 1.25 1.45 1.57 1.38 1.35
0.74 0.73 0.75 0.64 0.57 0.60 0.55 0.49 0.54 0.57 0.61 0.54 0.55 0.54 0.45 0.40 0.44 0.42 0.36 0.39 0.43 0.54 0.64 0.80 1.16 1.60 1.79 1.69 1.67 1.71 1.77 1.74 1.63 1.60 1.57 1.61 1.61 1.61 1.66 1.63 1.62 1.59 1.54 1.59 1.59 1.84 2.20 1.74 1.51
0.69 0.75 0.76 0.66 0.48 0.48 0.48 0.42 0.43 0.49 0.51 0.47 0.44 0.47 0.41 0.37 0.35 0.33 0.30 0.34 0.39 0.56 0.72 0.83 1.12 1.57 1.77 1.88 2.00 2.20 2.37 2.24 2.09 2.07 2.02 2.08 2.09 2.24 2.20 2.19 2.19 2.11 2.11 2.09 2.01 2.12 2.43 2.08 1.83
0.68 0.71 0.71 0.64 0.50 0.44 0.43 0.45 0.41 0.46 0.41 0.39 0.38 0.39 0.35 0.29 0.27 0.28 0.28 0.33 0.37 0.50 0.64 0.77 0.97 1.27 1.62 1.87 2.14 2.42 2.64 2.61 2.48 2.31 2.28 2.34 2.39 2.53 2.66 2.64 2.70 2.53 2.40 2.44 2.36 2.32 2.50 2.56 2.27
0.71 0.48 0.44 0.44 0.58 0.60 0.45 0.68 0.49 0.47 0.43 0.38 0.38 0.38 0.36 0.30 0.29 0.33 0.31 0.33 0.37 0.46 0.56 0.74 0.95 1.18 1.41 1.63 2.03 2.46 2.74 2.84 2.74 2.64 2.60 2.55 2.56 2.61 2.81 2.84 2.95 2.79 2.67 2.64 2.56 2.37 2.52 2.83 2.75
0.53 0.41 0.41 0.43 0.53 0.50 0.35 0.49 0.48 0.40 0.42 0.37 0.34 0.33 0.33 0.31 0.32 0.36 0.37 0.41 0.47 0.50 0.57 0.72 0.89 1.11 1.34 1.56 1.89 2.27 2.53 2.74 2.88 2.72 2.59 2.60 2.63 2.66 2.78 2.91 3.01 2.87 2.74 2.68 2.79 2.69 2.63 2.56 2.56
0.41 0.44 0.44 0.46 0.53 0.58 0.29 0.41 0.54 0.38 0.34 0.35 0.31 0.28 0.29 0.32 0.38 0.43 0.53 0.59 0.61 0.57 0.62 0.73 0.86 1.02 1.17 1.29 1.49 1.70 2.04 2.27 2.60 2.60 2.53 2.65 2.63 2.55 2.49 2.65 2.88 2.80 2.78 2.79 2.87 2.93 2.85 2.83 2.83
0.41 0.63 0.83 0.84 0.81 0.55 0.23 0.38 0.52 0.38 0.30 0.31 0.32 0.29 0.30 0.35 0.41 0.50 0.64 0.73 0.76 0.68 0.64 0.70 0.87 0.95 1.03 1.11 1.19 1.32 1.55 1.69 2.04 2.37 2.35 2.26 2.31 2.36 2.42 2.48 2.48 2.47 2.54 2.68 2.91 2.89 2.79 2.77 2.87
0.34 0.55 0.87 1.00 0.88 0.57 0.38 0.55 0.59 0.43 0.35 0.31 0.30 0.33 0.38 0.42 0.48 0.66 0.84 0.90 0.90 0.81 0.75 0.80 0.93 0.99 1.01 1.04 1.06 1.14 1.23 1.30 1.46 1.68 1.80 1.82 1.87 2.09 2.21 2.32 2.28 2.30 2.38 2.45 2.57 2.61 2.64 2.60 2.59
0.30 0.36 0.42 0.62 0.59 0.63 0.59 0.67 0.60 0.40 0.38 0.38 0.40 0.45 0.56 0.65 0.70 0.83 0.99 1.07 0.99 0.88 0.81 0.85 0.96 1.07 1.05 1.08 1.12 1.17 1.16 1.14 1.23 1.25 1.39 1.58 1.62 1.67 1.81 1.92 2.01 2.12 2.19 2.27 2.42 2.48 2.47 2.50 2.49
0.22 0.28 0.44 0.66 0.85 0.89 0.72 0.73 0.71 0.58 0.54 0.50 0.54 0.60 0.72 0.83 0.91 1.00 1.14 1.19 1.07 0.93 0.85 0.87 0.95 1.06 1.23 1.35 1.30 1.26 1.30 1.32 1.51 1.52 1.38 1.36 1.52 1.58 1.61 1.67 1.74 1.88 2.01 2.11 2.19 2.30 2.41 2.41 2.41
0.26 0.36 0.51 0.69 0.72 0.99 1.12 1.02 0.80 0.72 0.71 0.73 0.78 0.82 0.87 1.00 1.02 1.01 1.12 1.19 1.10 0.91 0.84 0.81 0.86 0.96 1.10 1.15 1.20 1.17 1.23 1.32 1.57 1.77 1.70 1.51 1.49 1.51 1.48 1.45 1.52 1.66 1.77 1.88 2.01 2.06 2.08 2.11 2.24
0.35 0.46 0.68 1.04 0.99 0.91 1.11 1.10 0.78 0.71 0.74 0.76 0.77 0.76 0.80 0.91 0.91 0.96 1.02 0.98 0.90 0.77 0.70 0.69 0.71 0.82 0.95 0.96 1.02 1.09 1.10 1.19 1.30 1.41 1.43 1.34 1.24 1.20 1.26 1.31 1.33 1.40 1.57 1.69 1.73 1.74 1.77 1.83 1.95

GEFSSGP_prec_meanprecacc_282.txt.gz
Total_Precipitation_Accumulation
1.04 1.28 1.85 2.66 3.50 2.91 2.22 1.93 1.53 1.25 1.03 0.91 0.81 0.84 1.02 1.25 1.72 2.45 2.71 2.44 1.76 1.65 2.03 2.73 2.92 2.71 2.40 2.03 2.00 2.11 2.14 2.33 2.26 1.99 1.75 1.53 1.36 1.24 1.24 1.22 1.18 1.11 0.99 1.01 1.07 1.03 1.01 1.01 0.98
1.00 1.80 2.44 3.41 3.45 2.45 2.17 1.97 1.62 1.11 0.83 0.64 0.56 0.74 0.91 0.87 1.04 1.82 2.66 2.55 1.70 1.49 1.76 2.26 2.64 2.54 2.31 2.09 2.07 2.15 2.11 2.05 1.97 1.71 1.46 1.37 1.33 1.26 1.20 1.24 1.23 1.09 0.97 0.96 1.00 1.08 1.03 0.98 0.93
1.12 2.00 2.67 3.11 2.49 2.10 2.08 1.84 1.42 0.96 0.70 0.58 0.51 0.56 0.80 1.11 1.39 2.08 2.43 1.81 1.44 1.25 1.64 2.24 2.61 2.42 2.15 1.96 1.99 2.00 2.06 1.97 1.83 1.70 1.52 1.40 1.37 1.32 1.29 1.29 1.26 1.07 0.92 0.86 0.95 1.01 0.98 0.92 0.90
1.50 2.31 2.62 2.41 1.95 1.56 1.48 1.48 1.08 0.85 0.61 0.44 0.45 0.61 0.82 1.30 1.62 2.01 2.04 1.50 1.28 1.24 1.57 1.88 2.13 1.99 1.81 1.79 1.80 1.70 1.56 1.56 1.71 1.75 1.59 1.48 1.35 1.25 1.23 1.24 1.13 0.94 0.84 0.83 0.90 0.95 0.92 0.87 0.86
1.83 2.51 2.56 2.07 1.73 1.47 1.28 1.11 0.87 0.76 0.67 0.53 0.47 0.83 1.29 1.60 1.75 1.75 1.70 1.40 1.28 1.48 1.77 1.79 1.91 1.79 1.72 1.67 1.62 1.49 1.48 1.58 1.76 1.73 1.60 1.49 1.30 1.17 1.17 1.09 0.93 0.76 0.73 0.78 0.95 1.00 0.85 0.79 0.80
2.29 2.48 2.80 2.22 1.81 1.51 1.37 1.05 0.79 0.67 0.60 0.50 0.51 0.85 1.45 1.82 1.81 1.74 1.66 1.50 1.38 1.41 1.58 1.65 1.85 1.77 1.62 1.47 1.47 1.36 1.43 1.69 1.83 1.75 1.68 1.65 1.38 1.16 1.05 0.98 0.86 0.73 0.66 0.72 0.87 0.93 0.82 0.75 0.80
2.46 2.57 2.38 1.89 1.76 1.84 1.43 0.91 0.80 0.73 0.71 0.57 0.46 0.81 1.43 1.86 1.62 1.43 1.45 1.33 1.29 1.27 1.31 1.26 1.34 1.44 1.41 1.40 1.48 1.48 1.60 1.72 1.74 1.61 1.56 1.52 1.20 0.97 0.88 0.86 0.83 0.77 0.77 0.81 0.85 0.91 0.86 0.83 0.88
1.70 1.86 1.86 1.76 1.80 1.80 1.25 0.78 0.66 0.62 0.67 0.46 0.41 0.74 1.32 1.52 1.30 1.32 1.30 1.27 1.29 1.23 1.17 1.02 1.04 1.23 1.36 1.36 1.47 1.58 1.66 1.63 1.67 1.51 1.41 1.27 0.98 0.83 0.83 0.76 0.76 0.72 0.75 0.83 0.87 0.91 0.87 0.84 0.87
1.58 1.87 2.10 1.98 1.73 1.52 1.07 0.84 0.61 0.45 0.48 0.42 0.38 0.46 0.69 0.88 0.99 1.17 1.25 1.19 1.33 1.20 1.08 1.01 0.90 0.95 1.15 1.28 1.31 1.57 1.66 1.60 1.44 1.38 1.37 1.15 0.79 0.68 0.73 0.71 0.85 0.83 0.87 0.91 0.94 0.91 0.84 0.79 0.74
1.57 1.95 1.99 1.46 1.12 1.07 0.98 0.85 0.69 0.63 0.67 0.56 0.49 0.49 0.55 0.71 0.87 0.98 1.07 1.09 1.16 1.15 0.97 0.91 0.85 0.82 0.82 0.89 1.18 1.57 1.41 1.31 1.07 1.05 1.05 1.00 0.90 0.85 0.70 0.78 0.98 0.98 0.98 0.96 0.95 0.89 0.74 0.59 0.53
1.27 1.39 1.26 1.17 0.85 0.73 0.87 0.82 0.63 0.67 0.77 0.59 0.55 0.53 0.54 0.64 0.70 0.77 0.88 0.91 0.92 1.00 0.94 0.85 0.76 0.71 0.75 0.85 0.95 1.15 1.21 1.20 1.05 0.90 0.89 0.97 0.93 0.82 0.69 0.66 0.74 0.82 0.89 0.80 0.77 0.75 0.59 0.53 0.57
1.12 1.02 0.89 0.86 0.68 0.69 0.88 0.76 0.65 0.74 0.70 0.46 0.38 0.41 0.52 0.60 0.60 0.61 0.73 0.87 0.91 0.95 0.95 0.88 0.78 0.74 0.72 0.70 0.68 0.76 0.80 0.85 0.88 0.82 0.79 0.90 0.86 0.80 0.77 0.76 0.71 0.71 0.76 0.82 0.79 0.74 0.65 0.60 0.62
1.03 0.96 0.78 0.64 0.67 0.70 0.77 0.81 0.70 0.71 0.59 0.48 0.40 0.49 0.56 0.56 0.56 0.58 0.65 0.77 0.84 0.88 0.94 0.91 0.81 0.74 0.74 0.72 0.63 0.62 0.70 0.74 0.82 0.86 0.77 0.78 0.82 0.81 0.76 0.72 0.77 0.78 0.76 0.80 0.80 0.70 0.64 0.64 0.62
0.96 0.89 0.82 0.68 0.68 0.72 0.78 0.82 0.77 0.83 0.65 0.53 0.45 0.50 0.53 0.56 0.56 0.59 0.62 0.72 0.75 0.77 0.92 0.95 0.86 0.82 0.77 0.72 0.63 0.63 0.70 0.79 0.80 0.69 0.64 0.68 0.72 0.75 0.83 0.84 0.84 0.84 0.83 0.91 0.90 0.70 0.71 0.76 0.73
0.85 0.90 0.89 0.81 0.79 0.78 0.81 1.02 0.94 0.87 0.74 0.70 0.58 0.49 0.51 0.50 0.50 0.57 0.58 0.65 0.72 0.79 0.91 0.92 0.89 0.98 0.88 0.78 0.75 0.67 0.71 0.78 0.81 0.78 0.73 0.74 0.75 0.77 0.86 0.92 0.93 0.91 0.89 0.94 1.17 1.03 0.80 0.76 0.77
0.97 1.07 1.23 0.88 0.79 0.82 0.97 1.19 0.89 0.87 0.85 0.91 0.73 0.60 0.55 0.52 0.50 0.49 0.51 0.62 0.67 0.83 0.91 1.01 0.91 0.99 0.96 0.90 0.90 0.84 0.84 0.89 0.90 0.90 0.92 0.86 0.85 0.87 0.96 1.00 0.91 0.96 1.04 1.08 1.25 1.32 1.02 0.83 0.82
1.13 1.21 1.19 0.93 0.71 0.74 0.85 0.97 0.80 0.75 0.74 0.76 0.72 0.64 0.62 0.50 0.47 0.44 0.46 0.53 0.60 0.77 0.89 1.03 1.03 1.00 1.05 1.07 1.09 1.03 0.99 1.00 0.99 0.98 0.95 0.96 0.98 1.04 1.11 1.12 1.06 1.05 1.07 1.17 1.18 1.40 1.38 1.17 1.07
1.08 0.96 0.91 0.82 0.72 0.72 0.73 0.65 0.64 0.64 0.66 0.62 0.63 0.60 0.54 0.48 0.47 0.44 0.40 0.43 0.50 0.67 0.81 0.96 1.11 1.21 1.27 1.29 1.34 1.32 1.22 1.15 1.16 1.18 1.15 1.17 1.25 1.21 1.26 1.29 1.30 1.37 1.34 1.33 1.28 1.47 1.59 1.39 1.36
0.74 0.74 0.75 0.64 0.57 0.60 0.55 0.49 0.54 0.58 0.62 0.55 0.56 0.55 0.46 0.41 0.44 0.42 0.37 0.40 0.45 0.57 0.67 0.83 1.21 1.65 1.82 1.71 1.69 1.73 1.78 1.75 1.64 1.61 1.58 1.62 1.62 1.63 1.67 1.65 1.64 1.61 1.56 1.62 1.61 1.88 2.23 1.76 1.52
0.69 0.75 0.77 0.67 0.48 0.48 0.48 0.42 0.43 0.50 0.51 0.47 0.44 0.47 0.42 0.38 0.36 0.33 0.31 0.36 0.40 0.58 0.74 0.86 1.15 1.60 1.80 1.91 2.02 2.22 2.38 2.25 2.11 2.08 2.03 2.09 2.11 2.26 2.22 2.21 2.21 2.13 2.13 2.11 2.03 2.14 2.45 2.09 1.83
0.69 0.71 0.71 0.64 0.50 0.44 0.43 0.45 0.41 0.46 0.41 0.39 0.39 0.40 0.36 0.29 0.28 0.29 0.29 0.34 0.38 0.51 0.66 0.79 1.00 1.30 1.64 1.90 2.16 2.43 2.65 2.62 2.49 2.31 2.28 2.35 2.40 2.54 2.67 2.65 2.72 2.55 2.42 2.46 2.37 2.33 2.52 2.58 2.28
0.71 0.48 0.44 0.45 0.58 0.60 0.45 0.68 0.49 0.47 0.43 0.38 0.38 0.38 0.36 0.31 0.29 0.33 0.31 0.34 0.38 0.46 0.57 0.75 0.96 1.20 1.43 1.66 2.06 2.48 2.76 2.85 2.75 2.65 2.61 2.56 2.57 2.62 2.82 2.85 2.96 2.81 2.70 2.67 2.57 2.39 2.54 2.85 2.77
0.53 0.41 0.41 0.44 0.54 0.50 0.35 0.49 0.48 0.40 0.42 0.37 0.34 0.33 0.33 0.31 0.32 0.36 0.37 0.41 0.47 0.52 0.58 0.73 0.90 1.12 1.36 1.58 1.93 2.31 2.56 2.76 2.89 2.72 2.59 2.60 2.64 2.66 2.79 2.92 3.02 2.88 2.77 2.70 2.80 2.70 2.64 2.56 2.57
0.41 0.45 0.44 0.46 0.53 0.59 0.29 0.42 0.54 0.38 0.35 0.35 0.31 0.28 0.29 0.33 0.38 0.43 0.53 0.59 0.62 0.58 0.63 0.74 0.87 1.05 1.20 1.32 1.53 1.75 2.08 2.29 2.61 2.60 2.53 2.65 2.63 2.55 2.49 2.66 2.89 2.82 2.81 2.81 2.88 2.94 2.86 2.83 2.84
0.41 0.63 0.83 0.84 0.81 0.55 0.23 0.38 0.52 0.38 0.30 0.31 0.32 0.29 0.30 0.35 0.41 0.50 0.65 0.73 0.77 0.69 0.65 0.71 0.89 0.98 1.07 1.15 1.23 1.35 1.58 1.71 2.07 2.38 2.35 2.27 2.32 2.37 2.43 2.48 2.49 2.48 2.57 2.71 2.92 2.90 2.79 2.77 2.88
0.34 0.55 0.87 1.01 0.88 0.57 0.38 0.55 0.59 0.43 0.35 0.31 0.30 0.33 0.38 0.42 0.49 0.67 0.84 0.91 0.91 0.82 0.76 0.81 0.96 1.04 1.07 1.10 1.12 1.19 1.27 1.33 1.49 1.70 1.81 1.83 1.87 2.09 2.22 2.33 2.30 2.31 2.39 2.48 2.60 2.62 2.65 2.61 2.60
0.30 0.37 0.43 0.62 0.59 0.63 0.60 0.67 0.60 0.40 0.38 0.38 0.40 0.45 0.56 0.65 0.70 0.83 0.99 1.08 1.00 0.88 0.81 0.87 0.99 1.13 1.14 1.16 1.18 1.24 1.23 1.19 1.27 1.29 1.42 1.59 1.63 1.69 1.83 1.92 2.03 2.15 2.21 2.29 2.45 2.50 2.49 2.51 2.51
0.22 0.29 0.44 0.67 0.85 0.89 0.72 0.73 0.71 0.59 0.54 0.50 0.54 0.60 0.72 0.83 0.91 1.00 1.14 1.19 1.07 0.94 0.86 0.90 1.01 1.13 1.32 1.43 1.35 1.29 1.34 1.37 1.55 1.56 1.40 1.38 1.54 1.60 1.64 1.68 1.76 1.93 2.04 2.14 2.22 2.32 2.42 2.42 2.42
0.27 0.37 0.51 0.69 0.72 0.99 1.12 1.02 0.80 0.72 0.71 0.73 0.78 0.82 0.88 1.01 1.02 1.01 1.12 1.20 1.10 0.92 0.85 0.85 0.90 1.01 1.15 1.19 1.23 1.19 1.26 1.36 1.60 1.80 1.74 1.54 1.51 1.53 1.52 1.48 1.54 1.69 1.81 1.93 2.04 2.10 2.11 2.12 2.25
0.36 0.47 0.68 1.05 0.99 0.91 1.11 1.10 0.78 0.71 0.74 0.76 0.77 0.76 0.80 0.91 0.91 0.96 1.02 0.98 0.90 0.77 0.70 0.70 0.72 0.83 0.98 0.98 1.04 1.11 1.13 1.23 1.34 1.45 1.48 1.39 1.27 1.24 1.29 1.34 1.34 1.43 1.61 1.75 1.78 1.79 1.81 1.85 1.96